[[{"header":{"parameterUnit":"m.s-1","parameterCategory":1,"la1":30.6,"la2":29.2853,"lo1":-89.7004,"lo2":-87.6739,"dy":0.0162,"dx":0.0183,"nx":112,"ny":82,"refTime":"2024-02-13T06:00:00:Z","depth":0,"parameterNumber":2,"parameterNumberName":"U-component_of_WINDS"},"data":[0.0,0.0,0.0,0.0,0.0,0.0,0.0,0.0,0.0,0.0,0.0,0.0,0.0,0.0,0.0,0.0,0.0,0.0,0.0,0.0,0.0,0.0,0.0,0.0,0.0,0.0,0.0,0.0,0.0,0.0,0.0,0.0,0.0,0.0,0.0,0.0,0.0,0.0,0.0,0.0,0.0,0.0,0.0,0.0,0.0,0.0,0.0,0.0,0.0,0.0,0.0,0.0,0.0,0.0,0.0,0.0,0.0,0.0,0.0,0.0,0.0,0.0,0.0,0.0,0.0,0.0,0.0,0.0,0.0,0.0,0.0,0.0,0.0,0.0,0.0,0.0,0.0,0.0,0.0,0.0,0.0,0.0,0.0,0.0,0.0,0.0,0.0,0.0,0.0,0.0,0.6386,0.7156,0.7546,0.7638,0.7394,0.6999,0.657,0.6123,0.0,0.0,0.0,0.0,0.0,0.0,0.0,0.0,0.0,0.0,0.0,0.0,0.0,0.0,0.0,0.0,0.0,0.0,0.0,0.0,0.0,0.0,0.0,0.0,0.0,0.0,0.0,0.0,0.0,0.0,0.0,0.0,0.0,0.0,0.0,0.0,0.0,0.0,0.0,0.0,0.0,0.0,0.0,0.0,0.0,0.0,0.0,0.0,0.0,0.0,0.0,0.0,0.0,0.0,0.0,0.0,0.0,0.0,0.0,0.0,0.0,0.0,0.0,0.0,0.0,0.0,0.0,0.0,0.0,0.0,0.0,0.0,0.0,0.0,0.0,0.0,0.0,0.0,0.0,0.0,0.0,0.0,0.0,0.0,0.0,0.0,0.0,0.0,0.0,0.0,0.0,0.0,0.0,0.0,0.0,0.0,0.0,0.0,0.0,0.0,0.0,0.0,0.0,0.0,0.6864,0.777,0.7917,0.7891,0.7734,0.7305,0.6767,0.6144,0.0,0.0,0.0,0.0,0.0,0.0,0.0,0.0,0.0,0.0,0.0,0.0,0.0,0.0,0.0,0.0,0.0,0.0,0.0,0.0,0.0,0.0,0.0,0.0,0.0,0.0,0.0,0.0,0.0,0.0,0.0,0.0,0.0,0.0,0.0,0.0,0.0,0.0,0.0,0.0,0.0,0.0,0.0,0.0,0.0,0.0,0.0,0.0,0.0,0.0,0.0,0.0,0.0,0.0,0.0,0.0,0.0,0.0,0.0,0.0,0.0,0.0,0.0,0.0,0.0,0.0,0.0,0.0,0.0,0.0,0.0,0.0,0.0,0.0,0.0,0.0,0.0,0.0,0.0,0.0,0.0,0.0,0.0,0.0,0.0,0.0,0.0,0.0,0.0,0.0,0.0,0.0,0.0,0.0,0.0,0.0,0.0,0.0,0.0,0.0,0.0,0.0,0.0,0.6677,0.7232,0.7776,0.8065,0.8135,0.7922,0.7345,0.6797,0.635,0.5773,0.0,0.0,0.0,0.0,0.0,0.0,0.0,0.0,0.0,0.0,0.0,0.0,0.0,0.0,0.0,0.0,0.0,0.0,0.0,0.0,0.0,0.0,0.0,0.0,0.0,0.0,0.0,0.0,0.0,0.0,0.0,0.0,0.0,0.0,0.0,0.0,0.0,0.0,0.0,0.0,0.0,0.0,0.0,0.0,0.0,0.0,0.0,0.0,0.0,0.0,0.0,0.0,0.0,0.0,0.0,0.0,0.0,0.0,0.0,0.0,0.0,0.0,0.0,0.0,0.0,0.0,0.0,0.0,0.0,0.0,0.0,0.0,0.0,0.0,0.0,0.0,0.0,0.0,0.0,0.0,0.0,0.0,0.0,0.0,0.0,0.0,0.0,0.0,0.0,0.0,0.0,0.0,0.0,0.0,0.0,0.0,0.0,0.0,0.0,0.0,0.0,0.0,0.6956,0.741,0.7735,0.8085,0.8221,0.7997,0.7296,0.6766,0.6518,0.5856,0.0,0.0,0.0,0.0,0.0,0.0,0.0,0.0,0.0,0.0,0.0,0.0,0.0,0.0,0.0,0.0,0.0,0.0,0.0,0.0,0.0,0.0,0.0,0.0,0.0,0.0,0.0,0.0,0.0,0.0,0.0,0.0,0.0,0.0,0.0,0.0,0.0,0.0,0.0,0.0,0.0,0.0,0.0,0.0,0.0,0.0,0.0,0.0,0.0,0.0,0.0,0.0,0.0,0.0,0.0,0.0,0.0,0.0,0.0,0.0,0.0,0.0,0.0,0.0,0.0,0.0,0.0,0.0,0.0,0.0,0.0,0.0,0.0,0.0,0.0,0.0,0.0,0.0,0.0,0.0,0.0,0.0,0.0,0.0,0.0,0.0,0.0,0.0,0.0,0.0,0.0,0.0,0.0,0.0,0.0,0.0,0.0,0.0,0.0,0.0,0.0,0.0,0.6867,0.7207,0.7911,0.8005,0.7997,0.7912,0.7225,0.6726,0.6515,0.5813,0.0,0.0,0.0,0.0,0.0,0.0,0.0,0.0,0.0,0.0,0.0,0.0,0.0,0.0,0.0,0.0,0.0,0.0,0.0,0.0,0.0,0.0,0.0,0.0,0.0,0.0,0.0,0.0,0.0,0.0,0.0,0.0,0.0,0.0,0.0,0.0,0.0,0.0,0.0,0.0,0.0,0.0,0.0,0.0,0.0,0.0,0.0,0.0,0.0,0.0,0.0,0.0,0.0,0.0,0.0,0.0,0.0,0.0,0.0,0.0,0.0,0.0,0.0,0.0,0.0,0.0,0.0,0.0,0.0,0.0,0.0,0.0,0.0,0.0,0.0,0.0,0.0,0.0,0.0,0.0,0.0,0.0,0.0,0.0,0.0,0.0,0.0,0.0,0.0,0.0,0.0,0.0,0.0,0.0,0.0,0.0,0.0,0.0,0.0,0.0,0.0,0.0,0.6746,0.7089,0.0,0.7891,0.7829,0.7554,0.7002,0.6516,0.6149,0.0,0.0,0.0,0.0,0.0,0.0,0.0,0.0,0.0,0.0,0.0,0.0,0.0,0.0,0.0,0.0,0.0,0.0,0.0,0.0,0.0,0.0,0.0,0.0,0.0,0.0,0.0,0.0,0.0,0.0,0.0,0.0,0.0,0.0,0.0,0.0,0.0,0.0,0.0,0.0,0.0,0.0,0.0,0.0,0.0,0.0,0.0,0.0,0.0,0.0,0.0,0.0,0.0,0.0,0.0,0.0,0.0,0.0,0.0,0.0,0.0,0.0,0.0,0.0,0.0,0.0,0.0,0.0,0.0,0.0,0.0,0.0,0.0,0.0,0.0,0.0,0.0,0.0,0.0,0.0,0.0,0.0,0.0,0.0,0.0,0.0,0.0,0.0,0.0,0.0,0.0,0.0,0.0,0.0,0.0,0.0,0.0,0.0,0.0,0.0,0.0,0.0,0.6354,0.6647,0.7006,0.0,0.7691,0.759,0.7206,0.676,0.6331,0.593,0.0,0.0,0.0,0.0,0.0,0.0,0.0,0.0,0.0,0.0,0.0,0.0,0.0,0.0,0.0,0.0,0.0,0.0,0.0,0.0,0.0,0.0,0.0,0.0,0.0,0.0,0.0,0.0,0.0,0.0,0.0,0.0,0.0,0.0,0.0,0.0,0.0,0.0,0.0,0.0,0.0,0.0,0.0,0.0,0.0,0.0,0.0,0.0,0.0,0.0,0.0,0.0,0.0,0.0,0.0,0.0,0.0,0.0,0.0,0.0,0.0,0.0,0.0,0.0,0.0,0.0,0.0,0.0,0.0,0.0,0.0,0.0,0.0,0.0,0.0,0.0,0.0,0.0,0.0,0.0,0.0,0.0,0.0,0.0,0.0,0.0,0.0,0.0,0.0,0.0,0.0,0.0,0.0,0.0,0.0,0.0,0.0,0.0,0.0,0.0,0.0,0.0,0.6252,0.659,0.6951,0.7353,0.7398,0.7265,0.692,0.6532,0.6186,0.0,0.0,0.0,0.0,0.0,0.0,0.0,0.0,0.0,0.0,0.0,0.0,0.0,0.0,0.0,0.0,0.0,0.0,0.0,0.0,0.0,0.0,0.0,0.0,0.0,0.0,0.0,0.0,0.0,0.0,0.0,0.0,0.0,0.0,0.0,0.0,0.0,0.0,0.0,0.0,0.0,0.0,0.0,0.0,0.0,0.0,0.0,0.0,0.0,0.0,0.0,0.0,0.0,0.0,0.0,0.0,0.0,0.0,0.0,0.0,0.0,0.0,0.0,0.0,0.0,0.0,0.0,0.0,0.0,0.0,0.0,0.0,0.0,0.0,0.0,0.0,0.0,0.0,0.0,0.0,0.0,0.0,0.0,0.0,0.0,0.0,0.0,0.0,0.0,0.0,0.0,0.0,0.0,0.0,0.0,0.0,0.0,0.0,0.0,0.0,0.0,0.0,0.0,0.619,0.6561,0.6911,0.7224,0.7346,0.7191,0.6664,0.6509,0.6183,0.5583,0.0,0.0,0.0,0.0,0.0,0.0,0.0,0.0,0.0,0.0,0.0,0.0,0.0,0.0,0.0,0.0,0.0,0.0,0.0,0.0,0.0,0.0,0.0,0.0,0.0,0.0,0.0,0.0,0.0,0.0,0.0,0.0,0.0,0.0,0.0,0.0,0.0,0.0,0.0,0.0,0.0,0.0,0.0,0.0,0.0,0.0,0.0,0.0,0.0,0.0,0.0,0.0,0.0,0.0,0.0,0.0,0.0,0.0,0.0,0.0,0.0,0.0,0.0,0.0,0.0,0.0,0.0,0.0,0.0,0.0,0.0,0.0,0.0,0.0,0.0,0.0,0.0,0.0,0.0,0.0,0.0,0.0,0.0,0.0,0.0,0.0,0.0,0.0,0.0,0.0,0.0,0.0,0.0,0.0,0.0,0.0,0.0,0.0,0.0,0.0,0.0,0.0,0.6334,0.6662,0.6943,0.7105,0.7234,0.7075,0.6472,0.647,0.6203,0.5491,0.0,0.0,0.0,0.0,0.0,0.0,0.0,0.0,0.0,0.0,0.0,0.0,0.0,0.0,0.0,0.0,0.0,0.0,0.0,0.0,0.0,0.0,0.0,0.0,0.0,0.0,0.0,0.0,0.0,0.0,0.0,0.0,0.0,0.0,0.0,0.0,0.0,0.0,0.0,0.0,0.0,0.0,0.0,0.0,0.0,0.0,0.0,0.0,0.0,0.0,0.0,0.0,0.0,0.0,0.0,0.0,0.0,0.0,0.0,0.0,0.0,0.0,0.0,0.0,0.0,0.0,0.0,0.0,0.0,0.0,0.0,0.0,0.0,0.0,0.0,0.0,0.0,0.0,0.0,0.0,0.0,0.0,0.0,0.0,0.0,0.0,0.0,0.0,0.0,0.0,0.0,0.0,0.0,0.0,0.0,0.0,0.0,0.0,0.0,0.0,0.0,0.0,0.6596,0.683,0.7,0.7,0.7118,0.6973,0.6402,0.6447,0.6251,0.564,0.0,0.0,0.0,0.0,0.0,0.0,0.0,0.0,0.0,0.0,0.0,0.0,0.0,0.0,0.0,0.0,0.0,0.0,0.0,0.0,0.0,0.0,0.0,0.0,0.0,0.0,0.0,0.0,0.0,0.0,0.0,0.0,0.0,0.0,0.0,0.0,0.0,0.0,0.0,0.0,0.0,0.0,0.0,0.0,0.0,0.0,0.0,0.0,0.0,0.0,0.0,0.0,0.0,0.0,0.0,0.0,0.0,0.0,0.0,0.0,0.5725,0.0,0.0,0.0,0.0,0.0,0.0,0.0,0.0,0.0,0.0,0.0,0.0,0.0,0.0,0.0,0.0,0.0,0.0,0.0,0.0,0.0,0.0,0.0,0.0,0.0,0.0,0.0,0.0,0.0,0.0,0.0,0.0,0.0,0.0,0.0,0.0,0.0,0.0,0.0,0.0,0.0,0.6596,0.683,0.7,0.7,0.7118,0.7079,0.6797,0.6657,0.6523,0.6375,0.6121,0.0,0.0,0.0,0.0,0.0,0.0,0.0,0.0,0.0,0.0,0.0,0.0,0.0,0.0,0.0,0.0,0.0,0.0,0.0,0.0,0.0,0.0,0.0,0.0,0.0,0.0,0.0,0.0,0.0,0.0,0.0,0.0,0.0,0.0,0.0,0.0,0.0,0.0,0.0,0.0,0.0,0.0,0.0,0.0,0.0,0.0,0.0,0.0,0.0,0.0,0.0,0.0,0.0,0.0,0.0,0.0,0.0,0.0,0.0,0.0,0.6039,0.0,0.0,0.0,0.0,0.0,0.0,0.0,0.0,0.0,0.0,0.0,0.0,0.0,0.0,0.0,0.0,0.0,0.0,0.0,0.0,0.0,0.0,0.0,0.0,0.0,0.0,0.0,0.0,0.0,0.0,0.0,0.0,0.0,0.0,0.0,0.0,0.0,0.0,0.0,0.0,0.679,0.6917,0.7,0.7,0.7181,0.7189,0.6927,0.6893,0.6821,0.6655,0.6487,0.0,0.0,0.0,0.0,0.0,0.0,0.0,0.0,0.0,0.0,0.0,0.0,0.0,0.0,0.0,0.0,0.0,0.0,0.0,0.0,0.0,0.0,0.0,0.0,0.0,0.0,0.0,0.0,0.0,0.0,0.0,0.0,0.0,0.0,0.0,0.0,0.0,0.0,0.0,0.0,0.0,0.0,0.0,0.0,0.0,0.0,0.0,0.0,0.0,0.0,0.0,0.0,0.0,0.6272,0.6395,0.6495,0.6495,0.662,0.6814,0.6586,0.6435,0.6334,0.629,0.0,0.0,0.0,0.0,0.0,0.0,0.0,0.0,0.0,0.0,0.0,0.0,0.0,0.0,0.0,0.0,0.0,0.0,0.0,0.0,0.0,0.0,0.0,0.0,0.7,0.7,0.0,0.0,0.0,0.0,0.0,0.0,0.0,0.0,0.0,0.0,0.0,0.0,0.7,0.7,0.7,0.7,0.7223,0.7252,0.6973,0.7091,0.7083,0.6856,0.6809,0.6935,0.0,0.0,0.0,0.0,0.0,0.0,0.0,0.0,0.0,0.0,0.0,0.0,0.0,0.0,0.0,0.0,0.0,0.0,0.0,0.0,0.0,0.0,0.0,0.0,0.0,0.0,0.0,0.0,0.0,0.0,0.0,0.0,0.4478,0.4552,0.0,0.0,0.0,0.0,0.0,0.0,0.0,0.0,0.0,0.0,0.0,0.0,0.0,0.5546,0.5916,0.6352,0.6755,0.7115,0.7478,0.7661,0.7672,0.7672,0.7692,0.7732,0.7692,0.0,0.6877,0.6643,0.0,0.0,0.0,0.0,0.0,0.0,0.0,0.0,0.0,0.0,0.0,0.0,0.0,0.0,0.0,0.0,0.0,0.0,0.0,0.0,0.0,0.0,0.6953,0.6993,0.7,0.7,0.0,0.7,0.7,0.7,0.7,0.0,0.0,0.0,0.0,0.0,0.0,0.0,0.7,0.7,0.7,0.7,0.7139,0.7206,0.7165,0.7134,0.7192,0.7387,0.723,0.728,0.7618,0.7739,0.0,0.0,0.0,0.0,0.0,0.0,0.0,0.0,0.0,0.0,0.0,0.0,0.0,0.0,0.0,0.0,0.0,0.0,0.0,0.0,0.0,0.0,0.0,0.0,0.0,0.0,0.0,0.0,0.0,0.439,0.4521,0.4596,0.4578,0.4504,0.0,0.0,0.0,0.0,0.0,0.0,0.0,0.0,0.0,0.6006,0.6203,0.6458,0.6787,0.7029,0.7281,0.7525,0.778,0.7894,0.7894,0.7894,0.7894,0.7894,0.7894,0.7752,0.7486,0.7219,0.6893,0.6553,0.0,0.0,0.0,0.0,0.6396,0.642,0.6587,0.665,0.0,0.6472,0.0,0.0,0.0,0.0,0.0,0.0,0.0,0.0,0.0,0.0,0.7315,0.7466,0.7513,0.7513,0.7513,0.7513,0.7413,0.0,0.7,0.7,0.7,0.0,0.0,0.0,0.0,0.7513,0.7513,0.7513,0.7446,0.7299,0.7368,0.7362,0.7219,0.7238,0.7312,0.7429,0.7402,0.7438,0.7583,0.7787,0.8054,0.0,0.0,0.0,0.0,0.0,0.0,0.0,0.0,0.0,0.0,0.0,0.0,0.0,0.0,0.0,0.0,0.0,0.0,0.0,0.0,0.0,0.0,0.0,0.0,0.0,0.0,0.0,0.0,0.4587,0.4664,0.4738,0.4748,0.4748,0.0,0.0,0.0,0.0,0.0,0.0,0.5919,0.6151,0.6455,0.684,0.6978,0.717,0.7421,0.7557,0.7716,0.7885,0.8055,0.8132,0.8132,0.8132,0.8132,0.8132,0.8132,0.8092,0.8011,0.772,0.735,0.6958,0.6958,0.6859,0.6727,0.6896,0.6958,0.6971,0.7092,0.7124,0.7088,0.6794,0.6764,0.6837,0.6907,0.0,0.0,0.0,0.0,0.7286,0.754,0.7605,0.7653,0.7852,0.7894,0.7894,0.7894,0.7894,0.7772,0.0,0.7233,0.7233,0.7233,0.0,0.0,0.0,0.0,0.7894,0.7894,0.7894,0.7831,0.762,0.7583,0.7499,0.7293,0.7324,0.7346,0.7346,0.7447,0.7513,0.7551,0.7924,0.8344,0.8819,0.0,0.0,0.0,0.0,0.0,0.0,0.0,0.0,0.0,0.0,0.0,0.0,0.0,0.0,0.0,0.0,0.0,0.0,0.0,0.0,0.0,0.0,0.0,0.0,0.0,0.0,0.0,0.0,0.0,0.5149,0.5171,0.0,0.0,0.0,0.0,0.5648,0.6142,0.6468,0.6545,0.6684,0.6834,0.6983,0.7122,0.7284,0.7487,0.7815,0.8105,0.8369,0.8631,0.8751,0.8751,0.8751,0.8751,0.8751,0.8751,0.8611,0.8355,0.8017,0.7795,0.765,0.765,0.7604,0.7551,0.7621,0.765,0.7635,0.7519,0.7475,0.7417,0.7084,0.7194,0.7497,0.7764,0.7852,0.0,0.0,0.7859,0.7866,0.7879,0.7879,0.7885,0.7894,0.7894,0.7894,0.7894,0.7894,0.7887,0.0,0.7859,0.7859,0.7859,0.0,0.7879,0.7879,0.7899,0.7894,0.7894,0.7894,0.7899,0.7885,0.7653,0.7506,0.7493,0.732,0.7209,0.7209,0.7395,0.7562,0.768,0.8381,0.88,0.8887,0.972,0.0,0.0,0.0,0.0,0.0,0.0,0.0,0.0,0.0,0.0,0.0,0.0,0.0,0.0,0.0,0.0,0.0,0.0,0.0,0.0,0.0,0.0,0.0,0.0,0.0,0.0,0.0,0.0,0.5631,0.5875,0.0,0.604,0.6178,0.6279,0.6279,0.6614,0.6951,0.7225,0.7375,0.7541,0.7768,0.7825,0.7922,0.8076,0.8197,0.8397,0.8657,0.8758,0.8791,0.8791,0.8791,0.8791,0.8791,0.8791,0.8751,0.8644,0.8524,0.8177,0.7707,0.7707,0.7654,0.7608,0.7672,0.7707,0.7706,0.7749,0.7757,0.7737,0.7619,0.7652,0.7771,0.7872,0.7894,0.7894,0.7894,0.7894,0.7952,0.817,0.8229,0.8263,0.8438,0.8478,0.8478,0.8478,0.8478,0.8478,0.8478,0.8165,0.7894,0.7894,0.8077,0.8229,0.8229,0.8377,0.8478,0.8478,0.8478,0.8411,0.8237,0.8141,0.7925,0.7535,0.743,0.73,0.7083,0.7301,0.7475,0.7572,0.8367,0.9037,0.9533,1.0265,1.0901,0.0,0.0,0.0,0.0,0.0,0.0,0.0,0.0,0.0,0.0,0.0,0.0,0.0,0.0,0.0,0.0,0.0,0.0,0.0,0.0,0.0,0.0,0.0,0.0,0.0,0.0,0.6049,0.6196,0.6474,0.6689,0.6725,0.6902,0.7003,0.7003,0.7295,0.7591,0.7864,0.796,0.808,0.8268,0.8275,0.8335,0.8461,0.8461,0.8586,0.8791,0.8791,0.8791,0.8791,0.8791,0.8791,0.8791,0.8791,0.8778,0.8732,0.8778,0.8493,0.8006,0.805,0.8044,0.8013,0.8056,0.8074,0.8073,0.8073,0.7992,0.7919,0.8037,0.8064,0.8091,0.8172,0.8199,0.8199,0.8199,0.8199,0.8258,0.8483,0.853,0.8583,0.8758,0.8791,0.8791,0.8791,0.8791,0.8791,0.8791,0.8478,0.8199,0.8199,0.839,0.853,0.853,0.8684,0.8791,0.8791,0.8791,0.8738,0.8557,0.8456,0.8234,0.7844,0.7705,0.7506,0.7194,0.7407,0.7571,0.7659,0.8513,0.9288,0.9958,1.0793,1.1476,1.1977,0.0,0.0,0.0,0.0,0.0,0.0,0.0,0.0,0.0,0.0,0.0,0.0,0.0,0.0,0.0,0.0,0.0,0.0,0.0,0.0,0.0,0.0,0.0,0.5747,0.6257,0.6681,0.6809,0.6954,0.7092,0.7224,0.7586,0.7816,0.7816,0.8183,0.8408,0.8408,0.8421,0.8427,0.8427,0.8433,0.85,0.8626,0.8626,0.8699,0.8831,0.8831,0.8831,0.8831,0.8811,0.8811,0.8811,0.8798,0.8718,0.8613,0.8732,0.8705,0.8613,0.8745,0.8791,0.8791,0.8791,0.8791,0.8764,0.8496,0.8203,0.7979,0.8302,0.8415,0.8462,0.8717,0.8791,0.8791,0.8791,0.8791,0.8791,0.8791,0.8791,0.8791,0.8791,0.8791,0.8791,0.8791,0.8791,0.8791,0.8791,0.8791,0.8791,0.8791,0.8791,0.8791,0.8791,0.8791,0.0,0.8791,0.8791,0.8791,0.8791,0.857,0.8409,0.8402,0.8097,0.7804,0.7535,0.7694,0.7873,0.801,0.8841,0.9573,1.0124,1.1289,1.1964,1.2101,0.0,0.0,0.0,0.0,0.0,0.0,0.0,0.0,0.0,0.0,0.0,0.0,0.0,0.0,0.0,0.0,0.0,0.0,0.0,0.0,0.0,0.0,0.676,0.6526,0.6973,0.7373,0.7511,0.7815,0.8036,0.8062,0.817,0.8241,0.8241,0.8429,0.8547,0.8547,0.8823,0.894,0.8837,0.9066,0.9219,0.9255,0.9255,0.9318,0.946,0.946,0.946,0.9446,0.9205,0.9091,0.9071,0.8778,0.8633,0.86,0.8527,0.8487,0.8474,0.8712,0.8791,0.8791,0.8791,0.8791,0.8784,0.8717,0.8637,0.8571,0.8664,0.8691,0.8704,0.8784,0.8791,0.8791,0.8791,0.8791,0.8791,0.8791,0.8791,0.8791,0.8791,0.8791,0.8791,0.8791,0.8791,0.8791,0.8791,0.8791,0.8791,0.8791,0.8791,0.8791,0.8791,0.8791,0.0,0.8791,0.8791,0.8791,0.8791,0.8738,0.8617,0.8415,0.8316,0.8123,0.7811,0.7931,0.8122,0.8351,0.902,0.9827,1.0806,1.1341,1.1769,0.0,0.0,0.0,0.0,0.0,0.0,0.0,0.0,0.0,0.0,0.0,0.0,0.0,0.0,0.0,0.0,0.0,0.0,0.0,0.0,0.0,0.0,0.6947,0.74,0.7459,0.7738,0.7985,0.8114,0.8338,0.8501,0.856,0.856,0.856,0.856,0.8639,0.8725,0.8844,0.9076,0.9229,0.9284,0.9484,0.9591,0.9591,0.9591,0.9628,0.9701,0.9701,0.9701,0.9694,0.9491,0.9303,0.9093,0.8868,0.859,0.8302,0.8308,0.8242,0.0,0.0,0.0,0.0,0.0,0.8791,0.8791,0.8791,0.8791,0.8791,0.8791,0.8791,0.8791,0.8791,0.8791,0.8791,0.8791,0.8791,0.8791,0.8791,0.8791,0.8791,0.8791,0.8791,0.8791,0.8791,0.8791,0.8791,0.8791,0.8791,0.0,0.8791,0.8791,0.8791,0.8791,0.8791,0.8791,0.8791,0.8791,0.8791,0.8791,0.8791,0.8738,0.8583,0.857,0.0,0.0,0.0,0.8423,0.8777,0.9286,0.0,0.0,0.0,1.1477,1.1765,0.0,0.0,0.0,1.2759,1.2905,0.0,0.0,0.0,0.0,0.0,0.0,0.0,0.0,0.0,0.0,0.0,0.0,0.0,0.0,0.0,0.0,0.7412,0.7888,0.8381,0.8498,0.8571,0.8652,0.8665,0.8712,0.8831,0.8811,0.8811,0.8838,0.8844,0.8971,0.9244,0.0,0.0,0.0,0.0,0.9794,0.9794,0.9794,0.9794,0.9794,0.9794,0.9794,0.9794,0.9761,0.9506,0.9093,0.9014,0.8592,0.7957,0.8087,0.7956,0.7723,0.8196,0.8461,0.8587,0.8732,0.8778,0.8778,0.8791,0.0,0.0,0.8791,0.8791,0.8791,0.8791,0.8791,0.8791,0.8791,0.8791,0.8791,0.8791,0.8791,0.8791,0.8791,0.8791,0.8791,0.8791,0.8791,0.8791,0.8791,0.8791,0.8791,0.8791,0.8791,0.8791,0.8791,0.8791,0.8791,0.8791,0.8791,0.8791,0.8791,0.0,0.0,0.8791,0.8791,0.8697,0.8462,0.8511,0.8743,0.916,0.9562,0.9976,1.0411,1.082,1.1112,1.1289,1.179,1.2064,1.2113,1.2627,1.2881,0.0,0.0,0.0,0.0,0.0,0.0,0.0,0.0,0.0,0.0,0.0,0.0,0.0,0.0,0.0,0.716,0.7895,0.8483,0.8699,0.9142,0.9348,0.911,0.9083,0.9097,0.9117,0.8931,0.8891,0.9111,0.9131,0.9257,0.9579,0.9805,0.9958,1.0012,1.0283,1.0425,1.0425,1.0425,1.0425,1.0425,0.0,0.0,1.0412,1.0156,0.9917,0.9688,0.9099,0.8603,0.8201,0.7906,0.7702,0.7588,0.8055,0.8321,0.8461,0.8593,0.8646,0.8659,0.8765,0.8791,0.8791,0.8791,0.8791,0.8791,0.8791,0.8791,0.0,0.8791,0.8791,0.8791,0.8791,0.8791,0.8791,0.8791,0.8791,0.8791,0.8791,0.8791,0.8791,0.8791,0.8791,0.8791,0.8791,0.8791,0.8791,0.8791,0.8791,0.8791,0.8791,0.8791,0.8791,0.8791,0.8791,0.8791,0.8791,0.8791,0.8784,0.8731,0.8835,0.8945,0.9036,0.9429,0.9731,0.9937,1.0377,1.0782,1.1137,1.1465,1.1778,1.2113,1.2541,1.2747,0.0,0.0,0.0,0.0,0.0,0.0,0.0,0.0,0.0,0.0,0.0,0.5864,0.6239,0.0,0.71,0.7532,0.8215,0.8762,0.8972,0.9517,0.9793,0.9485,0.9445,0.9445,0.9445,0.9332,0.9305,0.9438,0.9445,0.9578,0.9886,1.004,1.018,1.0334,1.0512,1.0609,1.0609,1.0609,1.0609,1.0609,1.0609,1.0609,1.0586,1.0439,1.0184,0.9879,0.9444,0.8911,0.8301,0.7732,0.7507,0.7521,0.7687,0.7915,0.8175,0.8342,0.8448,0.8514,0.8646,0.8705,0.8705,0.8778,0.8791,0.8791,0.8791,0.8791,0.8791,0.8791,0.8791,0.8791,0.8791,0.8791,0.8791,0.8791,0.8791,0.8791,0.8791,0.8791,0.8791,0.8791,0.8791,0.8791,0.8791,0.8791,0.8791,0.8791,0.8791,0.8791,0.8791,0.8791,0.8791,0.8791,0.8791,0.8791,0.8791,0.8791,0.8791,0.8791,0.8857,0.8929,0.8995,0.9198,0.9426,0.9697,0.9997,1.0365,1.0794,1.1074,1.1368,1.1715,1.2039,1.2382,0.0,0.0,0.0,0.0,0.0,0.0,0.0,0.0,0.5203,0.5625,0.5939,0.6233,0.6566,0.7014,0.747,0.7894,0.849,0.9002,0.9298,0.9833,1.0114,0.9895,0.9821,0.9781,0.9781,0.9734,0.9721,0.9781,0.9781,0.9893,1.0187,1.02,1.0314,1.0586,1.0609,1.0609,1.0609,1.0609,1.0609,1.0609,1.0609,1.0609,1.0609,1.0609,1.0365,0.9962,0.9711,0.9176,0.8428,0.7769,0.7518,0.7527,0.7424,0.7531,0.7775,0.8015,0.8189,0.8321,0.8474,0.8534,0.858,0.8718,0.8765,0.8765,0.8791,0.8791,0.8791,0.8791,0.8791,0.8791,0.8791,0.8791,0.8791,0.8791,0.8791,0.8791,0.8791,0.8791,0.8791,0.8791,0.8791,0.8791,0.8791,0.8791,0.8791,0.8791,0.8791,0.8791,0.8791,0.8791,0.8791,0.8791,0.8791,0.8791,0.8791,0.8791,0.8791,0.8791,0.8791,0.8844,0.8956,0.8982,0.9146,0.9471,0.9666,0.9963,1.036,1.0654,1.0934,1.1226,1.144,1.1927,0.4388,0.4318,0.4186,0.4201,0.4417,0.4753,0.0,0.0,0.5783,0.6076,0.64,0.6639,0.6679,0.7122,0.7628,0.8084,0.8777,0.9376,0.9771,1.0234,1.0526,1.0499,1.0243,1.0052,1.0052,0.9833,0.9793,1.0032,1.0052,1.02,1.0526,1.0546,1.0559,1.0609,1.0609,1.0609,1.0609,1.0609,1.0609,1.0609,1.0609,1.0609,1.0609,1.0609,1.0462,1.0227,0.955,0.9065,0.8726,0.834,0.7994,0.7675,0.7661,0.7472,0.7233,0.7622,0.7836,0.7981,0.8181,0.8321,0.8448,0.858,0.8626,0.8646,0.8765,0.8791,0.8791,0.8791,0.8791,0.8791,0.8791,0.8791,0.8791,0.8791,0.8791,0.8791,0.8791,0.8791,0.8791,0.8791,0.8791,0.8791,0.8791,0.8791,0.8791,0.8791,0.8791,0.8791,0.8791,0.8791,0.8791,0.8791,0.8791,0.8791,0.8791,0.8791,0.8791,0.8791,0.8791,0.8811,0.8818,0.8929,0.9021,0.9061,0.9439,0.9705,0.9886,1.0218,1.0573,1.0947,1.0985,1.1406,0.4477,0.4447,0.0,0.0,0.4662,0.4894,0.5221,0.5557,0.5877,0.615,0.6468,0.672,0.6806,0.7198,0.7641,0.0,0.8788,0.9435,0.9838,1.0296,1.0609,1.0609,1.0479,1.039,1.039,1.0291,1.0278,1.0383,1.039,1.0443,1.0586,1.0609,1.0609,1.0609,1.0609,1.0609,1.0609,1.0609,1.0609,1.0609,1.0609,1.0609,1.0609,1.0609,1.0498,1.0272,0.9816,0.9494,0.9291,0.8791,0.8352,0.7976,0.7771,0.7411,0.7009,0.726,0.744,0.7567,0.7735,0.7935,0.8135,0.8308,0.8474,0.8613,0.8672,0.8732,0.8791,0.8791,0.8791,0.8791,0.8791,0.8791,0.8791,0.8791,0.8791,0.8791,0.8791,0.8791,0.8791,0.8791,0.8791,0.8791,0.8791,0.8791,0.8791,0.8791,0.8791,0.8791,0.8791,0.8791,0.8791,0.8791,0.8791,0.8791,0.8791,0.8791,0.8791,0.8791,0.8791,0.8791,0.8791,0.8857,0.8923,0.8995,0.9159,0.9361,0.9562,0.9911,1.0274,1.068,1.068,1.1014,0.4505,0.0,0.0,0.466,0.4767,0.4932,0.5228,0.5489,0.574,0.6028,0.635,0.6598,0.6739,0.7131,0.7601,0.8098,0.8816,0.945,0.9899,1.0327,1.0609,1.0609,1.0609,1.0609,1.0609,1.0609,1.0609,1.0609,1.0609,1.0626,1.0707,1.0713,1.0747,1.0827,1.0811,1.0794,1.0713,1.0713,1.0673,1.0609,1.0609,1.0609,1.0609,1.0609,1.0514,1.0374,1.0117,0.9924,0.9742,0.9275,0.8749,0.8202,0.7915,0.7387,0.6766,0.6833,0.6969,0.7149,0.7246,0.7453,0.7722,0.7941,0.8189,0.8421,0.8521,0.8633,0.8752,0.8791,0.8791,0.8791,0.8791,0.8791,0.8791,0.8791,0.8791,0.8791,0.8791,0.8791,0.8791,0.8752,0.8745,0.8738,0.8699,0.8685,0.8699,0.8732,0.8745,0.8765,0.8791,0.8791,0.8791,0.8791,0.8791,0.8791,0.8791,0.8791,0.8791,0.8791,0.8791,0.8791,0.8791,0.8791,0.8844,0.8949,0.9051,0.9204,0.9403,0.9768,1.0119,1.0444,1.0499,1.0788,0.0,0.0,0.4532,0.466,0.4705,0.4815,0.5215,0.5315,0.5411,0.574,0.6028,0.6255,0.6386,0.6906,0.7544,0.8269,0.8901,0.9479,1.0013,1.039,1.0609,1.0609,1.0609,1.0609,0.0,1.0609,1.0609,1.0609,1.0609,1.0713,1.0962,1.0998,1.1109,1.1372,1.1386,1.1246,1.0982,1.0998,1.0851,1.0609,1.0609,1.0609,1.0609,1.0609,1.0609,1.0577,1.0374,1.0161,0.997,0.9827,0.9189,0.8281,0.8139,0.7399,0.6395,0.6268,0.644,0.672,0.6729,0.6896,0.7166,0.744,0.7695,0.7981,0.8308,0.8501,0.8633,0.8765,0.8791,0.8791,0.8791,0.8791,0.8791,0.8791,0.8791,0.8791,0.8791,0.8791,0.8765,0.8626,0.86,0.856,0.8441,0.8414,0.8461,0.8587,0.86,0.8659,0.8778,0.8791,0.8791,0.8791,0.8791,0.8791,0.8791,0.8791,0.8791,0.8791,0.8791,0.8791,0.8791,0.8791,0.8804,0.8811,0.9187,0.9398,0.9398,0.9868,1.0172,1.0308,1.0515,1.0751,0.0,0.0,0.4519,0.456,0.4632,0.4729,0.487,0.5032,0.5224,0.5421,0.5791,0.6141,0.6354,0.6888,0.7447,0.786,0.8521,0.9144,0.9631,1.0035,1.0356,1.0566,1.0609,0.0,0.0,0.0,0.0,1.0609,1.0751,1.0905,1.1005,1.1176,1.1306,1.1406,1.1406,1.1359,1.1266,1.1089,1.0942,1.0858,1.0687,1.0609,1.0609,1.0609,1.0609,1.0593,1.0387,1.0253,1.0174,0.977,0.9108,0.8322,0.7923,0.7147,0.6228,0.5909,0.5786,0.5814,0.6123,0.6503,0.6869,0.705,0.74,0.7809,0.8002,0.8315,0.8613,0.8659,0.8732,0.8778,0.8692,0.8672,0.8646,0.856,0.8533,0.8533,0.8533,0.8533,0.852,0.8474,0.8395,0.8321,0.8268,0.8275,0.8348,0.856,0.8672,0.8752,0.8791,0.8791,0.8791,0.8791,0.8791,0.8791,0.8791,0.8791,0.8791,0.8791,0.8791,0.8791,0.8791,0.8978,0.9071,0.9071,0.9421,0.9604,0.9604,0.9944,1.0184,1.0369,1.0392,1.0629,0.4505,0.4505,0.4505,0.4505,0.456,0.4646,0.4688,0.4825,0.4991,0.5128,0.5471,0.5837,0.6132,0.668,0.7211,0.7568,0.8207,0.8854,0.9414,0.9806,1.0166,1.0559,1.0609,1.0609,0.0,0.0,0.0,1.0747,1.0905,1.1082,1.1313,1.1483,1.1613,1.1719,1.1719,1.1673,1.1583,1.1296,1.1042,1.0851,1.068,1.0609,1.0609,1.0609,1.0561,1.0498,1.0355,1.019,0.9977,0.9588,0.8916,0.8071,0.7547,0.6788,0.5941,0.5567,0.5307,0.5211,0.5549,0.5959,0.634,0.6522,0.695,0.7461,0.7681,0.8042,0.8381,0.8501,0.8586,0.8646,0.8553,0.8501,0.8434,0.8348,0.8275,0.8216,0.8216,0.8216,0.8189,0.8089,0.8015,0.7922,0.7829,0.7922,0.8095,0.8315,0.8573,0.8745,0.8791,0.8791,0.8791,0.8791,0.8791,0.8791,0.8791,0.8791,0.8791,0.8791,0.8791,0.8791,0.8791,0.9058,0.9197,0.9197,0.9618,0.984,0.984,1.0134,1.0351,1.0474,1.0482,1.0644,0.4505,0.4505,0.4505,0.4505,0.4505,0.4532,0.466,0.4688,0.4729,0.4859,0.5097,0.5389,0.0,0.0,0.6869,0.74,0.7999,0.8648,0.9392,0.9731,1.0065,0.0,0.0,0.0,0.0,0.0,0.0,1.1035,0.0,1.13,1.1873,1.1902,1.2035,1.2291,1.2305,1.2189,1.1915,1.1566,1.1136,1.0609,1.0609,1.0609,1.0609,1.0609,1.0498,1.0301,1.0276,0.9977,0.947,0.9316,0.858,0.7518,0.7051,0.6346,0.5539,0.5197,0.5004,0.4912,0.504,0.5297,0.5636,0.5896,0.6386,0.6947,0.7346,0.7655,0.7955,0.8268,0.8368,0.8368,0.8368,0.8268,0.8168,0.8155,0.8009,0.7858,0.7858,0.7858,0.7771,0.7521,0.7453,0.7367,0.7125,0.7402,0.7716,0.7869,0.8289,0.8633,0.8778,0.8791,0.8791,0.8791,0.8791,0.8791,0.8791,0.8791,0.8791,0.8791,0.8791,0.8798,0.8818,0.9078,0.923,0.9244,0.9832,1.0125,1.0125,1.0437,1.0609,1.0609,1.0728,1.0785,0.4505,0.4505,0.4505,0.4505,0.4505,0.4505,0.4546,0.4546,0.4587,0.4729,0.4963,0.5289,0.0,0.0,0.0,0.7284,0.7903,0.0,0.9256,0.9665,0.0,1.0537,0.0,1.068,1.0878,1.0965,0.0,0.0,1.1661,1.1745,1.1899,1.2096,1.2225,1.2298,1.2305,1.2265,1.2191,1.1666,1.1136,1.0609,1.0609,1.0609,1.0609,1.0609,1.0498,1.0292,1.0037,0.9712,0.93,0.8716,0.7985,0.7162,0.6596,0.5963,0.5332,0.4939,0.485,0.4894,0.4819,0.5055,0.5407,0.5636,0.6068,0.659,0.6942,0.7306,0.7641,0.783,0.7944,0.7997,0.7897,0.7783,0.7655,0.7553,0.7408,0.7308,0.7308,0.7233,0.7131,0.7063,0.6847,0.6707,0.6783,0.6963,0.7252,0.7689,0.8063,0.8388,0.8619,0.8732,0.8791,0.8791,0.8791,0.8791,0.8791,0.8791,0.8791,0.8791,0.8791,0.8891,0.9091,0.9398,0.9658,0.9857,1.0276,1.0479,1.0479,1.0553,1.0609,1.0609,1.064,1.0697,0.4505,0.4505,0.4505,0.4505,0.4505,0.4505,0.4505,0.4505,0.4519,0.4605,0.4822,0.0,0.0,0.0,0.0,0.0,0.0,0.0,0.9061,0.9515,0.9973,0.0,1.0707,0.0,1.0998,1.1246,1.1534,0.0,1.1906,1.1942,1.2069,1.2211,1.2305,1.2305,1.2305,1.2178,1.1917,1.1573,1.1136,1.0609,1.0609,1.0609,1.0609,1.0514,1.0323,1.0069,0.0,0.9296,0.877,0.8155,0.7462,0.6737,0.6189,0.5661,0.5177,0.4901,0.4838,0.4881,0.4822,0.4969,0.5242,0.5406,0.5728,0.6123,0.6549,0.6901,0.7192,0.7375,0.7496,0.753,0.7456,0.73,0.7125,0.7063,0.6869,0.6701,0.6701,0.6652,0.6558,0.6436,0.6218,0.6123,0.6354,0.6625,0.6982,0.7453,0.7829,0.8181,0.8474,0.8679,0.8791,0.8791,0.8791,0.8791,0.8791,0.8791,0.8791,0.8791,0.8791,0.8925,0.919,0.9526,0.982,1.0092,1.0423,1.0609,1.0609,1.0609,1.0609,1.0609,1.0609,1.064,0.4505,0.4505,0.4505,0.4505,0.4505,0.4505,0.4505,0.4505,0.4505,0.4505,0.0,0.4914,0.5069,0.0,0.6136,0.662,0.0,0.7997,0.8849,0.9336,0.985,1.0474,1.0815,1.1009,1.1049,1.1567,1.1902,1.1942,1.1942,1.2056,1.2285,1.2305,1.2305,1.2305,1.2305,1.1999,1.1412,1.1406,1.1136,1.0609,1.0609,1.0593,1.0545,1.038,1.0095,0.975,0.9402,0.0,0.8139,0.7619,0.7002,0.6327,0.584,0.5428,0.5091,0.4955,0.4916,0.4933,0.4933,0.5003,0.5124,0.5214,0.5383,0.5652,0.6146,0.6436,0.6634,0.6909,0.6977,0.6977,0.6977,0.6801,0.6607,0.658,0.6349,0.6114,0.6086,0.6073,0.5978,0.5732,0.56,0.5618,0.5868,0.63,0.6747,0.7163,0.758,0.7975,0.8335,0.8606,0.8778,0.8791,0.8791,0.8791,0.8791,0.8791,0.8791,0.8791,0.8831,0.8985,0.9257,0.9586,0.988,1.0152,1.0443,1.0609,1.0609,1.0609,1.0609,1.0609,1.0609,1.0609,0.4505,0.4505,0.4505,0.4505,0.4505,0.4505,0.4505,0.4505,0.0,0.0,0.0,0.4812,0.5056,0.5504,0.0,0.6607,0.0,0.0,0.0,0.0,0.9856,0.0,0.0,0.0,0.0,0.0,0.0,0.0,0.0,1.2245,1.2298,1.2305,1.2305,1.2305,1.2305,1.1999,1.1412,1.1406,1.1136,1.0609,1.0609,1.0514,1.0349,1.0317,1.0025,0.954,0.9193,0.0,0.7987,0.7286,0.6691,0.6188,0.565,0.5308,0.5077,0.4947,0.4977,0.5063,0.5063,0.5075,0.5078,0.5004,0.5139,0.5401,0.5655,0.5832,0.6018,0.6277,0.6358,0.6358,0.6358,0.6241,0.6096,0.5982,0.5832,0.5659,0.5486,0.5367,0.5244,0.5089,0.512,0.5238,0.5393,0.5814,0.6273,0.6734,0.7233,0.7735,0.8181,0.8467,0.8672,0.8791,0.8791,0.8791,0.8791,0.8791,0.8791,0.8791,0.9004,0.9285,0.9593,0.9886,1.018,1.0512,1.0566,1.0609,1.0609,1.0609,1.0609,1.0609,1.0609,1.0609,0.4605,0.4656,0.4708,0.4708,0.4708,0.4694,0.4615,0.0,0.0,0.0,0.0,0.4757,0.4956,0.0,0.0,0.0,0.0,0.0,0.0,0.0,0.0,0.0,0.0,0.0,0.0,0.0,0.0,0.0,0.0,1.2305,1.2305,1.2305,1.2305,1.2305,1.2305,1.2091,1.1663,1.1486,1.1192,1.0814,1.0555,1.0387,1.0285,1.0009,0.9652,0.9204,0.8711,0.0,0.7384,0.6778,0.628,0.5857,0.5525,0.5335,0.5243,0.5188,0.5192,0.525,0.525,0.525,0.5229,0.5054,0.5043,0.5143,0.5373,0.5445,0.5477,0.5678,0.5728,0.5728,0.5728,0.5627,0.5522,0.5449,0.5326,0.5203,0.5117,0.4983,0.4881,0.4808,0.4849,0.4963,0.516,0.5591,0.6037,0.6476,0.6977,0.7448,0.7876,0.8202,0.8494,0.8765,0.8791,0.8791,0.8791,0.8791,0.8858,0.8998,0.9124,0.9411,0.9886,1.0025,1.0254,1.0586,1.0609,1.0609,1.0609,1.0609,1.0609,1.0609,1.0609,1.0609,0.477,0.4863,0.4956,0.4979,0.4969,0.4914,0.4812,0.4743,0.0,0.0,0.4605,0.4698,0.4832,0.0,0.0,0.0,0.0,0.0,0.0,0.0,0.0,0.0,0.0,0.0,0.0,0.0,0.0,0.0,0.0,0.0,1.2305,1.2305,1.2305,1.2305,1.2305,1.2164,1.1906,1.1637,1.1342,1.1016,1.066,1.0377,1.02,0.9754,0.9288,0.8791,0.8193,0.0,0.0,0.6379,0.5963,0.5583,0.5458,0.5375,0.5347,0.5382,0.5375,0.5351,0.5385,0.5395,0.5375,0.522,0.5044,0.4943,0.5154,0.5123,0.5042,0.5171,0.5213,0.5213,0.5213,0.5134,0.5056,0.5018,0.4918,0.4818,0.4818,0.4739,0.466,0.466,0.4674,0.477,0.4977,0.5395,0.5818,0.6213,0.6666,0.7112,0.7563,0.7889,0.8267,0.8718,0.8831,0.8885,0.8885,0.8945,0.9078,0.9291,0.9364,0.9604,1.0085,1.0165,1.0336,1.0586,1.0609,1.0609,1.0609,1.0609,1.0609,1.0609,1.0609,1.0609,0.4991,0.5069,0.5111,0.524,0.5175,0.5083,0.5073,0.0,0.0,0.4688,0.4591,0.456,0.4688,0.4936,0.0,0.0,0.0,0.0,0.0,0.0,0.0,0.0,0.0,0.0,0.0,0.0,0.0,0.0,0.0,0.0,1.228,1.2305,1.2305,1.2305,1.2305,1.2164,1.1906,1.1862,1.1596,1.1092,1.1049,1.0636,0.9931,0.9753,0.9156,0.8253,0.7889,0.0,0.0,0.6342,0.5963,0.5583,0.5458,0.5294,0.5153,0.5328,0.529,0.5156,0.5331,0.5395,0.5392,0.5378,0.5158,0.4904,0.4928,0.4844,0.477,0.4901,0.4938,0.4938,0.4938,0.4928,0.4887,0.477,0.4629,0.4532,0.4532,0.4532,0.4519,0.4519,0.4619,0.4705,0.4729,0.5077,0.5458,0.5805,0.62,0.6674,0.7262,0.757,0.7966,0.8558,0.895,0.9157,0.9157,0.9446,0.9627,0.966,0.9878,1.0045,1.0098,1.039,1.0566,1.0609,1.0609,1.0609,1.0609,1.0609,1.0609,1.0609,1.0609,1.0609,0.5173,0.5366,0.5526,0.5581,0.5554,0.5476,0.527,0.0,0.0,0.4849,0.4712,0.466,0.4794,0.4836,0.4977,0.0,0.0,0.0,0.0,0.0,0.0,0.0,0.0,0.0,0.0,0.0,0.0,0.0,0.0,0.0,1.1762,1.1873,1.1947,1.1947,1.1947,1.1895,1.1785,1.161,1.1431,1.1216,1.0817,1.0393,0.9953,0.9565,0.8914,0.8062,0.7595,0.0,0.0,0.5996,0.5703,0.5471,0.5428,0.5358,0.5294,0.5371,0.5354,0.5294,0.5375,0.5395,0.5395,0.5395,0.5232,0.5004,0.4919,0.4746,0.4587,0.4639,0.4653,0.4653,0.4653,0.4653,0.4643,0.4587,0.4532,0.4505,0.4505,0.4505,0.4505,0.4505,0.4546,0.4605,0.4688,0.4904,0.5166,0.5458,0.5809,0.6213,0.6701,0.7198,0.7725,0.8239,0.8766,0.9151,0.9307,0.9555,0.9774,0.9933,1.0038,1.02,1.039,1.0526,1.0609,1.0609,1.0609,1.0609,1.0609,1.0609,1.0609,1.0609,1.0609,1.0609,0.538,0.5654,0.5873,0.5905,0.5891,0.5791,0.0,0.0,0.5242,0.5011,0.4849,0.478,0.4832,0.4794,0.4849,0.0,0.0,0.0,0.0,0.0,0.0,0.0,0.0,0.0,0.0,0.0,0.0,0.0,0.0,0.0,1.1366,1.1423,1.1482,1.1527,1.1521,1.1521,1.1521,1.1333,1.1215,1.1142,1.0617,1.0184,0.9873,0.9314,0.8583,0.7734,0.7257,0.0,0.0,0.5716,0.5521,0.5395,0.5395,0.5365,0.5314,0.5378,0.5365,0.5314,0.5378,0.5395,0.5395,0.5395,0.5257,0.5079,0.4982,0.4802,0.4613,0.4613,0.4613,0.4613,0.4613,0.4593,0.4556,0.4556,0.4525,0.4505,0.4505,0.4505,0.4505,0.4505,0.4505,0.4532,0.4632,0.4753,0.4918,0.5142,0.5454,0.58,0.6234,0.681,0.7412,0.797,0.8548,0.9038,0.9425,0.9715,0.9952,1.0142,1.0217,1.0356,1.0586,1.0609,1.0609,1.0609,1.0609,1.0609,1.0609,1.0609,1.0609,1.0609,1.0609,1.0609,0.5668,0.59,0.6032,0.6159,0.6105,0.5964,0.0,0.0,0.5256,0.5128,0.4983,0.4859,0.4729,0.4808,0.4897,0.4897,0.0,0.0,0.0,0.0,0.0,0.0,0.0,0.0,0.0,0.0,0.0,0.0,0.0,0.0,1.1215,1.1025,1.0979,1.1092,1.1111,1.1111,1.1111,1.1105,1.0993,1.0794,1.0601,1.0183,0.9577,0.8983,0.8165,0.0,0.0,0.0,0.0,0.56,0.5521,0.5395,0.5395,0.5283,0.512,0.5321,0.528,0.5139,0.5324,0.5395,0.5395,0.5395,0.5257,0.51,0.5096,0.4999,0.4899,0.4899,0.4899,0.4899,0.4899,0.4802,0.4702,0.4702,0.46,0.4505,0.4505,0.4505,0.4505,0.4505,0.4505,0.4505,0.4505,0.4619,0.4743,0.4887,0.5128,0.5469,0.5941,0.6421,0.7017,0.7814,0.8331,0.8871,0.9542,1.0022,1.0295,1.0301,1.0475,1.0602,1.0609,1.0609,1.0609,1.0609,1.0609,1.0609,1.0609,1.0609,1.0609,1.0609,1.0609,1.0609,0.5554,0.5827,0.6014,0.6059,0.6105,0.6105,0.5964,0.0,0.5718,0.5481,0.5293,0.5128,0.5004,0.4928,0.4928,0.5028,0.0,0.0,0.0,0.0,0.0,0.0,0.0,0.0,0.0,0.0,0.0,0.0,0.0,0.0,1.0546,1.0329,1.0307,1.0487,1.0476,1.0417,1.0274,1.0274,1.0255,1.018,0.9846,0.9502,0.9168,0.8571,0.7835,0.0,0.0,0.0,0.0,0.5504,0.5442,0.5395,0.5395,0.5365,0.5311,0.5378,0.5365,0.5311,0.5378,0.5395,0.5395,0.5395,0.5361,0.5304,0.5304,0.5114,0.4903,0.4903,0.4903,0.4903,0.4903,0.4869,0.4819,0.4714,0.4668,0.4617,0.4525,0.4505,0.4505,0.4505,0.4505,0.4505,0.4505,0.4532,0.4615,0.4739,0.4839,0.5037,0.5462,0.6011,0.6572,0.7163,0.7801,0.8547,0.946,0.979,0.9989,1.0095,1.0142,1.0196,1.0196,1.0196,1.0196,1.0196,1.0196,1.0253,1.0387,1.0387,1.0466,1.0609,1.0609,1.0609,0.0,0.5704,0.5937,0.5991,0.6059,0.0,0.0,0.0,0.5918,0.565,0.5499,0.5348,0.5142,0.5028,0.5014,0.5156,0.5516,0.0,0.0,0.0,0.0,0.0,0.0,0.0,0.0,0.0,0.0,0.0,0.0,0.0,1.0018,0.9777,0.9614,0.9449,0.9647,0.9691,0.9558,0.949,0.9444,0.9444,0.9108,0.8861,0.8646,0.8116,0.7499,0.0,0.0,0.0,0.0,0.5449,0.5395,0.5395,0.5395,0.5395,0.5395,0.5395,0.5395,0.5395,0.5395,0.5395,0.5395,0.5395,0.5395,0.5395,0.5395,0.5249,0.5084,0.5084,0.5084,0.5084,0.5084,0.5028,0.496,0.4862,0.4772,0.4678,0.4597,0.4532,0.4505,0.4505,0.4505,0.4505,0.4505,0.4505,0.4553,0.4682,0.4738,0.4916,0.5284,0.578,0.6283,0.6779,0.7288,0.7917,0.8753,0.9242,0.9542,0.9616,0.9738,0.9817,0.9817,0.9817,0.9817,0.9817,0.9888,0.9989,1.0117,1.0238,1.0403,1.0609,1.0609,1.0609,0.0,0.5517,0.5804,0.595,0.5987,0.6,0.0,0.0,0.0,0.0,0.5608,0.5513,0.5193,0.5138,0.5187,0.5355,0.0,0.0,0.0,0.0,0.0,0.0,0.0,0.0,0.0,0.0,0.0,0.0,0.0,0.0,0.9615,0.9367,0.8913,0.8202,0.8645,0.8895,0.8906,0.873,0.8622,0.8604,0.8422,0.8212,0.8025,0.7618,0.7121,0.0,0.0,0.0,0.0,0.5457,0.5395,0.5395,0.5395,0.5395,0.5395,0.5395,0.5395,0.5395,0.5395,0.5395,0.5395,0.5395,0.5395,0.5395,0.5395,0.5395,0.5395,0.5395,0.5395,0.5395,0.5395,0.5254,0.5113,0.51,0.4906,0.4718,0.4722,0.461,0.4522,0.4522,0.4522,0.4522,0.4522,0.4522,0.4573,0.4698,0.4827,0.501,0.5337,0.5662,0.6057,0.6572,0.6761,0.7045,0.7547,0.8404,0.892,0.8936,0.9236,0.9406,0.9422,0.9422,0.9438,0.9454,0.9664,0.9788,0.982,1.0149,1.0403,1.0609,1.0609,1.0609,0.4969,0.0,0.5489,0.5777,0.5923,0.6032,0.0,0.0,0.0,0.0,0.0,0.5695,0.5513,0.5481,0.5628,0.0,0.0,0.0,0.0,0.0,0.0,0.0,0.0,0.0,0.0,0.0,0.0,0.0,0.0,1.024,0.9406,0.899,0.8532,0.7993,0.7936,0.7946,0.7995,0.7949,0.7891,0.7787,0.7584,0.745,0.7396,0.6988,0.6646,0.0,0.0,0.0,0.5596,0.5457,0.5395,0.5395,0.5395,0.5395,0.5395,0.5395,0.5395,0.5395,0.5395,0.5395,0.5395,0.5395,0.5395,0.5395,0.5395,0.5395,0.5395,0.5395,0.5395,0.5395,0.5395,0.5368,0.5294,0.5143,0.5046,0.498,0.4875,0.4821,0.4813,0.4813,0.4813,0.4813,0.4813,0.4813,0.4823,0.4845,0.4882,0.4962,0.5139,0.5376,0.561,0.5829,0.6165,0.6412,0.6544,0.7444,0.8112,0.8366,0.8458,0.8576,0.8738,0.8738,0.8813,0.8958,0.937,0.9706,0.9951,1.0196,1.0403,1.0609,1.0609,1.0609,0.5023,0.5252,0.5489,0.574,0.59,0.6032,0.6173,0.0,0.0,0.0,0.0,0.0,0.5796,0.0,0.0,0.0,0.0,0.0,0.0,0.0,0.0,0.0,0.0,0.0,0.0,0.0,0.0,0.0,0.0,0.9881,0.8841,0.8464,0.8047,0.754,0.7436,0.7431,0.7562,0.7476,0.7367,0.723,0.7119,0.7007,0.6911,0.6698,0.6498,0.0,0.0,0.0,0.5671,0.5484,0.5395,0.5395,0.5395,0.5395,0.5395,0.5395,0.5395,0.5395,0.5395,0.5395,0.5395,0.5395,0.5395,0.5395,0.5395,0.5395,0.5395,0.5395,0.5395,0.5395,0.5395,0.5395,0.5375,0.5257,0.5166,0.5076,0.5002,0.495,0.4903,0.4903,0.4903,0.4903,0.4903,0.4903,0.4926,0.4975,0.4985,0.5055,0.5216,0.5337,0.545,0.5589,0.5798,0.5967,0.6053,0.6564,0.7089,0.7575,0.7782,0.7928,0.8036,0.8106,0.8349,0.8786,0.9113,0.9514,0.9999,1.011,1.0308,1.0609,1.0609,1.0609,0.5222,0.5517,0.5718,0.5832,0.5941,0.6073,0.0,0.0,0.0,0.0,0.0,0.0,0.0,0.0,0.0,0.0,0.0,0.0,0.0,0.0,0.0,0.0,0.0,0.0,0.0,0.0,0.0,0.0,0.0,0.9406,0.8266,0.7962,0.761,0.7117,0.7095,0.7162,0.7326,0.7136,0.697,0.6844,0.6818,0.6714,0.6544,0.6544,0.647,0.6282,0.0,0.0,0.5779,0.5525,0.5416,0.5395,0.5395,0.5395,0.5395,0.5395,0.5395,0.5395,0.5395,0.5395,0.5395,0.5395,0.5395,0.5395,0.5395,0.5395,0.5395,0.5395,0.5395,0.5395,0.5395,0.5395,0.5395,0.5395,0.5277,0.5149,0.5149,0.5055,0.497,0.497,0.497,0.497,0.497,0.497,0.5011,0.5132,0.5149,0.5213,0.5378,0.5395,0.5442,0.555,0.5567,0.5637,0.5809,0.5839,0.6103,0.6663,0.7085,0.7326,0.7412,0.7596,0.8041,0.8738,0.8942,0.9354,0.9999,1.0031,1.0238,1.0609,1.0609,1.0609,0.5462,0.5832,0.611,0.6137,0.615,0.6255,0.0,0.0,0.0,0.0,0.0,0.0,0.0,0.0,0.0,0.0,0.0,0.0,0.0,0.0,0.0,0.0,0.0,0.0,0.0,0.0,0.0,0.0,0.0,0.906,0.8245,0.779,0.7415,0.7117,0.7095,0.7061,0.698,0.6826,0.6692,0.6557,0.6452,0.6374,0.6354,0.6354,0.6338,0.6289,0.0,0.5903,0.5789,0.5641,0.5498,0.5395,0.5395,0.5395,0.5395,0.5395,0.5395,0.5395,0.5395,0.5395,0.5395,0.5395,0.5395,0.5395,0.5395,0.5395,0.5395,0.5395,0.5395,0.5395,0.5395,0.5395,0.5395,0.5395,0.5378,0.5358,0.5358,0.5341,0.5327,0.5327,0.5327,0.5327,0.5327,0.5327,0.5334,0.5354,0.5358,0.5368,0.5392,0.5395,0.5412,0.5428,0.5425,0.5442,0.5478,0.5587,0.5683,0.5798,0.6178,0.6576,0.6975,0.7454,0.7976,0.8533,0.9006,0.9498,0.9999,1.0174,1.0371,1.0609,1.0609,1.0609,0.5919,0.6168,0.6372,0.6617,0.6576,0.0,0.0,0.0,0.0,0.0,0.0,0.0,0.0,0.0,0.0,0.0,0.0,0.0,0.0,0.0,0.0,0.0,0.0,0.0,0.0,0.0,0.0,0.0,0.0,0.0,0.8091,0.7702,0.737,0.7117,0.7095,0.7065,0.7001,0.6877,0.6705,0.6491,0.6368,0.63,0.63,0.63,0.63,0.6289,0.0,0.5971,0.589,0.5684,0.5566,0.5494,0.5426,0.5395,0.5395,0.5395,0.5395,0.5395,0.5395,0.5395,0.5395,0.5395,0.5395,0.5395,0.5395,0.5395,0.5395,0.5395,0.5395,0.5395,0.5395,0.5395,0.5395,0.5395,0.5395,0.5395,0.5395,0.5395,0.5395,0.5395,0.5395,0.5395,0.5395,0.5395,0.5395,0.5395,0.5395,0.5395,0.5395,0.5395,0.5395,0.5395,0.5395,0.5395,0.5395,0.5458,0.557,0.5752,0.6033,0.6379,0.6778,0.7297,0.7873,0.8484,0.9022,0.953,0.9999,1.0206,1.0403,1.0609,1.0609,1.0609,0.635,0.6517,0.6652,0.7004,0.0,0.0,0.0,0.0,0.0,0.0,0.0,0.0,0.0,0.0,0.0,0.0,0.0,0.0,0.0,0.0,0.0,0.0,0.0,0.0,0.0,0.0,0.0,0.0,0.0,0.0,0.7856,0.7547,0.7301,0.7095,0.7095,0.7095,0.7095,0.6979,0.6772,0.6542,0.6419,0.633,0.63,0.63,0.63,0.6293,0.6135,0.6045,0.5995,0.5786,0.5674,0.5644,0.5528,0.5477,0.5443,0.5409,0.5395,0.5395,0.5395,0.5395,0.5395,0.5395,0.5395,0.5395,0.5395,0.5395,0.5395,0.5395,0.5395,0.5395,0.5395,0.5395,0.5395,0.5395,0.5395,0.5395,0.5395,0.5395,0.5395,0.5395,0.5395,0.5395,0.5395,0.5395,0.5395,0.5395,0.5395,0.5395,0.5395,0.5395,0.5395,0.5395,0.5395,0.5395,0.5395,0.5395,0.5511,0.5776,0.6,0.628,0.6609,0.7199,0.7819,0.8484,0.9055,0.9562,0.9999,1.026,1.0434,1.053,1.053,1.0498,0.6587,0.6864,0.7058,0.7098,0.0,0.0,0.0,0.0,0.0,0.0,0.0,0.0,0.0,0.0,0.0,0.0,0.0,0.0,0.0,0.0,0.0,0.0,0.0,0.0,0.0,0.0,0.0,0.0,0.0,0.0,0.7551,0.7279,0.7117,0.7095,0.7095,0.7095,0.7095,0.6979,0.6826,0.6681,0.6549,0.6426,0.63,0.63,0.63,0.63,0.6286,0.6162,0.599,0.5988,0.5897,0.5786,0.5772,0.5688,0.5573,0.5446,0.5395,0.5395,0.5395,0.5395,0.5395,0.5395,0.5395,0.5395,0.5395,0.5395,0.5395,0.5395,0.5395,0.5395,0.5395,0.5395,0.5395,0.5395,0.5395,0.5395,0.5395,0.5395,0.5395,0.5395,0.5395,0.5395,0.5395,0.5395,0.5395,0.5395,0.5395,0.5395,0.5395,0.5395,0.5395,0.5395,0.5395,0.5395,0.5395,0.5395,0.5412,0.5428,0.5739,0.607,0.6404,0.7118,0.7819,0.8484,0.9139,0.9652,0.9999,1.0387,1.0498,1.0317,1.0317,1.0228,0.6988,0.7149,0.7265,0.7434,0.0,0.0,0.0,0.0,0.0,0.0,0.0,0.0,0.0,0.0,0.0,0.0,0.0,0.0,0.0,0.0,0.0,0.0,0.0,0.0,0.0,0.0,0.0,0.0,0.0,0.0,0.7529,0.7257,0.7095,0.7095,0.7095,0.7095,0.7095,0.7045,0.6918,0.6698,0.6566,0.6436,0.63,0.63,0.63,0.63,0.63,0.6265,0.6185,0.6049,0.5978,0.5913,0.5837,0.5769,0.5705,0.5573,0.5522,0.5508,0.5429,0.5395,0.5395,0.5395,0.5395,0.5395,0.5395,0.5395,0.5395,0.5395,0.5395,0.5395,0.5395,0.5395,0.5395,0.5395,0.5395,0.5395,0.5395,0.5395,0.5395,0.5395,0.5395,0.5395,0.5395,0.5395,0.5395,0.5395,0.5395,0.5395,0.5395,0.5395,0.5395,0.5395,0.5395,0.5395,0.5395,0.5395,0.5395,0.5395,0.571,0.602,0.6264,0.6937,0.7591,0.8182,0.8856,0.9348,0.9684,1.0047,1.0196,1.011,1.0037,0.9942,0.7244,0.7365,0.748,0.0,0.0,0.0,0.0,0.0,0.0,0.0,0.0,0.0,0.0,0.0,0.0,0.0,0.0,0.0,0.0,0.0,0.0,0.0,0.0,0.0,0.0,0.0,0.0,0.0,0.0,0.0,0.0,0.7209,0.7095,0.7095,0.7095,0.7095,0.7095,0.7095,0.6972,0.6698,0.6617,0.6464,0.63,0.63,0.63,0.63,0.63,0.63,0.6289,0.6146,0.6101,0.6088,0.5932,0.5856,0.5857,0.5708,0.563,0.5593,0.5488,0.5436,0.5395,0.5395,0.5395,0.5395,0.5395,0.5395,0.5395,0.5395,0.5395,0.5395,0.5395,0.5395,0.5395,0.5395,0.5395,0.5395,0.5395,0.5395,0.5395,0.5395,0.5395,0.5395,0.5395,0.5395,0.5395,0.5395,0.5395,0.5395,0.5395,0.5395,0.5395,0.5395,0.5395,0.5395,0.5395,0.5395,0.5395,0.5395,0.5657,0.5918,0.6194,0.679,0.7384,0.7987,0.8614,0.9129,0.9502,0.9732,0.9833,0.9833,0.9632,0.9526,0.7303,0.7507,0.0,0.0,0.0,0.0,0.0,0.0,0.0,0.0,0.0,0.0,0.0,0.0,0.0,0.0,0.0,0.0,0.0,0.0,0.0,0.0,0.0,0.0,0.0,0.0,0.0,0.0,0.0,0.0,0.0,0.7095,0.7095,0.7095,0.7095,0.7095,0.7095,0.7095,0.6968,0.6702,0.6698,0.6563,0.63,0.63,0.63,0.63,0.63,0.63,0.63,0.63,0.63,0.6282,0.6072,0.5993,0.5995,0.5861,0.5715,0.561,0.5607,0.5508,0.5395,0.5395,0.5395,0.5395,0.5395,0.5395,0.5395,0.5395,0.5395,0.5395,0.5395,0.5395,0.5395,0.5395,0.5395,0.5395,0.5395,0.5395,0.5395,0.5395,0.5395,0.5395,0.5395,0.5395,0.5395,0.5395,0.5395,0.5395,0.5395,0.5395,0.5395,0.5395,0.5395,0.5395,0.5395,0.5395,0.5395,0.5395,0.5521,0.5782,0.6178,0.6646,0.7241,0.7971,0.8506,0.9017,0.9486,0.9486,0.9486,0.9486,0.9139,0.8926,0.7528,0.7702,0.0,0.0,0.0,0.0,0.0,0.0,0.0,0.0,0.0,0.0,0.0,0.0,0.0,0.0,0.0,0.0,0.0,0.0,0.0,0.0,0.0,0.0,0.0,0.0,0.0,0.0,0.0,0.0,0.0,0.7095,0.7095,0.7095,0.7095,0.7095,0.7095,0.6997,0.6874,0.6698,0.661,0.646,0.63,0.63,0.63,0.63,0.63,0.63,0.63,0.63,0.63,0.6293,0.6229,0.6212,0.6192,0.6001,0.5849,0.5725,0.5627,0.5508,0.5395,0.5395,0.5395,0.5395,0.5395,0.5395,0.5395,0.5395,0.5395,0.5395,0.5395,0.5395,0.5395,0.5395,0.5395,0.5395,0.5395,0.5395,0.5395,0.5395,0.5395,0.5395,0.5395,0.5395,0.5395,0.5395,0.5395,0.5395,0.5395,0.5395,0.5395,0.5395,0.5395,0.5395,0.5395,0.5395,0.5395,0.5395,0.5442,0.5554,0.5765,0.6268,0.6766,0.722,0.7748,0.8214,0.8587,0.8727,0.8797,0.8797,0.8544,0.8414,0.7702,0.0,0.0,0.0,0.0,0.0,0.0,0.0,0.0,0.0,0.0,0.0,0.0,0.0,0.0,0.0,0.0,0.0,0.0,0.0,0.0,0.0,0.0,0.0,0.0,0.0,0.0,0.0,0.0,0.0,0.0,0.7095,0.7095,0.7095,0.7095,0.7068,0.7014,0.6948,0.6799,0.6631,0.6535,0.6436,0.63,0.63,0.63,0.63,0.63,0.63,0.63,0.63,0.63,0.63,0.63,0.63,0.6289,0.6156,0.6023,0.5863,0.5793,0.5644,0.5487,0.5487,0.5443,0.5395,0.5395,0.5395,0.5395,0.5395,0.5395,0.5395,0.5395,0.5395,0.5395,0.5395,0.5395,0.5395,0.5395,0.5395,0.5395,0.5395,0.5395,0.5395,0.5395,0.5395,0.5395,0.5395,0.5395,0.5428,0.5471,0.5475,0.5508,0.5594,0.5524,0.5475,0.5475,0.5425,0.5395,0.5395,0.5395,0.5442,0.5521,0.5954,0.6404,0.6811,0.7188,0.758,0.7998,0.8068,0.8138,0.8171,0.7917,0.7798,0.0,0.0,0.0,0.0,0.0,0.0,0.0,0.0,0.0,0.0,0.0,0.0,0.0,0.0,0.0,0.0,0.0,0.0,0.0,0.0,0.0,0.0,0.0,0.0,0.0,0.0,0.0,0.0,0.0,0.0,0.0,0.7095,0.7095,0.7095,0.7085,0.7014,0.6908,0.688,0.6749,0.6491,0.6481,0.6426,0.63,0.63,0.63,0.63,0.63,0.63,0.63,0.63,0.63,0.63,0.63,0.63,0.63,0.63,0.6182,0.5993,0.5993,0.5826,0.5627,0.5627,0.5522,0.5416,0.5416,0.5405,0.5395,0.5395,0.5395,0.5395,0.5395,0.5395,0.5395,0.5395,0.5395,0.5395,0.5395,0.5395,0.5395,0.5395,0.5395,0.5395,0.5395,0.5395,0.5412,0.5408,0.5412,0.5475,0.56,0.5633,0.5703,0.5872,0.5736,0.5617,0.56,0.5491,0.5408,0.5395,0.5395,0.5395,0.5395,0.571,0.6119,0.6609,0.6761,0.7094,0.7617,0.7493,0.7493,0.7617,0.7318,0.7171,0.0,0.0,0.0,0.0,0.0,0.0,0.0,0.0,0.0,0.0,0.0,0.0,0.0,0.0,0.0,0.0,0.0,0.0,0.0,0.0,0.0,0.0,0.0,0.0,0.0,0.0,0.0,0.0,0.0,0.0,0.7117,0.7095,0.7095,0.7095,0.6991,0.6938,0.6908,0.6692,0.6556,0.6491,0.6399,0.633,0.63,0.63,0.63,0.63,0.63,0.63,0.63,0.63,0.63,0.63,0.63,0.63,0.63,0.63,0.6182,0.5993,0.5993,0.5893,0.5755,0.5755,0.5657,0.5559,0.5559,0.5491,0.5395,0.5395,0.5395,0.5395,0.5395,0.5395,0.5395,0.5395,0.5395,0.5395,0.5395,0.5395,0.5395,0.5395,0.5395,0.5395,0.5395,0.5395,0.5442,0.5537,0.555,0.562,0.5806,0.5839,0.5855,0.5888,0.5855,0.5769,0.5617,0.5567,0.5504,0.5412,0.5395,0.5395,0.5395,0.557,0.5785,0.607,0.6251,0.6544,0.6921,0.6888,0.6942,0.7077,0.6995,0.6963,0.0,0.0,0.0,0.0,0.0,0.0,0.0,0.0,0.0,0.0,0.0,0.0,0.0,0.0,0.0,0.0,0.0,0.0,0.0,0.0,0.0,0.0,0.0,0.0,0.0,0.0,0.0,0.0,0.0,0.7257,0.7095,0.7031,0.6997,0.6997,0.6874,0.6762,0.6712,0.6573,0.6457,0.6409,0.6334,0.63,0.63,0.63,0.63,0.63,0.63,0.63,0.63,0.63,0.63,0.63,0.63,0.63,0.63,0.63,0.6229,0.6139,0.6139,0.604,0.5893,0.5893,0.5766,0.5607,0.5607,0.5501,0.5395,0.5395,0.5395,0.5395,0.5395,0.5395,0.5395,0.5395,0.5395,0.5395,0.5395,0.5395,0.5395,0.5395,0.5395,0.5395,0.5395,0.5458,0.5521,0.5583,0.5765,0.5947,0.6119,0.6284,0.6383,0.6383,0.6383,0.6268,0.6,0.593,0.5782,0.5504,0.5488,0.5475,0.5395,0.5475,0.5587,0.5752,0.5868,0.6046,0.6317,0.6317,0.635,0.642,0.642,0.6465,0.0,0.0,0.0,0.0,0.0,0.0,0.0,0.0,0.0,0.0,0.0,0.0,0.0,0.0,0.0,0.0,0.0,0.0,0.0,0.0,0.0,0.0,0.0,0.0,0.0,0.0,0.0,0.0,0.0,0.7085,0.7061,0.6972,0.6894,0.687,0.6742,0.662,0.6495,0.6467,0.6416,0.63,0.63,0.63,0.63,0.63,0.63,0.63,0.63,0.63,0.63,0.63,0.63,0.63,0.63,0.63,0.63,0.63,0.63,0.63,0.63,0.6195,0.6049,0.6049,0.5867,0.5627,0.5627,0.5518,0.5395,0.5395,0.5395,0.5395,0.5395,0.5395,0.5395,0.5395,0.5395,0.5395,0.5395,0.5395,0.5395,0.5395,0.5395,0.5395,0.5395,0.5504,0.5617,0.565,0.598,0.6297,0.6465,0.6761,0.6963,0.6995,0.6979,0.6831,0.6519,0.633,0.6079,0.5732,0.5666,0.5604,0.5495,0.5495,0.5524,0.56,0.5583,0.5653,0.5855,0.5855,0.5872,0.5905,0.5905,0.5987,0.0,0.0,0.0,0.0,0.0,0.0,0.0,0.0,0.0,0.0,0.0,0.0,0.0,0.0,0.0,0.0,0.0,0.0,0.0,0.0,0.0,0.0,0.0,0.0,0.0,0.0,0.0,0.0,0.7117,0.7045,0.6941,0.6918,0.6847,0.6736,0.6603,0.6512,0.6491,0.6388,0.632,0.63,0.63,0.63,0.63,0.63,0.63,0.63,0.63,0.63,0.63,0.63,0.63,0.63,0.63,0.63,0.63,0.63,0.63,0.63,0.63,0.6286,0.6269,0.6269,0.6042,0.5772,0.5772,0.5596,0.5395,0.5395,0.5395,0.5395,0.5395,0.5395,0.5395,0.5395,0.5395,0.5395,0.5395,0.5395,0.5395,0.5395,0.5395,0.5395,0.5395,0.5504,0.5666,0.5839,0.6152,0.6482,0.6798,0.7024,0.7232,0.7396,0.7265,0.7073,0.6848,0.6552,0.6301,0.6128,0.5954,0.5855,0.5839,0.5839,0.5756,0.56,0.5491,0.5491,0.5633,0.5633,0.5736,0.5905,0.5905,0.5908,0.0,0.0,0.0,0.0,0.0,0.0,0.0,0.0,0.0,0.0,0.0,0.0,0.0,0.0,0.0,0.0,0.0,0.0,0.0,0.0,0.0,0.0,0.0,0.0,0.0,0.0,0.0,0.0,0.6921,0.6843,0.6782,0.6719,0.6644,0.6593,0.645,0.6395,0.6395,0.633,0.63,0.63,0.63,0.63,0.63,0.63,0.63,0.63,0.63,0.63,0.63,0.63,0.63,0.63,0.63,0.63,0.63,0.63,0.63,0.63,0.63,0.63,0.63,0.63,0.6069,0.58,0.58,0.5613,0.5395,0.5395,0.5395,0.5395,0.5395,0.5395,0.5395,0.5395,0.5395,0.5395,0.5395,0.5395,0.5395,0.5395,0.5395,0.5395,0.5395,0.5607,0.5806,0.5888,0.635,0.6782,0.704,0.7477,0.7798,0.7879,0.7917,0.7808,0.7531,0.7216,0.6888,0.6613,0.6445,0.6301,0.6185,0.6103,0.6033,0.5947,0.5653,0.5504,0.5491,0.5491,0.5541,0.5627,0.5627,0.5657,0.0,0.0,0.0,0.0,0.0,0.0,0.0,0.0,0.0,0.0,0.0,0.0,0.0,0.0,0.0,0.0,0.0,0.0,0.0,0.0,0.0,0.0,0.0,0.0,0.0,0.0,0.0,0.0,0.6766,0.6681,0.6644,0.6552,0.6477,0.646,0.6354,0.63,0.63,0.63,0.63,0.63,0.63,0.63,0.63,0.63,0.63,0.63,0.63,0.63,0.63,0.63,0.63,0.63,0.63,0.63,0.63,0.63,0.63,0.63,0.63,0.63,0.6293,0.6233,0.6039,0.5793,0.5759,0.5583,0.5395,0.5395,0.5395,0.5395,0.5395,0.5395,0.5395,0.5395,0.5395,0.5395,0.5395,0.5395,0.5395,0.5395,0.5395,0.5395,0.5395,0.564,0.5839,0.5888,0.6437,0.6958,0.7237,0.7814,0.8236,0.8333,0.849,0.8479,0.8231,0.7852,0.7493,0.7209,0.7003,0.6839,0.6679,0.6527,0.6412,0.6326,0.598,0.5686,0.5458,0.5408,0.5395,0.5395,0.5395,0.5458,0.0,0.0,0.0,0.0,0.0,0.0,0.0,0.0,0.0,0.0,0.0,0.0,0.0,0.0,0.0,0.0,0.0,0.0,0.0,0.0,0.0,0.0,0.0,0.0,0.0,0.0,0.0,0.0,0.6705,0.6637,0.6512,0.6495,0.645,0.6317,0.6303,0.63,0.63,0.63,0.63,0.63,0.63,0.63,0.63,0.63,0.63,0.63,0.63,0.63,0.63,0.63,0.63,0.63,0.63,0.63,0.63,0.63,0.63,0.63,0.63,0.63,0.6276,0.6072,0.5913,0.5776,0.564,0.5505,0.5395,0.5395,0.5395,0.5395,0.5395,0.5395,0.5395,0.5395,0.5395,0.5395,0.5395,0.5395,0.5395,0.5395,0.5395,0.5395,0.5395,0.5521,0.5683,0.5872,0.6367,0.6905,0.7423,0.7896,0.8355,0.8738,0.877,0.877,0.8754,0.8279,0.7971,0.7938,0.764,0.7456,0.7444,0.7248,0.7003,0.6675,0.6465,0.6103,0.5583,0.5458,0.5395,0.5395,0.5395,0.5412,0.0,0.0,0.0,0.0,0.0,0.0,0.0,0.0,0.0,0.0,0.0,0.0,0.0,0.0,0.0,0.0,0.0,0.0,0.0,0.0,0.0,0.0,0.0,0.0,0.0,0.0,0.0,0.0,0.0,0.6413,0.6378,0.6375,0.6354,0.6303,0.63,0.6233,0.6112,0.6112,0.6112,0.6112,0.6233,0.63,0.63,0.63,0.63,0.63,0.63,0.63,0.63,0.63,0.63,0.63,0.63,0.63,0.63,0.63,0.63,0.63,0.63,0.63,0.6276,0.6059,0.5907,0.5776,0.5651,0.5501,0.5395,0.5395,0.5395,0.5395,0.5395,0.5395,0.5395,0.5395,0.5395,0.5395,0.5395,0.5395,0.5395,0.5395,0.5395,0.5395,0.5395,0.5504,0.5666,0.5872,0.6367,0.6888,0.7423,0.8014,0.8522,0.8894,0.9038,0.9113,0.9113,0.8748,0.8506,0.8506,0.8279,0.8079,0.7961,0.7803,0.7559,0.7211,0.6806,0.6264,0.56,0.555,0.5491,0.5395,0.5395,0.5395,0.0,0.0,0.0,0.0,0.0,0.0,0.0,0.0,0.0,0.0,0.0,0.0,0.0,0.0,0.0,0.0,0.0,0.0,0.0,0.0,0.0,0.0,0.0,0.0,0.0,0.0,0.0,0.0,0.0,0.0,0.6127,0.6127,0.6127,0.6127,0.6127,0.6076,0.5937,0.5934,0.5961,0.5993,0.6135,0.6229,0.63,0.63,0.63,0.63,0.63,0.63,0.63,0.63,0.63,0.63,0.63,0.63,0.63,0.63,0.63,0.63,0.63,0.63,0.6265,0.602,0.5866,0.5766,0.559,0.5477,0.5395,0.5395,0.5395,0.5395,0.5395,0.5395,0.5395,0.5395,0.5395,0.5395,0.5395,0.5395,0.5395,0.5395,0.5395,0.5395,0.5395,0.5471,0.562,0.5855,0.6268,0.6773,0.7423,0.7987,0.8506,0.8952,0.9226,0.9402,0.9456,0.9269,0.9141,0.9141,0.8899,0.8716,0.8576,0.8312,0.8036,0.7749,0.7228,0.6638,0.5963,0.5716,0.555,0.5458,0.5428,0.5395,0.0,0.0,0.0,0.0,0.0,0.0,0.0,0.0,0.0,0.0,0.0,0.0,0.0,0.0,0.0,0.0,0.0,0.0,0.0,0.0,0.0,0.0,0.0,0.0,0.0,0.0,0.0,0.0,0.599,0.5941,0.581,0.58,0.58,0.58,0.5796,0.5793,0.5793,0.5793,0.5853,0.5979,0.599,0.6108,0.6293,0.6296,0.63,0.63,0.63,0.63,0.63,0.63,0.63,0.63,0.63,0.63,0.63,0.63,0.63,0.63,0.63,0.63,0.6248,0.5901,0.58,0.5745,0.5484,0.5395,0.5395,0.5395,0.5395,0.5395,0.5395,0.5395,0.5395,0.5395,0.5395,0.5395,0.5395,0.5395,0.5395,0.5395,0.5395,0.5395,0.5395,0.5395,0.5511,0.5839,0.6066,0.6507,0.7375,0.7787,0.8258,0.892,0.93,0.9572,0.9788,0.9804,0.9804,0.9804,0.9504,0.9322,0.9306,0.8813,0.8425,0.822,0.7766,0.726,0.6724,0.598,0.5617,0.56,0.5458,0.5395,0.7696,0.0,0.0,0.0,0.0,0.0,0.8342,0.8587,0.8854,0.0,0.0,0.0,0.0,0.0,0.0,0.0,0.0,0.0,0.0,0.0,0.0,0.0,0.0,0.0,0.0,0.0,0.0,0.0,0.591,0.5844,0.5803,0.58,0.58,0.58,0.5701,0.5647,0.5647,0.5647,0.5671,0.5715,0.591,0.6035,0.6098,0.6229,0.63,0.63,0.63,0.63,0.63,0.63,0.63,0.63,0.63,0.63,0.63,0.63,0.63,0.63,0.63,0.63,0.6248,0.5901,0.58,0.5745,0.5484,0.5395,0.5395,0.5395,0.5395,0.5395,0.5395,0.5395,0.5395,0.5395,0.5395,0.5395,0.5395,0.5395,0.5395,0.5395,0.5395,0.5395,0.5395,0.5395,0.5458,0.5653,0.598,0.6412,0.6991,0.7612,0.8214,0.8797,0.9161,0.9482,0.9766,0.9804,0.9836,0.9942,0.9856,0.969,0.946,0.93,0.9033,0.8635,0.822,0.7814,0.7417,0.6581,0.5984,0.56,0.5458,0.5395,0.0,0.0,0.0,0.0,0.0,0.0,0.8029,0.8212,0.847,0.0,0.0,0.0,0.0,0.0,0.0,0.0,0.0,0.0,0.0,0.0,0.0,0.0,0.0,0.0,0.0,0.5989,0.5893,0.5832,0.5766,0.5684,0.5641,0.5637,0.5637,0.5637,0.5556,0.5511,0.5511,0.5511,0.5545,0.561,0.5823,0.5951,0.6015,0.6209,0.63,0.63,0.63,0.63,0.63,0.63,0.63,0.63,0.63,0.63,0.63,0.63,0.63,0.63,0.63,0.63,0.6248,0.5901,0.58,0.5745,0.5484,0.5395,0.5395,0.5395,0.5395,0.5395,0.5395,0.5395,0.5395,0.5395,0.5395,0.5395,0.5395,0.5395,0.5395,0.5395,0.5395,0.5395,0.5395,0.5395,0.5442,0.5583,0.584,0.6241,0.6831,0.7421,0.8012,0.8618,0.8996,0.9342,0.9654,0.975,0.9894,1.011,1.0047,0.9945,0.9833,0.9706,0.945,0.9097,0.8721,0.8258,0.7699,0.6909,0.6198,0.56,0.5521,0.5458,0.0,0.0,0.0,0.0,0.0,0.0,0.779,0.7815,0.7981,0.829,0.0,0.0,0.0,0.0,0.0,0.0,0.0,0.0,0.0,0.0,0.0,0.0,0.0,0.0,0.5857,0.5804,0.5725,0.5617,0.5593,0.5522,0.5402,0.5395,0.5395,0.5395,0.5395,0.5395,0.5395,0.5395,0.5463,0.5583,0.5708,0.5839,0.5991,0.6185,0.6282,0.63,0.63,0.63,0.63,0.63,0.63,0.63,0.63,0.63,0.63,0.63,0.63,0.63,0.63,0.6289,0.6205,0.5898,0.5789,0.5725,0.5481,0.5395,0.5395,0.5395,0.5395,0.5395,0.5395,0.5395,0.5395,0.5395,0.5395,0.5395,0.5395,0.5395,0.5395,0.5395,0.5395,0.5395,0.5395,0.5395,0.5448,0.5575,0.5712,0.6052,0.6743,0.7206,0.772,0.8376,0.8809,0.9159,0.9456,0.9643,0.9893,1.0212,1.0095,1.0079,1.0253,1.0005,0.976,0.955,0.9204,0.8614,0.7764,0.7036,0.6346,0.5683,0.5633,0.5537,0.0,0.0,0.0,0.0,0.0,0.0,0.7909,0.7888,0.7913,0.0,0.0,0.0,0.0,0.0,0.0,0.0,0.0,0.0,0.0,0.0,0.0,0.0,0.0,0.0,0.6058,0.5789,0.562,0.561,0.5494,0.5426,0.5395,0.5395,0.5395,0.5395,0.5395,0.5395,0.5395,0.5395,0.5409,0.544,0.5576,0.5705,0.585,0.5988,0.6142,0.63,0.63,0.63,0.63,0.63,0.63,0.63,0.63,0.63,0.63,0.63,0.63,0.63,0.63,0.6199,0.6025,0.5861,0.5725,0.5613,0.545,0.5395,0.5395,0.5395,0.5395,0.5395,0.5395,0.5395,0.5395,0.5395,0.5395,0.5395,0.5395,0.5395,0.5395,0.5395,0.5395,0.5395,0.5395,0.5395,0.5453,0.5576,0.572,0.595,0.6362,0.6906,0.7478,0.8036,0.8461,0.8867,0.9297,0.9374,0.954,0.9881,0.9958,1.0015,1.0063,1.0142,1.011,0.9903,0.9466,0.8866,0.8107,0.7162,0.6544,0.6235,0.5798,0.5583,0.0,0.0,0.0,0.8348,0.0,0.0,0.0,0.7855,0.7888,0.7815,0.0,0.0,0.0,0.0,0.0,0.0,0.0,0.0,0.0,0.0,0.0,0.0,0.0,0.0,0.5876,0.5638,0.5494,0.5494,0.544,0.5395,0.5395,0.5395,0.5395,0.5395,0.5395,0.5395,0.5395,0.5395,0.5395,0.5395,0.5532,0.5627,0.5701,0.591,0.6052,0.6149,0.6265,0.63,0.63,0.63,0.6233,0.6152,0.6269,0.63,0.63,0.63,0.63,0.63,0.63,0.6159,0.5988,0.585,0.5705,0.5579,0.544,0.5446,0.5508,0.5576,0.5549,0.5494,0.5494,0.5453,0.5395,0.5395,0.5395,0.5395,0.5395,0.5395,0.5395,0.5395,0.5457,0.5494,0.5494,0.5494,0.5542,0.5674,0.5809,0.5992,0.6266,0.6732,0.7212,0.7649,0.7965,0.8321,0.8764,0.8805,0.897,0.9378,0.9552,0.976,0.9983,1.0196,1.026,1.0142,0.9658,0.9188,0.8753,0.7879,0.7129,0.6548,0.6165,0.5851,0.0,0.0,0.0,0.0,0.0,0.8289,0.0,0.0,0.0,0.7823,0.0,0.0,0.0,0.0,0.0,0.0,0.0,0.0,0.0,0.0,0.0,0.0,0.0,0.0,0.5666,0.5508,0.5395,0.5395,0.5395,0.5395,0.5395,0.5395,0.5395,0.5395,0.5395,0.5395,0.5395,0.5395,0.5395,0.5395,0.5505,0.5579,0.5599,0.5819,0.5941,0.5974,0.6137,0.6211,0.6211,0.6211,0.6117,0.5984,0.6175,0.6236,0.6236,0.6236,0.6276,0.63,0.63,0.6158,0.5947,0.584,0.5705,0.5583,0.5477,0.5528,0.5654,0.5769,0.5718,0.5627,0.5613,0.5515,0.5433,0.5402,0.5395,0.5395,0.5395,0.5419,0.544,0.544,0.5545,0.5623,0.5613,0.5613,0.5681,0.5823,0.593,0.6074,0.627,0.6611,0.6965,0.7281,0.7484,0.7756,0.8159,0.8177,0.8375,0.8831,0.9077,0.9402,0.9856,1.0142,1.0301,1.0301,0.9881,0.9556,0.9332,0.8721,0.7896,0.6888,0.6597,0.6202,0.0,0.0,0.0,0.0,0.8487,0.0,0.0,0.0,0.8168,0.8155,0.0,0.0,0.0,0.0,0.0,0.0,0.0,0.0,0.0,0.0,0.0,0.0,0.0,0.0,0.0,0.5574,0.5395,0.5395,0.5395,0.5395,0.5395,0.5395,0.5395,0.5395,0.5395,0.5395,0.5395,0.5395,0.5395,0.5395,0.5412,0.5491,0.561,0.5627,0.5708,0.5827,0.5844,0.5854,0.5854,0.5854,0.5844,0.584,0.5978,0.6039,0.6039,0.6039,0.6142,0.63,0.63,0.609,0.5823,0.5806,0.5705,0.5603,0.5586,0.5664,0.5779,0.5796,0.5789,0.5749,0.5623,0.5596,0.5549,0.5426,0.5395,0.5395,0.5395,0.5484,0.5579,0.5579,0.5681,0.5739,0.5627,0.5694,0.583,0.5961,0.5983,0.6081,0.6274,0.6495,0.6707,0.6934,0.7126,0.7393,0.7736,0.7758,0.7944,0.8356,0.8674,0.9006,0.937,0.9967,1.0301,1.0301,1.0238,0.9977,0.947,0.9268,0.863,0.7568,0.6954,0.6548,0.0,0.0,0.0,0.0,0.0,0.0,0.8348,0.0,0.8366,0.0,0.0,0.0,0.0,0.0,0.0,0.0,0.8306,0.0,0.0,0.0,0.0,0.0,0.0,0.0,0.0,0.0,0.0,0.0,0.5395,0.5395,0.5395,0.5395,0.5395,0.5395,0.5395,0.5395,0.5395,0.5395,0.5395,0.5395,0.5395,0.5429,0.5494,0.5566,0.5641,0.5684,0.5766,0.58,0.58,0.58,0.5752,0.5684,0.5749,0.5859,0.5993,0.5993,0.6129,0.63,0.63,0.6079,0.5772,0.562,0.5583,0.5624,0.5688,0.5817,0.5934,0.6062,0.6003,0.588,0.5752,0.565,0.5569,0.5433,0.5395,0.5419,0.5491,0.5562,0.5613,0.5698,0.5833,0.5897,0.5836,0.5876,0.5968,0.6139,0.6182,0.6205,0.6289,0.6377,0.6505,0.6695,0.6795,0.6996,0.7381,0.7303,0.7434,0.7928,0.8553,0.9065,0.9396,0.9983,1.0301,1.0301,1.0301,1.019,0.9961,0.9588,0.9139,0.8598,0.7705,0.7024,0.8911,0.0,0.0,0.0,0.0,0.0,0.0,0.0,0.0,0.0,0.0,0.0,0.0,0.0,0.0,0.0,0.0,0.0,0.0,0.0,0.0,0.0,0.0,0.0,0.0,0.0,0.0,0.0,0.0,0.5395,0.5395,0.5395,0.5395,0.5395,0.5395,0.5395,0.5395,0.5395,0.5395,0.5395,0.5395,0.5395,0.5399,0.5494,0.5545,0.5552,0.5654,0.5698,0.5698,0.5698,0.5637,0.5545,0.5545,0.5708,0.5947,0.5947,0.6091,0.63,0.63,0.6107,0.5823,0.5583,0.5603,0.5728,0.5833,0.5954,0.6115,0.6269,0.6199,0.6047,0.5854,0.5725,0.5617,0.544,0.5426,0.5487,0.5583,0.5654,0.5742,0.5844,0.6023,0.6167,0.6167,0.611,0.6132,0.6282,0.63,0.63,0.63,0.6354,0.6432,0.6583,0.6656,0.6824,0.7178,0.7064,0.7215,0.7757,0.8467,0.9033,0.9422,0.9945,1.0238,1.0301,1.0349,1.0355,1.0301,0.9838,0.9516,0.9301,0.8312,0.7563,0.0,0.0,0.0,0.9667,0.0,0.0,0.0,0.0,0.9463,0.0,0.0,0.0,0.0,0.0,0.0,0.0,0.0,0.0,0.0,0.0,0.0,0.0,0.0,0.0,0.0,0.0,0.0,0.0,0.5395,0.5395,0.5395,0.5395,0.5395,0.5395,0.5395,0.5395,0.5395,0.5395,0.5395,0.5395,0.5395,0.5395,0.5395,0.5399,0.5402,0.5402,0.5405,0.5409,0.5409,0.5409,0.5405,0.5402,0.5402,0.5566,0.581,0.581,0.6018,0.63,0.63,0.6156,0.5978,0.5837,0.5873,0.5998,0.5983,0.6132,0.6293,0.6296,0.6296,0.6221,0.5881,0.5796,0.5722,0.5463,0.5491,0.5603,0.5607,0.5795,0.5979,0.6001,0.6313,0.6575,0.6575,0.6425,0.6293,0.63,0.63,0.63,0.63,0.647,0.6602,0.6602,0.6768,0.698,0.7173,0.7188,0.7415,0.7957,0.8322,0.8748,0.929,0.976,1.0095,1.0301,1.0498,1.0498,1.0301,1.0027,0.9714,0.9374,0.8568,0.8107,0.0,0.0,0.9701,0.9701,0.0,0.0,0.0,0.0,0.0,0.0,0.0,0.0,0.0,0.0,0.0,0.0,0.0,0.0,0.0,0.0,0.0,0.0,0.0,0.0,0.0,0.0,0.0,0.0,0.5395,0.0,0.5395,0.5395,0.5395,0.5395,0.5395,0.5395,0.5395,0.5395,0.5395,0.5395,0.5395,0.5395,0.5395,0.5395,0.5395,0.5395,0.5395,0.5395,0.5395,0.5395,0.5395,0.5405,0.5491,0.5647,0.58,0.58,0.6015,0.6286,0.6142,0.6055,0.5988,0.585,0.5886,0.5993,0.5993,0.6139,0.63,0.63,0.63,0.6252,0.5988,0.5859,0.5776,0.5695,0.5637,0.5644,0.5819,0.5941,0.6079,0.6349,0.6505,0.6679,0.6949,0.693,0.6857,0.6714,0.6695,0.6695,0.6695,0.6753,0.6849,0.6988,0.7065,0.7234,0.7576,0.7678,0.7745,0.7805,0.8366,0.8813,0.9097,0.9674,1.0031,1.0095,1.0434,1.0461,1.0175,0.9991,0.9726,0.939,0.8896,0.8402,0.984,0.9928,0.0,1.0023,1.0023,0.0,1.0023,0.0,0.0,0.0,0.0,0.0,0.0,0.0,0.0,0.0,0.0,0.0,0.0,0.7987,0.0,0.0,0.0,0.0,0.0,0.0,0.0,0.5574,0.5574,0.5541,0.0,0.5471,0.5442,0.5395,0.5395,0.5395,0.5395,0.5395,0.5395,0.5395,0.5395,0.5395,0.5395,0.5395,0.5395,0.5395,0.5395,0.5395,0.5399,0.5453,0.5477,0.5491,0.5624,0.5752,0.5863,0.5863,0.6062,0.6286,0.6146,0.6112,0.6095,0.5996,0.603,0.6112,0.6112,0.6199,0.63,0.63,0.63,0.6246,0.6052,0.5937,0.5867,0.5813,0.5772,0.5796,0.5971,0.6052,0.6196,0.6542,0.6718,0.6949,0.735,0.7526,0.7503,0.7173,0.7115,0.7134,0.7207,0.7288,0.7407,0.7603,0.7695,0.7793,0.7956,0.8128,0.8147,0.799,0.8538,0.8958,0.9172,0.9706,1.0031,1.011,1.0313,1.0323,1.0098,0.9794,0.9538,0.9319,0.8967,0.8571]},{"header":{"parameterUnit":"m.s-1","parameterCategory":1,"la1":30.6,"la2":29.2853,"lo1":-89.7004,"lo2":-87.6739,"dy":0.0162,"dx":0.0183,"nx":112,"ny":82,"refTime":"2024-02-13T06:00:00:Z","depth":0,"parameterNumber":3,"parameterNumberName":"V-component_of_WINDS"},"data":[0.0,0.0,0.0,0.0,0.0,0.0,0.0,0.0,0.0,0.0,0.0,0.0,0.0,0.0,0.0,0.0,0.0,0.0,0.0,0.0,0.0,0.0,0.0,0.0,0.0,0.0,0.0,0.0,0.0,0.0,0.0,0.0,0.0,0.0,0.0,0.0,0.0,0.0,0.0,0.0,0.0,0.0,0.0,0.0,0.0,0.0,0.0,0.0,0.0,0.0,0.0,0.0,0.0,0.0,0.0,0.0,0.0,0.0,0.0,0.0,0.0,0.0,0.0,0.0,0.0,0.0,0.0,0.0,0.0,0.0,0.0,0.0,0.0,0.0,0.0,0.0,0.0,0.0,0.0,0.0,0.0,0.0,0.0,0.0,0.0,0.0,0.0,0.0,0.0,0.0,1.4666,1.539,1.6092,1.6545,1.6655,1.5954,1.5501,1.5494,0.0,0.0,0.0,0.0,0.0,0.0,0.0,0.0,0.0,0.0,0.0,0.0,0.0,0.0,0.0,0.0,0.0,0.0,0.0,0.0,0.0,0.0,0.0,0.0,0.0,0.0,0.0,0.0,0.0,0.0,0.0,0.0,0.0,0.0,0.0,0.0,0.0,0.0,0.0,0.0,0.0,0.0,0.0,0.0,0.0,0.0,0.0,0.0,0.0,0.0,0.0,0.0,0.0,0.0,0.0,0.0,0.0,0.0,0.0,0.0,0.0,0.0,0.0,0.0,0.0,0.0,0.0,0.0,0.0,0.0,0.0,0.0,0.0,0.0,0.0,0.0,0.0,0.0,0.0,0.0,0.0,0.0,0.0,0.0,0.0,0.0,0.0,0.0,0.0,0.0,0.0,0.0,0.0,0.0,0.0,0.0,0.0,0.0,0.0,0.0,0.0,0.0,0.0,0.0,1.5715,1.7,1.7298,1.7417,1.7423,1.6801,1.6138,1.5549,0.0,0.0,0.0,0.0,0.0,0.0,0.0,0.0,0.0,0.0,0.0,0.0,0.0,0.0,0.0,0.0,0.0,0.0,0.0,0.0,0.0,0.0,0.0,0.0,0.0,0.0,0.0,0.0,0.0,0.0,0.0,0.0,0.0,0.0,0.0,0.0,0.0,0.0,0.0,0.0,0.0,0.0,0.0,0.0,0.0,0.0,0.0,0.0,0.0,0.0,0.0,0.0,0.0,0.0,0.0,0.0,0.0,0.0,0.0,0.0,0.0,0.0,0.0,0.0,0.0,0.0,0.0,0.0,0.0,0.0,0.0,0.0,0.0,0.0,0.0,0.0,0.0,0.0,0.0,0.0,0.0,0.0,0.0,0.0,0.0,0.0,0.0,0.0,0.0,0.0,0.0,0.0,0.0,0.0,0.0,0.0,0.0,0.0,0.0,0.0,0.0,0.0,0.0,1.5519,1.6364,1.749,1.7981,1.8271,1.83,1.7251,1.6486,1.6223,1.5064,0.0,0.0,0.0,0.0,0.0,0.0,0.0,0.0,0.0,0.0,0.0,0.0,0.0,0.0,0.0,0.0,0.0,0.0,0.0,0.0,0.0,0.0,0.0,0.0,0.0,0.0,0.0,0.0,0.0,0.0,0.0,0.0,0.0,0.0,0.0,0.0,0.0,0.0,0.0,0.0,0.0,0.0,0.0,0.0,0.0,0.0,0.0,0.0,0.0,0.0,0.0,0.0,0.0,0.0,0.0,0.0,0.0,0.0,0.0,0.0,0.0,0.0,0.0,0.0,0.0,0.0,0.0,0.0,0.0,0.0,0.0,0.0,0.0,0.0,0.0,0.0,0.0,0.0,0.0,0.0,0.0,0.0,0.0,0.0,0.0,0.0,0.0,0.0,0.0,0.0,0.0,0.0,0.0,0.0,0.0,0.0,0.0,0.0,0.0,0.0,0.0,0.0,1.6143,1.684,1.787,1.8485,1.8852,1.8927,1.7505,1.6667,1.6787,1.5305,0.0,0.0,0.0,0.0,0.0,0.0,0.0,0.0,0.0,0.0,0.0,0.0,0.0,0.0,0.0,0.0,0.0,0.0,0.0,0.0,0.0,0.0,0.0,0.0,0.0,0.0,0.0,0.0,0.0,0.0,0.0,0.0,0.0,0.0,0.0,0.0,0.0,0.0,0.0,0.0,0.0,0.0,0.0,0.0,0.0,0.0,0.0,0.0,0.0,0.0,0.0,0.0,0.0,0.0,0.0,0.0,0.0,0.0,0.0,0.0,0.0,0.0,0.0,0.0,0.0,0.0,0.0,0.0,0.0,0.0,0.0,0.0,0.0,0.0,0.0,0.0,0.0,0.0,0.0,0.0,0.0,0.0,0.0,0.0,0.0,0.0,0.0,0.0,0.0,0.0,0.0,0.0,0.0,0.0,0.0,0.0,0.0,0.0,0.0,0.0,0.0,0.0,1.6605,1.7161,1.8666,1.886,1.8927,1.8984,1.7577,1.6726,1.6809,1.5342,0.0,0.0,0.0,0.0,0.0,0.0,0.0,0.0,0.0,0.0,0.0,0.0,0.0,0.0,0.0,0.0,0.0,0.0,0.0,0.0,0.0,0.0,0.0,0.0,0.0,0.0,0.0,0.0,0.0,0.0,0.0,0.0,0.0,0.0,0.0,0.0,0.0,0.0,0.0,0.0,0.0,0.0,0.0,0.0,0.0,0.0,0.0,0.0,0.0,0.0,0.0,0.0,0.0,0.0,0.0,0.0,0.0,0.0,0.0,0.0,0.0,0.0,0.0,0.0,0.0,0.0,0.0,0.0,0.0,0.0,0.0,0.0,0.0,0.0,0.0,0.0,0.0,0.0,0.0,0.0,0.0,0.0,0.0,0.0,0.0,0.0,0.0,0.0,0.0,0.0,0.0,0.0,0.0,0.0,0.0,0.0,0.0,0.0,0.0,0.0,0.0,0.0,1.6697,1.7274,0.0,1.8992,1.8785,1.835,1.733,1.6515,1.6071,0.0,0.0,0.0,0.0,0.0,0.0,0.0,0.0,0.0,0.0,0.0,0.0,0.0,0.0,0.0,0.0,0.0,0.0,0.0,0.0,0.0,0.0,0.0,0.0,0.0,0.0,0.0,0.0,0.0,0.0,0.0,0.0,0.0,0.0,0.0,0.0,0.0,0.0,0.0,0.0,0.0,0.0,0.0,0.0,0.0,0.0,0.0,0.0,0.0,0.0,0.0,0.0,0.0,0.0,0.0,0.0,0.0,0.0,0.0,0.0,0.0,0.0,0.0,0.0,0.0,0.0,0.0,0.0,0.0,0.0,0.0,0.0,0.0,0.0,0.0,0.0,0.0,0.0,0.0,0.0,0.0,0.0,0.0,0.0,0.0,0.0,0.0,0.0,0.0,0.0,0.0,0.0,0.0,0.0,0.0,0.0,0.0,0.0,0.0,0.0,0.0,0.0,1.6661,1.7009,1.7644,0.0,1.9095,1.8757,1.8006,1.7216,1.644,1.5653,0.0,0.0,0.0,0.0,0.0,0.0,0.0,0.0,0.0,0.0,0.0,0.0,0.0,0.0,0.0,0.0,0.0,0.0,0.0,0.0,0.0,0.0,0.0,0.0,0.0,0.0,0.0,0.0,0.0,0.0,0.0,0.0,0.0,0.0,0.0,0.0,0.0,0.0,0.0,0.0,0.0,0.0,0.0,0.0,0.0,0.0,0.0,0.0,0.0,0.0,0.0,0.0,0.0,0.0,0.0,0.0,0.0,0.0,0.0,0.0,0.0,0.0,0.0,0.0,0.0,0.0,0.0,0.0,0.0,0.0,0.0,0.0,0.0,0.0,0.0,0.0,0.0,0.0,0.0,0.0,0.0,0.0,0.0,0.0,0.0,0.0,0.0,0.0,0.0,0.0,0.0,0.0,0.0,0.0,0.0,0.0,0.0,0.0,0.0,0.0,0.0,0.0,1.6804,1.7596,1.8378,1.9123,1.9211,1.8864,1.8055,1.7325,1.6516,0.0,0.0,0.0,0.0,0.0,0.0,0.0,0.0,0.0,0.0,0.0,0.0,0.0,0.0,0.0,0.0,0.0,0.0,0.0,0.0,0.0,0.0,0.0,0.0,0.0,0.0,0.0,0.0,0.0,0.0,0.0,0.0,0.0,0.0,0.0,0.0,0.0,0.0,0.0,0.0,0.0,0.0,0.0,0.0,0.0,0.0,0.0,0.0,0.0,0.0,0.0,0.0,0.0,0.0,0.0,0.0,0.0,0.0,0.0,0.0,0.0,0.0,0.0,0.0,0.0,0.0,0.0,0.0,0.0,0.0,0.0,0.0,0.0,0.0,0.0,0.0,0.0,0.0,0.0,0.0,0.0,0.0,0.0,0.0,0.0,0.0,0.0,0.0,0.0,0.0,0.0,0.0,0.0,0.0,0.0,0.0,0.0,0.0,0.0,0.0,0.0,0.0,0.0,1.6806,1.7606,1.8393,1.9193,1.9231,1.8642,1.7275,1.6958,1.6267,1.4907,0.0,0.0,0.0,0.0,0.0,0.0,0.0,0.0,0.0,0.0,0.0,0.0,0.0,0.0,0.0,0.0,0.0,0.0,0.0,0.0,0.0,0.0,0.0,0.0,0.0,0.0,0.0,0.0,0.0,0.0,0.0,0.0,0.0,0.0,0.0,0.0,0.0,0.0,0.0,0.0,0.0,0.0,0.0,0.0,0.0,0.0,0.0,0.0,0.0,0.0,0.0,0.0,0.0,0.0,0.0,0.0,0.0,0.0,0.0,0.0,0.0,0.0,0.0,0.0,0.0,0.0,0.0,0.0,0.0,0.0,0.0,0.0,0.0,0.0,0.0,0.0,0.0,0.0,0.0,0.0,0.0,0.0,0.0,0.0,0.0,0.0,0.0,0.0,0.0,0.0,0.0,0.0,0.0,0.0,0.0,0.0,0.0,0.0,0.0,0.0,0.0,0.0,1.7315,1.8089,1.8756,1.9259,1.9252,1.8582,1.6972,1.6826,1.6134,1.4566,0.0,0.0,0.0,0.0,0.0,0.0,0.0,0.0,0.0,0.0,0.0,0.0,0.0,0.0,0.0,0.0,0.0,0.0,0.0,0.0,0.0,0.0,0.0,0.0,0.0,0.0,0.0,0.0,0.0,0.0,0.0,0.0,0.0,0.0,0.0,0.0,0.0,0.0,0.0,0.0,0.0,0.0,0.0,0.0,0.0,0.0,0.0,0.0,0.0,0.0,0.0,0.0,0.0,0.0,0.0,0.0,0.0,0.0,0.0,0.0,0.0,0.0,0.0,0.0,0.0,0.0,0.0,0.0,0.0,0.0,0.0,0.0,0.0,0.0,0.0,0.0,0.0,0.0,0.0,0.0,0.0,0.0,0.0,0.0,0.0,0.0,0.0,0.0,0.0,0.0,0.0,0.0,0.0,0.0,0.0,0.0,0.0,0.0,0.0,0.0,0.0,0.0,1.8093,1.8798,1.9297,1.9297,1.9295,1.8682,1.7123,1.6877,1.6178,1.4718,0.0,0.0,0.0,0.0,0.0,0.0,0.0,0.0,0.0,0.0,0.0,0.0,0.0,0.0,0.0,0.0,0.0,0.0,0.0,0.0,0.0,0.0,0.0,0.0,0.0,0.0,0.0,0.0,0.0,0.0,0.0,0.0,0.0,0.0,0.0,0.0,0.0,0.0,0.0,0.0,0.0,0.0,0.0,0.0,0.0,0.0,0.0,0.0,0.0,0.0,0.0,0.0,0.0,0.0,0.0,0.0,0.0,0.0,0.0,0.0,1.5729,0.0,0.0,0.0,0.0,0.0,0.0,0.0,0.0,0.0,0.0,0.0,0.0,0.0,0.0,0.0,0.0,0.0,0.0,0.0,0.0,0.0,0.0,0.0,0.0,0.0,0.0,0.0,0.0,0.0,0.0,0.0,0.0,0.0,0.0,0.0,0.0,0.0,0.0,0.0,0.0,0.0,1.8093,1.8798,1.9297,1.9297,1.9295,1.8872,1.7851,1.7173,1.6638,1.6235,1.5663,0.0,0.0,0.0,0.0,0.0,0.0,0.0,0.0,0.0,0.0,0.0,0.0,0.0,0.0,0.0,0.0,0.0,0.0,0.0,0.0,0.0,0.0,0.0,0.0,0.0,0.0,0.0,0.0,0.0,0.0,0.0,0.0,0.0,0.0,0.0,0.0,0.0,0.0,0.0,0.0,0.0,0.0,0.0,0.0,0.0,0.0,0.0,0.0,0.0,0.0,0.0,0.0,0.0,0.0,0.0,0.0,0.0,0.0,0.0,0.0,1.6508,0.0,0.0,0.0,0.0,0.0,0.0,0.0,0.0,0.0,0.0,0.0,0.0,0.0,0.0,0.0,0.0,0.0,0.0,0.0,0.0,0.0,0.0,0.0,0.0,0.0,0.0,0.0,0.0,0.0,0.0,0.0,0.0,0.0,0.0,0.0,0.0,0.0,0.0,0.0,0.0,1.8687,1.9036,1.9297,1.9297,1.9272,1.8914,1.8074,1.7584,1.715,1.6733,1.6337,0.0,0.0,0.0,0.0,0.0,0.0,0.0,0.0,0.0,0.0,0.0,0.0,0.0,0.0,0.0,0.0,0.0,0.0,0.0,0.0,0.0,0.0,0.0,0.0,0.0,0.0,0.0,0.0,0.0,0.0,0.0,0.0,0.0,0.0,0.0,0.0,0.0,0.0,0.0,0.0,0.0,0.0,0.0,0.0,0.0,0.0,0.0,0.0,0.0,0.0,0.0,0.0,0.0,1.7773,1.7812,1.7755,1.7755,1.8126,1.872,1.8034,1.759,1.7315,1.7165,0.0,0.0,0.0,0.0,0.0,0.0,0.0,0.0,0.0,0.0,0.0,0.0,0.0,0.0,0.0,0.0,0.0,0.0,0.0,0.0,0.0,0.0,0.0,0.0,1.9297,1.9297,0.0,0.0,0.0,0.0,0.0,0.0,0.0,0.0,0.0,0.0,0.0,0.0,1.9297,1.9297,1.9297,1.9297,1.9256,1.8953,1.8286,1.8031,1.7698,1.7157,1.6987,1.7273,0.0,0.0,0.0,0.0,0.0,0.0,0.0,0.0,0.0,0.0,0.0,0.0,0.0,0.0,0.0,0.0,0.0,0.0,0.0,0.0,0.0,0.0,0.0,0.0,0.0,0.0,0.0,0.0,0.0,0.0,0.0,0.0,2.0093,2.0016,0.0,0.0,0.0,0.0,0.0,0.0,0.0,0.0,0.0,0.0,0.0,0.0,0.0,1.7522,1.8142,1.8779,1.9446,2.0127,2.0827,2.1156,2.1151,2.1151,2.1206,2.1317,2.1206,0.0,1.8926,1.8221,0.0,0.0,0.0,0.0,0.0,0.0,0.0,0.0,0.0,0.0,0.0,0.0,0.0,0.0,0.0,0.0,0.0,0.0,0.0,0.0,0.0,0.0,1.9168,1.9279,1.9297,1.9297,0.0,1.9297,1.9297,1.9297,1.9297,0.0,0.0,0.0,0.0,0.0,0.0,0.0,1.9297,1.9297,1.9297,1.9297,1.9287,1.9242,1.9132,1.8433,1.8201,1.8754,1.8123,1.8103,1.8914,1.8886,0.0,0.0,0.0,0.0,0.0,0.0,0.0,0.0,0.0,0.0,0.0,0.0,0.0,0.0,0.0,0.0,0.0,0.0,0.0,0.0,0.0,0.0,0.0,0.0,0.0,0.0,0.0,0.0,0.0,2.0112,2.0083,2.0006,2.003,1.9907,0.0,0.0,0.0,0.0,0.0,0.0,0.0,0.0,0.0,1.9996,1.9977,2.006,2.0322,2.0632,2.0959,2.1287,2.1632,2.1798,2.1798,2.1798,2.1798,2.1798,2.1798,2.1372,2.0637,1.9799,1.9232,1.8896,0.0,0.0,0.0,0.0,1.8413,1.8384,1.8283,1.824,0.0,1.7722,0.0,0.0,0.0,0.0,0.0,0.0,0.0,0.0,0.0,0.0,2.0097,2.0582,2.0711,2.0711,2.0711,2.0711,2.0435,0.0,1.9297,1.9297,1.9297,0.0,0.0,0.0,0.0,2.0711,2.0711,2.0711,2.0527,2.002,1.9973,1.9788,1.9341,1.8917,1.8804,1.9136,1.879,1.8733,1.9097,1.9035,1.9178,0.0,0.0,0.0,0.0,0.0,0.0,0.0,0.0,0.0,0.0,0.0,0.0,0.0,0.0,0.0,0.0,0.0,0.0,0.0,0.0,0.0,0.0,0.0,0.0,0.0,0.0,0.0,0.0,2.0068,2.0051,1.9973,1.9971,1.9971,0.0,0.0,0.0,0.0,0.0,0.0,2.1343,2.1318,2.1534,2.207,2.2088,2.2026,2.1902,2.2103,2.2172,2.2113,2.2321,2.2418,2.2418,2.2418,2.2418,2.2418,2.2418,2.2308,2.2047,2.1176,2.0541,2.0099,2.0099,2.0133,2.0178,2.01,2.0099,2.0033,1.972,1.9605,1.9473,1.8665,1.8552,1.8753,1.8977,0.0,0.0,0.0,0.0,2.0087,2.068,2.0823,2.0992,2.1647,2.1798,2.1798,2.1798,2.1798,2.1427,0.0,1.994,1.994,1.994,0.0,0.0,0.0,0.0,2.1798,2.1798,2.1798,2.1551,2.09,2.0623,2.0258,1.9668,1.9364,1.9231,1.9231,1.915,1.9103,1.9109,1.919,1.948,1.9954,0.0,0.0,0.0,0.0,0.0,0.0,0.0,0.0,0.0,0.0,0.0,0.0,0.0,0.0,0.0,0.0,0.0,0.0,0.0,0.0,0.0,0.0,0.0,0.0,0.0,0.0,0.0,0.0,0.0,1.9911,1.9906,0.0,0.0,0.0,0.0,2.1032,2.1686,2.21,2.2139,2.2077,2.2051,2.2107,2.2042,2.1968,2.19,2.2655,2.3009,2.2955,2.3712,2.4084,2.4084,2.4084,2.4084,2.4084,2.4084,2.3657,2.2878,2.2065,2.1709,2.1678,2.1678,2.1736,2.1775,2.1709,2.1678,2.1559,2.0729,2.0433,2.0309,1.9495,1.9767,2.0529,2.1368,2.1647,0.0,0.0,2.1666,2.1684,2.1721,2.1721,2.1739,2.1798,2.1798,2.1798,2.1798,2.1798,2.178,0.0,2.1666,2.1666,2.1666,0.0,2.1721,2.1721,2.1776,2.1798,2.1798,2.1798,2.1776,2.1739,2.0992,2.0484,2.0448,1.9741,1.9282,1.9282,1.917,1.9105,1.9099,1.9655,1.9941,1.9903,2.0465,0.0,0.0,0.0,0.0,0.0,0.0,0.0,0.0,0.0,0.0,0.0,0.0,0.0,0.0,0.0,0.0,0.0,0.0,0.0,0.0,0.0,0.0,0.0,0.0,0.0,0.0,0.0,0.0,2.0612,2.1051,0.0,2.137,2.1635,2.1809,2.1809,2.1975,2.2301,2.2829,2.2781,2.2994,2.3557,2.3558,2.3506,2.3453,2.3721,2.3838,2.3786,2.4061,2.4194,2.4194,2.4194,2.4194,2.4194,2.4194,2.4043,2.3749,2.346,2.2734,2.1803,2.1803,2.1842,2.19,2.1815,2.1803,2.1762,2.1435,2.1349,2.1294,2.1005,2.1096,2.1386,2.1702,2.1798,2.1798,2.1798,2.1798,2.1923,2.2446,2.257,2.2703,2.3222,2.3332,2.3332,2.3332,2.3332,2.3332,2.3332,2.251,2.1798,2.1798,2.223,2.257,2.257,2.3015,2.3332,2.3332,2.3332,2.3148,2.263,2.229,2.1662,2.0598,2.0242,1.9853,1.9329,1.9206,1.916,1.9101,1.9682,2.0178,2.0531,2.1135,2.1627,0.0,0.0,0.0,0.0,0.0,0.0,0.0,0.0,0.0,0.0,0.0,0.0,0.0,0.0,0.0,0.0,0.0,0.0,0.0,0.0,0.0,0.0,0.0,0.0,0.0,0.0,2.1448,2.1386,2.1813,2.2137,2.2126,2.2357,2.251,2.251,2.2663,2.3019,2.3546,2.3534,2.3761,2.4358,2.4376,2.4335,2.4271,2.4271,2.4247,2.4194,2.4194,2.4194,2.4194,2.4194,2.4194,2.4194,2.4194,2.4199,2.4195,2.4199,2.3575,2.2609,2.2614,2.2637,2.2668,2.2632,2.2605,2.2564,2.2294,2.2033,2.1831,2.212,2.2194,2.2267,2.2528,2.2602,2.2602,2.2602,2.2602,2.2726,2.3267,2.3396,2.3543,2.4061,2.4194,2.4194,2.4194,2.4194,2.4194,2.4194,2.3332,2.2602,2.2602,2.3052,2.3396,2.3396,2.3859,2.4194,2.4194,2.4194,2.4006,2.3469,2.3153,2.2547,2.1442,2.1098,2.0588,1.9767,1.9646,1.9563,1.9507,2.0087,2.0708,2.1325,2.1855,2.2342,2.2764,0.0,0.0,0.0,0.0,0.0,0.0,0.0,0.0,0.0,0.0,0.0,0.0,0.0,0.0,0.0,0.0,0.0,0.0,0.0,0.0,0.0,0.0,0.0,2.1127,2.1775,2.22,2.2141,2.2096,2.2072,2.207,2.2712,2.315,2.315,2.385,2.4289,2.4289,2.4326,2.4344,2.4344,2.4363,2.434,2.4275,2.4275,2.4269,2.4263,2.4263,2.4263,2.4263,2.425,2.425,2.425,2.4213,2.42,2.4196,2.4195,2.4205,2.4196,2.419,2.4194,2.4194,2.4194,2.4194,2.408,2.3304,2.2538,2.1996,2.2772,2.3043,2.3171,2.3951,2.4194,2.4194,2.4194,2.4194,2.4194,2.4194,2.4194,2.4194,2.4194,2.4194,2.4194,2.4194,2.4194,2.4194,2.4194,2.4194,2.4194,2.4194,2.4194,2.4194,2.4194,2.4194,0.0,2.4194,2.4194,2.4194,2.4194,2.3506,2.3024,2.3006,2.2285,2.1478,2.0598,2.0477,2.0409,2.0335,2.0924,2.1564,2.2216,2.2612,2.2771,2.2699,0.0,0.0,0.0,0.0,0.0,0.0,0.0,0.0,0.0,0.0,0.0,0.0,0.0,0.0,0.0,0.0,0.0,0.0,0.0,0.0,0.0,0.0,2.2462,2.19,2.2458,2.2905,2.2819,2.3315,2.3673,2.3664,2.3854,2.3975,2.3975,2.4137,2.422,2.422,2.4785,2.5116,2.5174,2.5735,2.6033,2.6,2.6,2.5998,2.5946,2.5946,2.5946,2.591,2.5333,2.5062,2.5049,2.4448,2.421,2.4201,2.4247,2.4261,2.4266,2.4223,2.4194,2.4194,2.4194,2.4194,2.4176,2.3951,2.3731,2.3589,2.3804,2.3878,2.3914,2.4135,2.4194,2.4194,2.4194,2.4194,2.4194,2.4194,2.4194,2.4194,2.4194,2.4194,2.4194,2.4194,2.4194,2.4194,2.4194,2.4194,2.4194,2.4194,2.4194,2.4194,2.4194,2.4194,0.0,2.4194,2.4194,2.4194,2.4194,2.4006,2.3634,2.3043,2.2809,2.2318,2.1496,2.1389,2.1297,2.1166,2.1844,2.2434,2.2912,2.2935,2.285,0.0,0.0,0.0,0.0,0.0,0.0,0.0,0.0,0.0,0.0,0.0,0.0,0.0,0.0,0.0,0.0,0.0,0.0,0.0,0.0,0.0,0.0,2.3038,2.3204,2.3041,2.3382,2.3649,2.3564,2.3962,2.4257,2.4257,2.4257,2.4257,2.4257,2.4228,2.4343,2.4674,2.5151,2.5573,2.5948,2.6415,2.6667,2.6667,2.6667,2.6633,2.6607,2.6607,2.6607,2.6589,2.6122,2.5733,2.5414,2.4956,2.4598,2.4325,2.4344,2.4367,0.0,0.0,0.0,0.0,0.0,2.4194,2.4194,2.4194,2.4194,2.4194,2.4194,2.4194,2.4194,2.4194,2.4194,2.4194,2.4194,2.4194,2.4194,2.4194,2.4194,2.4194,2.4194,2.4194,2.4194,2.4194,2.4194,2.4194,2.4194,2.4194,0.0,2.4194,2.4194,2.4194,2.4194,2.4194,2.4194,2.4194,2.4194,2.4194,2.4194,2.4194,2.4006,2.3543,2.3506,0.0,0.0,0.0,2.2123,2.1964,2.2663,0.0,0.0,0.0,2.302,2.2874,0.0,0.0,0.0,2.238,2.2296,0.0,0.0,0.0,0.0,0.0,0.0,0.0,0.0,0.0,0.0,0.0,0.0,0.0,0.0,0.0,0.0,2.3508,2.3702,2.434,2.4506,2.4501,2.4348,2.4344,2.4348,2.4346,2.425,2.425,2.4323,2.4341,2.469,2.5485,0.0,0.0,0.0,0.0,2.6864,2.6864,2.6864,2.6864,2.6864,2.6864,2.6864,2.6864,2.6772,2.6387,2.5767,2.5588,2.5176,2.4625,2.448,2.4441,2.4495,2.4361,2.4271,2.4206,2.4195,2.4199,2.4199,2.4194,0.0,0.0,2.4194,2.4194,2.4194,2.4194,2.4194,2.4194,2.4194,2.4194,2.4194,2.4194,2.4194,2.4194,2.4194,2.4194,2.4194,2.4194,2.4194,2.4194,2.4194,2.4194,2.4194,2.4194,2.4194,2.4194,2.4194,2.4194,2.4194,2.4194,2.4194,2.4194,2.4194,0.0,0.0,2.4194,2.4194,2.3896,2.3171,2.307,2.2962,2.2778,2.3373,2.3646,2.3522,2.3336,2.3199,2.3113,2.2861,2.2718,2.2692,2.2432,2.231,0.0,0.0,0.0,0.0,0.0,0.0,0.0,0.0,0.0,0.0,0.0,0.0,0.0,0.0,0.0,2.4319,2.485,2.5171,2.5263,2.577,2.5904,2.5242,2.5169,2.5164,2.5177,2.458,2.447,2.5117,2.5172,2.5521,2.6319,2.6985,2.7407,2.7554,2.8203,2.8546,2.8546,2.8546,2.8546,2.8546,0.0,0.0,2.851,2.7855,2.7526,2.7359,2.6055,2.5481,2.5429,2.4744,2.4522,2.4578,2.4429,2.4339,2.4271,2.4224,2.4205,2.4201,2.4204,2.4194,2.4194,2.4194,2.4194,2.4194,2.4194,2.4194,0.0,2.4194,2.4194,2.4194,2.4194,2.4194,2.4194,2.4194,2.4194,2.4194,2.4194,2.4194,2.4194,2.4194,2.4194,2.4194,2.4194,2.4194,2.4194,2.4194,2.4194,2.4194,2.4194,2.4194,2.4194,2.4194,2.4194,2.4194,2.4194,2.4194,2.4135,2.3988,2.3908,2.3846,2.3812,2.3785,2.3748,2.3662,2.3515,2.3354,2.3187,2.3026,2.2868,2.2692,2.248,2.2387,0.0,0.0,0.0,0.0,0.0,0.0,0.0,0.0,0.0,0.0,0.0,2.3196,2.3543,0.0,2.4357,2.5126,2.5424,2.5675,2.6057,2.6736,2.6906,2.6104,2.5993,2.5993,2.5993,2.564,2.5566,2.5975,2.5993,2.6361,2.7163,2.7585,2.797,2.8393,2.8785,2.8999,2.8999,2.8999,2.8999,2.8999,2.8999,2.8999,2.8987,2.8583,2.8219,2.785,2.7092,2.6346,2.5643,2.4901,2.4603,2.4599,2.4568,2.4495,2.4389,2.4312,2.4275,2.4252,2.4205,2.4205,2.4205,2.4199,2.4194,2.4194,2.4194,2.4194,2.4194,2.4194,2.4194,2.4194,2.4194,2.4194,2.4194,2.4194,2.4194,2.4194,2.4194,2.4194,2.4194,2.4194,2.4194,2.4194,2.4194,2.4194,2.4194,2.4194,2.4194,2.4194,2.4194,2.4194,2.4194,2.4194,2.4194,2.4194,2.4194,2.4194,2.4194,2.4194,2.417,2.4123,2.4099,2.4001,2.3891,2.374,2.3658,2.3521,2.3348,2.3217,2.3052,2.29,2.2731,2.2569,0.0,0.0,0.0,0.0,0.0,0.0,0.0,0.0,2.3053,2.2933,2.3439,2.3888,2.3778,2.426,2.492,2.5669,2.5746,2.6005,2.6812,2.7577,2.7787,2.7139,2.6937,2.6827,2.6827,2.6699,2.6662,2.6827,2.6827,2.7181,2.7989,2.8026,2.8338,2.8987,2.8999,2.8999,2.8999,2.8999,2.8999,2.8999,2.8999,2.8999,2.8999,2.8999,2.8672,2.8132,2.8054,2.7226,2.5889,2.536,2.5028,2.4862,2.4913,2.4779,2.4519,2.4442,2.4384,2.4339,2.4266,2.4224,2.4229,2.42,2.4204,2.4204,2.4194,2.4194,2.4194,2.4194,2.4194,2.4194,2.4194,2.4194,2.4194,2.4194,2.4194,2.4194,2.4194,2.4194,2.4194,2.4194,2.4194,2.4194,2.4194,2.4194,2.4194,2.4194,2.4194,2.4194,2.4194,2.4194,2.4194,2.4194,2.4194,2.4194,2.4194,2.4194,2.4194,2.4194,2.4194,2.4175,2.4113,2.4103,2.4021,2.3853,2.3774,2.3651,2.3544,2.3412,2.3283,2.3144,2.3039,2.279,2.5207,2.4644,2.3894,2.3018,2.3336,2.3827,0.0,0.0,2.4803,2.4713,2.4692,2.4669,2.4658,2.4636,2.4852,2.5589,2.6185,2.6847,2.764,2.8408,2.8822,2.8748,2.8093,2.7664,2.7664,2.7016,2.6906,2.7609,2.7664,2.8026,2.8822,2.8877,2.8913,2.8999,2.8999,2.8999,2.8999,2.8999,2.8999,2.8999,2.8999,2.8999,2.8999,2.8999,2.899,2.8929,2.8336,2.7592,2.6757,2.6758,2.6353,2.5756,2.576,2.5327,2.4664,2.4547,2.4479,2.4474,2.4407,2.4339,2.4275,2.4229,2.4192,2.4205,2.4204,2.4194,2.4194,2.4194,2.4194,2.4194,2.4194,2.4194,2.4194,2.4194,2.4194,2.4194,2.4194,2.4194,2.4194,2.4194,2.4194,2.4194,2.4194,2.4194,2.4194,2.4194,2.4194,2.4194,2.4194,2.4194,2.4194,2.4194,2.4194,2.4194,2.4194,2.4194,2.4194,2.4194,2.4194,2.4208,2.4185,2.4123,2.4089,2.4074,2.3886,2.3758,2.3684,2.3606,2.3471,2.3277,2.3259,2.3034,2.531,2.5058,0.0,0.0,2.4482,2.4675,2.4628,2.4875,2.5082,2.5017,2.4896,2.4809,2.4806,2.4695,2.4848,0.0,2.6264,2.6971,2.7782,2.8531,2.8999,2.8999,2.8693,2.8497,2.8497,2.818,2.8143,2.8479,2.8497,2.8644,2.8987,2.8999,2.8999,2.8999,2.8999,2.8999,2.8999,2.8999,2.8999,2.8999,2.8999,2.8999,2.8999,2.8999,2.904,2.9058,2.8307,2.7819,2.7517,2.7106,2.6488,2.5787,2.587,2.5426,2.4749,2.4657,2.4623,2.4605,2.4532,2.4468,2.4402,2.4344,2.4266,2.4196,2.4196,2.4195,2.4194,2.4194,2.4194,2.4194,2.4194,2.4194,2.4194,2.4194,2.4194,2.4194,2.4194,2.4194,2.4194,2.4194,2.4194,2.4194,2.4194,2.4194,2.4194,2.4194,2.4194,2.4194,2.4194,2.4194,2.4194,2.4194,2.4194,2.4194,2.4194,2.4194,2.4194,2.4194,2.4194,2.4194,2.4194,2.417,2.4146,2.4099,2.4016,2.3917,2.3816,2.4265,2.4389,2.4236,2.4236,2.4064,2.5305,0.0,0.0,2.5297,2.5257,2.5225,2.5206,2.515,2.5114,2.5047,2.4947,2.4842,2.4824,2.4715,2.486,2.5585,2.6254,2.6966,2.7761,2.852,2.8999,2.8999,2.8999,2.8999,2.8999,2.8999,2.8999,2.8999,2.8999,2.9097,2.9317,2.9335,2.9427,2.9647,2.9653,2.9555,2.9335,2.9335,2.9225,2.8999,2.8999,2.8999,2.8999,2.8999,2.9034,2.9043,2.8471,2.827,2.8292,2.7769,2.6976,2.6064,2.6194,2.5657,2.4817,2.4798,2.4761,2.4729,2.466,2.4619,2.4536,2.4487,2.4384,2.4284,2.4229,2.421,2.4209,2.4194,2.4194,2.4194,2.4194,2.4194,2.4194,2.4194,2.4194,2.4194,2.4194,2.4194,2.4194,2.4209,2.419,2.4214,2.4228,2.4233,2.4228,2.4195,2.419,2.4204,2.4194,2.4194,2.4194,2.4194,2.4194,2.4194,2.4194,2.4194,2.4194,2.4194,2.4194,2.4194,2.4194,2.4194,2.4175,2.4136,2.4328,2.4375,2.4299,2.5079,2.5403,2.5292,2.5269,2.5147,0.0,0.0,2.53,2.5297,2.5309,2.5288,2.5208,2.5207,2.5187,2.5114,2.5047,2.4971,2.4917,2.4798,2.4918,2.5592,2.6267,2.6956,2.7699,2.8497,2.8999,2.8999,2.8999,2.8999,0.0,2.8999,2.8999,2.8999,2.8999,2.9335,3.0118,3.0167,3.0522,3.1299,3.1335,3.095,3.0173,3.0167,2.9763,2.8999,2.8999,2.8999,2.8999,2.8999,2.8999,2.9011,2.9043,2.9097,2.9163,2.9212,2.8332,2.698,2.7044,2.6181,2.4895,2.4967,2.4903,2.4809,2.4787,2.4761,2.4684,2.4623,2.4545,2.4474,2.4344,2.4257,2.421,2.4204,2.4194,2.4194,2.4194,2.4194,2.4194,2.4194,2.4194,2.4194,2.4194,2.4194,2.4204,2.4192,2.4201,2.4215,2.4298,2.4307,2.4271,2.4206,2.4201,2.4201,2.4199,2.4194,2.4194,2.4194,2.4194,2.4194,2.4194,2.4194,2.4194,2.4194,2.4194,2.4194,2.4194,2.4194,2.419,2.4208,2.4902,2.5262,2.5262,2.6003,2.6326,2.6252,2.6191,2.6116,0.0,0.0,2.5303,2.5295,2.5302,2.5284,2.5277,2.5226,2.5186,2.5165,2.5082,2.4979,2.4905,2.4783,2.4743,2.4882,2.5468,2.6184,2.6964,2.7712,2.8405,2.8932,2.8999,0.0,0.0,0.0,0.0,2.8999,2.9488,2.991,3.0185,3.0705,3.1115,3.139,3.139,3.1262,3.1005,3.0467,3.0063,2.9782,2.9262,2.8999,2.8999,2.8999,2.8999,2.9005,2.9079,2.9106,2.9134,2.9251,2.8399,2.7009,2.7128,2.6272,2.4977,2.5035,2.5063,2.5057,2.4963,2.4867,2.4768,2.4738,2.4635,2.4488,2.4446,2.4321,2.4196,2.4201,2.4195,2.4199,2.4209,2.4196,2.4205,2.4257,2.4266,2.4266,2.4266,2.4266,2.4271,2.4266,2.4294,2.4339,2.4358,2.4376,2.433,2.4215,2.4196,2.4209,2.4194,2.4194,2.4194,2.4194,2.4194,2.4194,2.4194,2.4194,2.4194,2.4194,2.4194,2.4194,2.4194,2.4708,2.5007,2.5007,2.5753,2.6164,2.6164,2.6955,2.7282,2.7233,2.7204,2.7112,2.5305,2.5305,2.5305,2.5305,2.5295,2.53,2.5292,2.5266,2.5234,2.5206,2.5134,2.5032,2.4941,2.482,2.4691,2.4564,2.5119,2.585,2.6585,2.7358,2.8121,2.8913,2.8999,2.8999,0.0,0.0,0.0,2.9427,2.991,3.0448,3.1029,3.1549,3.1959,3.2253,3.2253,3.2125,3.1825,3.1035,3.0338,2.9763,2.9244,2.8999,2.8999,2.8999,2.9017,2.904,2.9091,2.9128,2.9181,2.9291,2.844,2.7085,2.7215,2.6367,2.5047,2.5113,2.5169,2.5189,2.5097,2.5003,2.4909,2.4882,2.4746,2.4596,2.4549,2.4433,2.4298,2.4257,2.4247,2.4247,2.4238,2.4257,2.428,2.433,2.4334,2.4334,2.4334,2.4334,2.4343,2.4397,2.4442,2.4472,2.4502,2.4472,2.4416,2.4321,2.4252,2.419,2.4194,2.4194,2.4194,2.4194,2.4194,2.4194,2.4194,2.4194,2.4194,2.4194,2.4194,2.4194,2.4194,2.497,2.5398,2.5398,2.6471,2.7034,2.7034,2.7842,2.8199,2.8154,2.813,2.8048,2.5305,2.5305,2.5305,2.5305,2.5305,2.53,2.5297,2.5292,2.5284,2.522,2.5193,2.5152,0.0,0.0,2.4768,2.4635,2.5227,2.594,2.6614,2.7385,2.8178,0.0,0.0,0.0,0.0,0.0,0.0,3.032,0.0,3.0993,3.2509,3.2644,3.3011,3.377,3.3807,3.3433,3.2681,3.1831,3.0595,2.8999,2.8999,2.8999,2.8999,2.8999,2.904,2.9089,2.9119,2.9181,2.9309,2.9379,2.8563,2.7284,2.7388,2.6497,2.5179,2.5192,2.5231,2.5269,2.5264,2.5191,2.5098,2.5038,2.4917,2.4787,2.4651,2.4557,2.4482,2.4358,2.4303,2.4303,2.4303,2.4358,2.4412,2.4416,2.4423,2.4411,2.4411,2.4411,2.4459,2.4599,2.4619,2.4625,2.4696,2.4594,2.4518,2.449,2.433,2.421,2.4199,2.4194,2.4194,2.4194,2.4194,2.4194,2.4194,2.4194,2.4194,2.4194,2.4194,2.4213,2.4268,2.5026,2.549,2.5526,2.7058,2.7866,2.7866,2.8626,2.8999,2.8999,2.8934,2.8893,2.5305,2.5305,2.5305,2.5305,2.5305,2.5305,2.5298,2.5298,2.529,2.5284,2.5239,2.5153,0.0,0.0,0.0,2.469,2.5257,0.0,2.6599,2.7388,0.0,2.8901,0.0,2.9244,2.9837,3.0075,0.0,0.0,3.1983,3.2161,3.2583,3.3176,3.3587,3.3788,3.3807,3.3697,3.3495,3.2106,3.0595,2.8999,2.8999,2.8999,2.8999,2.8999,2.904,2.9113,2.9202,2.9291,2.9384,2.9542,2.91,2.8267,2.7742,2.6966,2.6062,2.5483,2.5699,2.6247,2.6241,2.5779,2.5168,2.5098,2.4976,2.4864,2.4768,2.4663,2.4561,2.4461,2.4404,2.4386,2.4439,2.4497,2.4557,2.4609,2.4613,2.4622,2.4622,2.4664,2.4715,2.4734,2.4795,2.4813,2.4772,2.4742,2.4679,2.4526,2.4406,2.4317,2.4215,2.4195,2.4194,2.4194,2.4194,2.4194,2.4194,2.4194,2.4194,2.4194,2.4194,2.447,2.5062,2.5865,2.6581,2.7174,2.8185,2.8693,2.8693,2.8895,2.8999,2.8999,2.8988,2.8946,2.5305,2.5305,2.5305,2.5305,2.5305,2.5305,2.5305,2.5305,2.5303,2.5307,2.5247,0.0,0.0,0.0,0.0,0.0,0.0,0.0,2.6646,2.744,2.8211,0.0,2.9317,0.0,3.0167,3.0846,3.1635,0.0,3.2601,3.2754,3.3103,3.355,3.3807,3.3807,3.3807,3.3458,3.2742,3.1849,3.0595,2.8999,2.8999,2.8999,2.8999,2.9034,2.9102,2.9191,0.0,2.9426,2.9546,2.9722,2.938,2.8752,2.8356,2.7749,2.7028,2.6603,2.6754,2.7162,2.7173,2.6809,2.6279,2.5847,2.5377,2.4963,2.4875,2.478,2.4676,2.4602,2.4565,2.4534,2.4578,2.4645,2.4696,2.4734,2.4768,2.4794,2.4794,2.4827,2.4852,2.4884,2.494,2.4963,2.4905,2.4834,2.4757,2.4619,2.4502,2.4407,2.4266,2.4214,2.4194,2.4194,2.4194,2.4194,2.4194,2.4194,2.4194,2.4194,2.4194,2.4562,2.5379,2.6172,2.6979,2.7774,2.8589,2.8999,2.8999,2.8999,2.8999,2.8999,2.8999,2.8988,2.5305,2.5305,2.5305,2.5305,2.5305,2.5305,2.5305,2.5305,2.5305,2.5305,0.0,2.5209,2.5198,0.0,2.496,2.4816,0.0,2.6107,2.6738,2.7502,2.8254,2.8924,2.9714,3.0246,3.0356,3.1727,3.2644,3.2754,3.2754,3.3066,3.3752,3.3807,3.3807,3.3807,3.3807,3.3024,3.1409,3.139,3.0595,2.8999,2.8999,2.9005,2.9022,2.9061,2.9162,2.9299,2.9372,0.0,2.9726,2.9864,2.9593,2.9065,2.9028,2.8591,2.7978,2.7923,2.797,2.8066,2.8066,2.8014,2.7813,2.6822,2.5951,2.5234,2.4998,2.4884,2.4812,2.4757,2.4738,2.4738,2.4738,2.4787,2.4819,2.4826,2.4886,2.4925,2.4932,2.4935,2.4958,2.5016,2.5066,2.5082,2.5044,2.4919,2.4802,2.4725,2.4601,2.4455,2.4335,2.4261,2.4199,2.4194,2.4194,2.4194,2.4194,2.4194,2.4194,2.4194,2.4305,2.4727,2.5521,2.6337,2.7145,2.7939,2.8644,2.8999,2.8999,2.8999,2.8999,2.8999,2.8999,2.8999,2.5305,2.5305,2.5305,2.5305,2.5305,2.5305,2.5305,2.5305,0.0,0.0,0.0,2.5269,2.5201,2.5087,0.0,2.4819,0.0,0.0,0.0,0.0,2.8273,0.0,0.0,0.0,0.0,0.0,0.0,0.0,0.0,3.3642,3.3788,3.3807,3.3807,3.3807,3.3807,3.3024,3.1409,3.139,3.0595,2.8999,2.8999,2.9034,2.9072,2.9084,2.9165,2.9307,2.9438,0.0,2.9808,2.9987,3.0025,2.9913,2.9324,2.8991,2.8794,2.8143,2.8316,2.8896,2.8896,2.8874,2.8615,2.7081,2.6439,2.6107,2.5313,2.5013,2.4948,2.4885,2.4864,2.4864,2.4864,2.4914,2.497,2.4977,2.5013,2.5072,2.5071,2.5116,2.5142,2.5154,2.5168,2.5184,2.5171,2.5057,2.4926,2.4805,2.4664,2.4532,2.4407,2.4289,2.4196,2.4194,2.4194,2.4194,2.4194,2.4194,2.4194,2.4194,2.4824,2.5553,2.6355,2.7163,2.797,2.8785,2.8932,2.8999,2.8999,2.8999,2.8999,2.8999,2.8999,2.8999,2.5307,2.5278,2.5248,2.5248,2.5248,2.5251,2.5285,0.0,0.0,0.0,0.0,2.5279,2.5201,0.0,0.0,0.0,0.0,0.0,0.0,0.0,0.0,0.0,0.0,0.0,0.0,0.0,0.0,0.0,0.0,3.3807,3.3807,3.3807,3.3807,3.3807,3.3807,3.322,3.2045,3.1611,3.0803,2.961,2.9247,2.9079,2.9095,2.9171,2.927,2.9414,2.9584,0.0,2.9963,3.0106,3.0194,3.0219,2.9904,2.978,2.9737,2.933,2.9448,2.9775,2.9775,2.9775,2.9561,2.8302,2.7292,2.6458,2.5973,2.5479,2.5093,2.5028,2.4997,2.4997,2.4997,2.5059,2.5103,2.5099,2.5125,2.5151,2.5149,2.5195,2.5255,2.5249,2.5241,2.5239,2.522,2.5088,2.4964,2.4874,2.4738,2.46,2.4467,2.438,2.428,2.4204,2.4194,2.4194,2.4194,2.4194,2.4378,2.4805,2.5196,2.5944,2.7163,2.7591,2.8172,2.8987,2.8999,2.8999,2.8999,2.8999,2.8999,2.8999,2.8999,2.8999,2.5276,2.5239,2.5201,2.5176,2.5198,2.5209,2.5269,2.5282,0.0,0.0,2.5307,2.527,2.5225,0.0,0.0,0.0,0.0,0.0,0.0,0.0,0.0,0.0,0.0,0.0,0.0,0.0,0.0,0.0,0.0,0.0,3.3807,3.3807,3.3807,3.3807,3.3807,3.3421,3.2601,3.1971,3.1268,3.0472,2.9895,2.956,2.9414,2.9524,2.9572,2.956,2.9732,0.0,0.0,3.0173,3.0238,3.031,3.0373,3.0288,3.0135,3.0327,3.0288,3.0154,3.0346,3.0404,3.0288,2.9602,2.8245,2.6834,2.6595,2.5904,2.5204,2.5138,2.5129,2.5129,2.5129,2.5165,2.5201,2.5228,2.5228,2.5228,2.5228,2.5262,2.5297,2.5297,2.5294,2.5276,2.5237,2.5111,2.5016,2.4921,2.4824,2.47,2.4545,2.4462,2.4441,2.4491,2.4471,2.4451,2.4451,2.4617,2.4984,2.5613,2.5815,2.6476,2.7756,2.7976,2.835,2.8987,2.8999,2.8999,2.8999,2.8999,2.8999,2.8999,2.8999,2.8999,2.5234,2.5198,2.519,2.5123,2.5157,2.5195,2.5217,0.0,0.0,2.5292,2.531,2.5295,2.5292,2.5245,0.0,0.0,0.0,0.0,0.0,0.0,0.0,0.0,0.0,0.0,0.0,0.0,0.0,0.0,0.0,0.0,3.3795,3.3807,3.3807,3.3807,3.3807,3.3421,3.2601,3.2534,3.2132,3.1378,3.1311,3.0999,3.0453,3.0469,3.0185,2.9695,2.9834,0.0,0.0,3.0161,3.0238,3.031,3.0373,2.9926,2.9316,3.0118,2.9907,2.9335,3.0138,3.0404,3.0385,3.0308,2.9157,2.7635,2.6836,2.5978,2.5276,2.5212,2.5184,2.5184,2.5184,2.5206,2.5214,2.5276,2.5283,2.53,2.53,2.53,2.5303,2.5303,2.5305,2.5309,2.5284,2.5236,2.5137,2.5019,2.4924,2.4801,2.4615,2.4522,2.4746,2.5393,2.5362,2.5288,2.5288,2.5952,2.6405,2.6497,2.7187,2.7646,2.7792,2.8497,2.8932,2.8999,2.8999,2.8999,2.8999,2.8999,2.8999,2.8999,2.8999,2.8999,2.5217,2.5177,2.5122,2.511,2.5116,2.5153,2.5197,0.0,0.0,2.5241,2.5268,2.5297,2.5252,2.5244,2.5237,0.0,0.0,0.0,0.0,0.0,0.0,0.0,0.0,0.0,0.0,0.0,0.0,0.0,0.0,0.0,3.3979,3.394,3.3914,3.3914,3.3914,3.3767,3.3454,3.2956,3.2563,3.2287,3.1866,3.1576,3.1389,3.1469,3.1152,3.0556,3.0675,0.0,0.0,3.0231,3.0308,3.0351,3.0398,3.0192,2.9926,3.0269,3.0173,2.9926,3.0288,3.0404,3.0404,3.0404,2.958,2.847,2.7632,2.6413,2.529,2.5261,2.5259,2.5259,2.5259,2.5259,2.528,2.529,2.53,2.5305,2.5305,2.5305,2.5305,2.5305,2.5298,2.5307,2.5292,2.5231,2.5179,2.5137,2.5038,2.4921,2.4794,2.5102,2.5414,2.5642,2.555,2.5663,2.6147,2.6431,2.6809,2.7291,2.7627,2.8026,2.8497,2.8822,2.8999,2.8999,2.8999,2.8999,2.8999,2.8999,2.8999,2.8999,2.8999,2.8999,2.5174,2.5114,2.5063,2.5076,2.5079,2.5082,0.0,0.0,2.5203,2.519,2.5241,2.5255,2.5225,2.5252,2.5241,0.0,0.0,0.0,0.0,0.0,0.0,0.0,0.0,0.0,0.0,0.0,0.0,0.0,0.0,0.0,3.4915,3.4897,3.463,3.408,3.4061,3.4061,3.4061,3.3506,3.3216,3.3241,3.2797,3.2484,3.2355,3.248,3.2034,3.1164,3.1278,0.0,0.0,3.0286,3.0342,3.0404,3.0404,3.0231,3.0041,3.0308,3.0231,3.0041,3.0308,3.0404,3.0404,3.0404,2.9813,2.8992,2.8434,2.7236,2.6079,2.6079,2.6079,2.6079,2.6079,2.5885,2.5673,2.5673,2.55,2.5305,2.5305,2.5305,2.5305,2.5305,2.5305,2.53,2.5302,2.526,2.5228,2.5203,2.5118,2.512,2.5298,2.5695,2.6117,2.6483,2.6405,2.653,2.7037,2.7245,2.7576,2.8151,2.8165,2.8405,2.8987,2.8999,2.8999,2.8999,2.8999,2.8999,2.8999,2.8999,2.8999,2.8999,2.8999,2.8999,2.511,2.5057,2.5005,2.4994,2.5008,2.5022,0.0,0.0,2.52,2.5206,2.5195,2.522,2.5284,2.5249,2.5192,2.5192,0.0,0.0,0.0,0.0,0.0,0.0,0.0,0.0,0.0,0.0,0.0,0.0,0.0,0.0,3.6826,3.6924,3.6122,3.4265,3.4197,3.4197,3.4197,3.4179,3.4215,3.4299,3.4338,3.4037,3.34,3.3524,3.2747,0.0,0.0,0.0,0.0,3.0307,3.0342,3.0404,3.0404,2.9868,2.9223,3.008,2.9849,2.9239,3.0099,3.0404,3.0404,3.0404,2.9813,2.9107,2.9088,2.853,2.7873,2.7873,2.7873,2.7873,2.7873,2.7236,2.6579,2.6579,2.5923,2.5305,2.5305,2.5305,2.5305,2.5305,2.5305,2.5305,2.5305,2.5305,2.5282,2.5214,2.5206,2.5454,2.619,2.6177,2.6711,2.8296,2.8352,2.8188,2.8009,2.8649,2.9071,2.9089,2.9027,2.8981,2.8999,2.8999,2.8999,2.8999,2.8999,2.8999,2.8999,2.8999,2.8999,2.8999,2.8999,2.8999,2.5116,2.5054,2.499,2.4999,2.5008,2.5008,2.5022,0.0,2.5079,2.5112,2.5172,2.5206,2.5231,2.5206,2.5206,2.5206,0.0,0.0,0.0,0.0,0.0,0.0,0.0,0.0,0.0,0.0,0.0,0.0,0.0,0.0,3.7084,3.7166,3.6624,3.5332,3.5295,3.5027,3.4478,3.4478,3.4484,3.4506,3.4623,3.4557,3.4364,3.4538,3.3771,0.0,0.0,0.0,0.0,3.0345,3.0376,3.0404,3.0404,3.0231,3.0022,3.0308,3.0231,3.0022,3.0308,3.0404,3.0404,3.0404,3.0212,2.9984,2.9984,2.9006,2.7893,2.7893,2.7893,2.7893,2.7893,2.77,2.7332,2.6736,2.6387,2.6019,2.5421,2.5305,2.5305,2.5305,2.5305,2.5305,2.5305,2.53,2.5285,2.5262,2.5263,2.5543,2.6334,2.6835,2.7507,2.8529,2.9049,2.9205,2.8901,2.91,2.9218,2.9162,2.9145,2.9147,2.9147,2.9147,2.9147,2.9147,2.9147,2.9106,2.9079,2.9079,2.9051,2.8999,2.8999,2.8999,0.0,2.5082,2.5028,2.5015,2.4999,0.0,0.0,0.0,2.5012,2.5095,2.5128,2.516,2.5203,2.5206,2.5209,2.5201,2.5404,0.0,0.0,0.0,0.0,0.0,0.0,0.0,0.0,0.0,0.0,0.0,0.0,0.0,3.8221,3.8323,3.7941,3.7036,3.6319,3.57,3.521,3.4884,3.4715,3.4715,3.4825,3.4888,3.4922,3.5069,3.4447,0.0,0.0,0.0,0.0,3.0513,3.0404,3.0404,3.0404,3.0404,3.0404,3.0404,3.0404,3.0404,3.0404,3.0404,3.0404,3.0404,3.0404,3.0404,3.0404,2.9676,2.8832,2.8832,2.8832,2.8832,2.8832,2.8604,2.822,2.7662,2.7063,2.6445,2.5904,2.5538,2.5305,2.5305,2.5305,2.5305,2.5305,2.5305,2.5416,2.573,2.5799,2.6203,2.7346,2.7864,2.8415,2.9144,2.9644,2.9806,2.9551,2.9423,2.9368,2.9323,2.9262,2.9235,2.9235,2.9235,2.9235,2.9235,2.9232,2.9218,2.9175,2.9112,2.9074,2.8999,2.8999,2.8999,0.0,2.5144,2.5079,2.5025,2.4996,2.4993,0.0,0.0,0.0,0.0,2.5104,2.5125,2.5173,2.5184,2.5214,2.5259,0.0,0.0,0.0,0.0,0.0,0.0,0.0,0.0,0.0,0.0,0.0,0.0,0.0,0.0,3.9953,4.0072,3.9795,3.911,3.7352,3.6349,3.6226,3.5424,3.4988,3.4912,3.4997,3.5047,3.511,3.5181,3.4806,0.0,0.0,0.0,0.0,3.075,3.0404,3.0404,3.0404,3.0404,3.0404,3.0404,3.0404,3.0404,3.0404,3.0404,3.0404,3.0404,3.0404,3.0404,3.0404,3.0404,3.0404,3.0404,3.0404,3.0404,3.0404,2.9794,2.9184,2.9107,2.7912,2.6755,2.6695,2.606,2.5481,2.5481,2.5481,2.5481,2.5481,2.5481,2.5769,2.656,2.6696,2.7278,2.8886,2.9043,2.9282,3.0031,3.0109,3.0065,2.9922,2.9673,2.9522,2.9517,2.9404,2.9329,2.9324,2.9324,2.9319,2.9314,2.9307,2.9307,2.9296,2.9163,2.9074,2.8999,2.8999,2.8999,2.5198,0.0,2.515,2.5086,2.5031,2.5005,0.0,0.0,0.0,0.0,0.0,2.5104,2.5125,2.5112,2.532,0.0,0.0,0.0,0.0,0.0,0.0,0.0,0.0,0.0,0.0,0.0,0.0,0.0,0.0,3.9596,4.0043,4.0138,4.0138,4.007,3.9006,3.7787,3.6438,3.6228,3.5781,3.5124,3.5208,3.5237,3.5268,3.5331,3.49,0.0,0.0,0.0,3.1638,3.075,3.0404,3.0404,3.0404,3.0404,3.0404,3.0404,3.0404,3.0404,3.0404,3.0404,3.0404,3.0404,3.0404,3.0404,3.0404,3.0404,3.0404,3.0404,3.0404,3.0404,3.0404,3.025,2.9926,2.9258,2.88,2.8335,2.7739,2.7431,2.7294,2.7294,2.7294,2.7294,2.7294,2.7294,2.7351,2.7566,2.7599,2.7962,2.8962,2.9097,2.9371,3.0165,3.0217,3.0166,3.0138,2.9928,2.9754,2.9663,2.9617,2.9603,2.9617,2.9617,2.9574,2.9531,2.9382,2.9273,2.9211,2.9147,2.9074,2.8999,2.8999,2.8999,2.5108,2.5181,2.515,2.5114,2.5057,2.5005,2.4991,0.0,0.0,0.0,0.0,0.0,2.5041,0.0,0.0,0.0,0.0,0.0,0.0,0.0,0.0,0.0,0.0,0.0,0.0,0.0,0.0,0.0,0.0,3.9908,4.0191,4.0252,4.0338,4.0436,3.9998,3.8906,3.7168,3.6747,3.6111,3.5242,3.5285,3.5327,3.5346,3.5387,3.5166,0.0,0.0,0.0,3.216,3.0904,3.0404,3.0404,3.0404,3.0404,3.0404,3.0404,3.0404,3.0404,3.0404,3.0404,3.0404,3.0404,3.0404,3.0404,3.0404,3.0404,3.0404,3.0404,3.0404,3.0404,3.0404,3.0404,3.0288,2.9813,2.9393,2.8973,2.8549,2.8162,2.7893,2.7893,2.7893,2.7893,2.7893,2.7893,2.8027,2.8396,2.8453,2.8758,2.9583,2.97,2.9858,3.025,3.027,3.0257,3.026,3.0153,3.0034,2.9895,2.9822,2.9783,2.9795,2.9796,2.9729,2.9602,2.9463,2.9336,2.9194,2.9156,2.9108,2.8999,2.8999,2.8999,2.4968,2.5144,2.5079,2.5073,2.5047,2.4995,0.0,0.0,0.0,0.0,0.0,0.0,0.0,0.0,0.0,0.0,0.0,0.0,0.0,0.0,0.0,0.0,0.0,0.0,0.0,0.0,0.0,0.0,0.0,4.0043,4.0293,4.0375,4.0443,4.0492,4.0496,3.9731,3.8131,3.7252,3.6389,3.5518,3.5384,3.5364,3.5416,3.5416,3.5449,3.5404,0.0,0.0,3.2776,3.1234,3.0519,3.0404,3.0404,3.0404,3.0404,3.0404,3.0404,3.0404,3.0404,3.0404,3.0404,3.0404,3.0404,3.0404,3.0404,3.0404,3.0404,3.0404,3.0404,3.0404,3.0404,3.0404,3.0404,3.0404,2.983,2.9297,2.9297,2.8758,2.8277,2.8277,2.8277,2.8277,2.8277,2.8277,2.8508,2.9201,2.9297,2.9563,3.0308,3.0404,3.0376,3.0316,3.0313,3.032,3.0327,3.0302,3.025,3.0131,3.0015,2.9937,2.9936,2.991,2.9814,2.9617,2.9535,2.9387,2.9194,2.9184,2.9112,2.8999,2.8999,2.8999,2.4896,2.5073,2.5027,2.502,2.5017,2.4971,0.0,0.0,0.0,0.0,0.0,0.0,0.0,0.0,0.0,0.0,0.0,0.0,0.0,0.0,0.0,0.0,0.0,0.0,0.0,0.0,0.0,0.0,0.0,4.0142,4.0298,4.0428,4.0499,4.0492,4.0496,4.0046,3.9089,3.8223,3.7354,3.6486,3.579,3.5467,3.547,3.547,3.5493,3.5442,0.0,3.3587,3.2833,3.1888,3.108,3.0404,3.0404,3.0404,3.0404,3.0404,3.0404,3.0404,3.0404,3.0404,3.0404,3.0404,3.0404,3.0404,3.0404,3.0404,3.0404,3.0404,3.0404,3.0404,3.0404,3.0404,3.0404,3.0404,3.0308,3.0192,3.0192,3.0096,3.0019,3.0019,3.0019,3.0019,3.0019,3.0019,3.0058,3.0173,3.0192,3.025,3.0385,3.0404,3.0401,3.0398,3.0379,3.0376,3.0389,3.0329,3.0292,3.027,3.0195,3.013,3.0061,2.9966,2.9831,2.9697,2.9516,2.9341,2.9194,2.9134,2.9085,2.8999,2.8999,2.8999,2.4771,2.4972,2.4921,2.4857,2.4868,0.0,0.0,0.0,0.0,0.0,0.0,0.0,0.0,0.0,0.0,0.0,0.0,0.0,0.0,0.0,0.0,0.0,0.0,0.0,0.0,0.0,0.0,0.0,0.0,0.0,4.0329,4.0445,4.0507,4.0492,4.0496,4.0323,3.9958,3.9127,3.8027,3.6696,3.5885,3.55,3.55,3.55,3.55,3.5442,0.0,3.3971,3.351,3.2237,3.1465,3.1061,3.0577,3.0404,3.0404,3.0404,3.0404,3.0404,3.0404,3.0404,3.0404,3.0404,3.0404,3.0404,3.0404,3.0404,3.0404,3.0404,3.0404,3.0404,3.0404,3.0404,3.0404,3.0404,3.0404,3.0404,3.0404,3.0404,3.0404,3.0404,3.0404,3.0404,3.0404,3.0404,3.0404,3.0404,3.0404,3.0404,3.0404,3.0404,3.0404,3.0404,3.0404,3.0404,3.0404,3.0373,3.0333,3.0299,3.0244,3.0173,3.0106,2.9964,2.9838,2.9711,2.9511,2.933,2.9194,2.9123,2.9074,2.8999,2.8999,2.8999,2.4664,2.4863,2.4827,2.473,0.0,0.0,0.0,0.0,0.0,0.0,0.0,0.0,0.0,0.0,0.0,0.0,0.0,0.0,0.0,0.0,0.0,0.0,0.0,0.0,0.0,0.0,0.0,0.0,0.0,0.0,4.0415,4.0474,4.0499,4.0496,4.0496,4.0496,4.0496,3.9704,3.853,3.6984,3.6173,3.5673,3.55,3.55,3.55,3.5462,3.4795,3.4395,3.4106,3.2814,3.2179,3.1907,3.1253,3.0865,3.0673,3.0481,3.0404,3.0404,3.0404,3.0404,3.0404,3.0404,3.0404,3.0404,3.0404,3.0404,3.0404,3.0404,3.0404,3.0404,3.0404,3.0404,3.0404,3.0404,3.0404,3.0404,3.0404,3.0404,3.0404,3.0404,3.0404,3.0404,3.0404,3.0404,3.0404,3.0404,3.0404,3.0404,3.0404,3.0404,3.0404,3.0404,3.0404,3.0404,3.0404,3.0404,3.0383,3.0334,3.025,3.0194,3.0123,2.9988,2.9832,2.9711,2.9501,2.932,2.9194,2.9124,2.9062,2.9028,2.9028,2.904,2.4582,2.4749,2.4715,2.4704,0.0,0.0,0.0,0.0,0.0,0.0,0.0,0.0,0.0,0.0,0.0,0.0,0.0,0.0,0.0,0.0,0.0,0.0,0.0,0.0,0.0,0.0,0.0,0.0,0.0,0.0,4.0493,4.0503,4.0492,4.0496,4.0496,4.0496,4.0496,3.9704,3.8838,3.7892,3.7023,3.6212,3.55,3.55,3.55,3.55,3.5423,3.4949,3.4186,3.4068,3.3548,3.2814,3.2737,3.2256,3.1503,3.0692,3.0404,3.0404,3.0404,3.0404,3.0404,3.0404,3.0404,3.0404,3.0404,3.0404,3.0404,3.0404,3.0404,3.0404,3.0404,3.0404,3.0404,3.0404,3.0404,3.0404,3.0404,3.0404,3.0404,3.0404,3.0404,3.0404,3.0404,3.0404,3.0404,3.0404,3.0404,3.0404,3.0404,3.0404,3.0404,3.0404,3.0404,3.0404,3.0404,3.0404,3.0401,3.0398,3.0321,3.0256,3.0208,3.0007,2.9832,2.9711,2.9434,2.927,2.9194,2.9079,2.904,2.9084,2.9084,2.9136,2.4674,2.4729,2.4675,2.4604,0.0,0.0,0.0,0.0,0.0,0.0,0.0,0.0,0.0,0.0,0.0,0.0,0.0,0.0,0.0,0.0,0.0,0.0,0.0,0.0,0.0,0.0,0.0,0.0,0.0,0.0,4.0497,4.0507,4.0496,4.0496,4.0496,4.0496,4.0496,4.0208,3.9358,3.7988,3.7119,3.6269,3.55,3.55,3.55,3.55,3.55,3.5308,3.4965,3.4414,3.401,3.3644,3.3103,3.2718,3.2352,3.1503,3.1215,3.1138,3.0596,3.0404,3.0404,3.0404,3.0404,3.0404,3.0404,3.0404,3.0404,3.0404,3.0404,3.0404,3.0404,3.0404,3.0404,3.0404,3.0404,3.0404,3.0404,3.0404,3.0404,3.0404,3.0404,3.0404,3.0404,3.0404,3.0404,3.0404,3.0404,3.0404,3.0404,3.0404,3.0404,3.0404,3.0404,3.0404,3.0404,3.0404,3.0404,3.0404,3.0346,3.0266,3.0197,3.0049,2.9891,2.9755,2.9541,2.9368,2.9259,2.9178,2.9147,2.9156,2.9202,2.9235,2.4702,2.4666,2.4611,0.0,0.0,0.0,0.0,0.0,0.0,0.0,0.0,0.0,0.0,0.0,0.0,0.0,0.0,0.0,0.0,0.0,0.0,0.0,0.0,0.0,0.0,0.0,0.0,0.0,0.0,0.0,0.0,4.0496,4.0496,4.0496,4.0496,4.0496,4.0496,4.0496,3.9665,3.7988,3.7407,3.6542,3.55,3.55,3.55,3.55,3.55,3.55,3.5442,3.4853,3.4603,3.4526,3.3641,3.3317,3.3218,3.2372,3.1929,3.1618,3.1022,3.0635,3.0404,3.0404,3.0404,3.0404,3.0404,3.0404,3.0404,3.0404,3.0404,3.0404,3.0404,3.0404,3.0404,3.0404,3.0404,3.0404,3.0404,3.0404,3.0404,3.0404,3.0404,3.0404,3.0404,3.0404,3.0404,3.0404,3.0404,3.0404,3.0404,3.0404,3.0404,3.0404,3.0404,3.0404,3.0404,3.0404,3.0404,3.0404,3.0336,3.0267,3.0191,3.0083,2.9963,2.9808,2.9612,2.9458,2.9298,2.9244,2.923,2.923,2.9318,2.9373,2.4705,2.4603,0.0,0.0,0.0,0.0,0.0,0.0,0.0,0.0,0.0,0.0,0.0,0.0,0.0,0.0,0.0,0.0,0.0,0.0,0.0,0.0,0.0,0.0,0.0,0.0,0.0,0.0,0.0,0.0,0.0,4.0496,4.0496,4.0496,4.0496,4.0496,4.0496,4.0496,3.9646,3.8007,3.7988,3.71,3.55,3.55,3.55,3.55,3.55,3.55,3.55,3.55,3.55,3.5404,3.4548,3.4205,3.4106,3.3237,3.241,3.1715,3.1695,3.1138,3.0404,3.0404,3.0404,3.0404,3.0404,3.0404,3.0404,3.0404,3.0404,3.0404,3.0404,3.0404,3.0404,3.0404,3.0404,3.0404,3.0404,3.0404,3.0404,3.0404,3.0404,3.0404,3.0404,3.0404,3.0404,3.0404,3.0404,3.0404,3.0404,3.0404,3.0404,3.0404,3.0404,3.0404,3.0404,3.0404,3.0404,3.0404,3.0342,3.0273,3.0195,3.0135,3.0018,2.9812,2.9664,2.9492,2.9304,2.9304,2.9304,2.9304,2.9434,2.954,2.4576,2.4522,0.0,0.0,0.0,0.0,0.0,0.0,0.0,0.0,0.0,0.0,0.0,0.0,0.0,0.0,0.0,0.0,0.0,0.0,0.0,0.0,0.0,0.0,0.0,0.0,0.0,0.0,0.0,0.0,0.0,4.0496,4.0496,4.0496,4.0496,4.0496,4.0496,3.9938,3.9107,3.7988,3.7369,3.6523,3.55,3.55,3.55,3.55,3.55,3.55,3.55,3.55,3.55,3.5462,3.5215,3.5119,3.5003,3.4144,3.3279,3.2468,3.191,3.1138,3.0404,3.0404,3.0404,3.0404,3.0404,3.0404,3.0404,3.0404,3.0404,3.0404,3.0404,3.0404,3.0404,3.0404,3.0404,3.0404,3.0404,3.0404,3.0404,3.0404,3.0404,3.0404,3.0404,3.0404,3.0404,3.0404,3.0404,3.0404,3.0404,3.0404,3.0404,3.0404,3.0404,3.0404,3.0404,3.0404,3.0404,3.0404,3.0376,3.0336,3.0276,3.0216,3.0129,3.0003,2.9891,2.9746,2.958,2.9579,2.9579,2.9579,2.9612,2.9649,2.4522,0.0,0.0,0.0,0.0,0.0,0.0,0.0,0.0,0.0,0.0,0.0,0.0,0.0,0.0,0.0,0.0,0.0,0.0,0.0,0.0,0.0,0.0,0.0,0.0,0.0,0.0,0.0,0.0,0.0,0.0,4.0496,4.0496,4.0496,4.0496,4.0342,4.0035,3.9531,3.8684,3.7484,3.6946,3.6269,3.55,3.55,3.55,3.55,3.55,3.55,3.55,3.55,3.55,3.55,3.55,3.55,3.5442,3.4911,3.416,3.3356,3.2852,3.1907,3.0923,3.0923,3.0673,3.0404,3.0404,3.0404,3.0404,3.0404,3.0404,3.0404,3.0404,3.0404,3.0404,3.0404,3.0404,3.0404,3.0404,3.0404,3.0404,3.0404,3.0404,3.0404,3.0404,3.0404,3.0404,3.0404,3.0404,3.0398,3.0351,3.037,3.0364,3.0368,3.0361,3.037,3.037,3.0379,3.0404,3.0404,3.0404,3.0376,3.0342,3.0279,3.0208,3.0098,3.0011,2.9914,2.9785,2.9786,2.9787,2.9778,2.9806,2.9817,0.0,0.0,0.0,0.0,0.0,0.0,0.0,0.0,0.0,0.0,0.0,0.0,0.0,0.0,0.0,0.0,0.0,0.0,0.0,0.0,0.0,0.0,0.0,0.0,0.0,0.0,0.0,0.0,0.0,0.0,0.0,4.0496,4.0496,4.0496,4.0439,4.0035,3.93,3.9146,3.8277,3.6696,3.6638,3.6212,3.55,3.55,3.55,3.55,3.55,3.55,3.55,3.55,3.55,3.55,3.55,3.55,3.55,3.55,3.4946,3.4205,3.4205,3.3144,3.1811,3.1811,3.1215,3.0519,3.0519,3.0462,3.0404,3.0404,3.0404,3.0404,3.0404,3.0404,3.0404,3.0404,3.0404,3.0404,3.0404,3.0404,3.0404,3.0404,3.0404,3.0404,3.0404,3.0404,3.0401,3.0382,3.0401,3.037,3.0307,3.0301,3.0308,3.0296,3.0302,3.0304,3.0307,3.0367,3.0382,3.0404,3.0404,3.0404,3.0404,3.0346,3.0246,3.0123,3.0109,3.0053,2.9925,2.9916,2.9916,2.9925,2.9979,3.0014,0.0,0.0,0.0,0.0,0.0,0.0,0.0,0.0,0.0,0.0,0.0,0.0,0.0,0.0,0.0,0.0,0.0,0.0,0.0,0.0,0.0,0.0,0.0,0.0,0.0,0.0,0.0,0.0,0.0,0.0,4.0492,4.0496,4.0496,4.0496,3.99,3.9473,3.93,3.795,3.7061,3.6696,3.6058,3.5673,3.55,3.55,3.55,3.55,3.55,3.55,3.55,3.55,3.55,3.55,3.55,3.55,3.55,3.55,3.4946,3.4205,3.4205,3.3529,3.2641,3.2641,3.2083,3.1426,3.1426,3.0942,3.0404,3.0404,3.0404,3.0404,3.0404,3.0404,3.0404,3.0404,3.0404,3.0404,3.0404,3.0404,3.0404,3.0404,3.0404,3.0404,3.0404,3.0404,3.0376,3.0339,3.0316,3.0323,3.0308,3.0302,3.0299,3.0292,3.0299,3.0295,3.0304,3.0313,3.0345,3.0401,3.0404,3.0404,3.0404,3.0333,3.0292,3.0256,3.0219,3.0138,3.0053,3.0061,3.0068,3.0057,3.0076,3.0084,0.0,0.0,0.0,0.0,0.0,0.0,0.0,0.0,0.0,0.0,0.0,0.0,0.0,0.0,0.0,0.0,0.0,0.0,0.0,0.0,0.0,0.0,0.0,0.0,0.0,0.0,0.0,0.0,0.0,4.0507,4.0496,4.0131,3.9938,3.9938,3.9107,3.8473,3.8065,3.7157,3.6504,3.6115,3.5692,3.55,3.55,3.55,3.55,3.55,3.55,3.55,3.55,3.55,3.55,3.55,3.55,3.55,3.55,3.55,3.5215,3.4814,3.4814,3.4257,3.3529,3.3529,3.2699,3.1695,3.1695,3.1099,3.0404,3.0404,3.0404,3.0404,3.0404,3.0404,3.0404,3.0404,3.0404,3.0404,3.0404,3.0404,3.0404,3.0404,3.0404,3.0404,3.0404,3.0373,3.0342,3.031,3.0276,3.0241,3.0246,3.0213,3.0192,3.0192,3.0192,3.0216,3.025,3.0244,3.0273,3.0345,3.0348,3.037,3.0404,3.037,3.0329,3.0299,3.0276,3.0221,3.0206,3.0206,3.0199,3.0204,3.0204,3.0174,0.0,0.0,0.0,0.0,0.0,0.0,0.0,0.0,0.0,0.0,0.0,0.0,0.0,0.0,0.0,0.0,0.0,0.0,0.0,0.0,0.0,0.0,0.0,0.0,0.0,0.0,0.0,0.0,0.0,4.0439,4.0304,3.9665,3.9223,3.9088,3.8238,3.7427,3.6715,3.6561,3.6154,3.55,3.55,3.55,3.55,3.55,3.55,3.55,3.55,3.55,3.55,3.55,3.55,3.55,3.55,3.55,3.55,3.55,3.55,3.55,3.55,3.5023,3.4414,3.4414,3.3276,3.191,3.191,3.1195,3.0404,3.0404,3.0404,3.0404,3.0404,3.0404,3.0404,3.0404,3.0404,3.0404,3.0404,3.0404,3.0404,3.0404,3.0404,3.0404,3.0404,3.0345,3.0304,3.0298,3.0235,3.019,3.0174,3.0109,3.0084,3.0076,3.008,3.0114,3.0183,3.0183,3.0215,3.0282,3.0295,3.0326,3.0386,3.0386,3.0361,3.0307,3.031,3.0317,3.0299,3.0299,3.0296,3.0289,3.0289,3.0273,0.0,0.0,0.0,0.0,0.0,0.0,0.0,0.0,0.0,0.0,0.0,0.0,0.0,0.0,0.0,0.0,0.0,0.0,0.0,0.0,0.0,0.0,0.0,0.0,0.0,0.0,0.0,0.0,4.0492,4.0208,3.9492,3.9358,3.8954,3.82,3.7331,3.6811,3.6696,3.6,3.5615,3.55,3.55,3.55,3.55,3.55,3.55,3.55,3.55,3.55,3.55,3.55,3.55,3.55,3.55,3.55,3.55,3.55,3.55,3.55,3.55,3.5423,3.5327,3.5327,3.4157,3.2737,3.2737,3.1638,3.0404,3.0404,3.0404,3.0404,3.0404,3.0404,3.0404,3.0404,3.0404,3.0404,3.0404,3.0404,3.0404,3.0404,3.0404,3.0404,3.0404,3.0345,3.0295,3.0302,3.024,3.0171,3.0121,3.0049,2.998,2.994,2.9972,3.0038,3.011,3.0176,3.0209,3.0205,3.0279,3.0299,3.0302,3.0302,3.0318,3.0307,3.0367,3.0367,3.0301,3.0301,3.0302,3.0289,3.0289,3.0308,0.0,0.0,0.0,0.0,0.0,0.0,0.0,0.0,0.0,0.0,0.0,0.0,0.0,0.0,0.0,0.0,0.0,0.0,0.0,0.0,0.0,0.0,0.0,0.0,0.0,0.0,0.0,0.0,3.9377,3.8934,3.8588,3.8104,3.768,3.7273,3.6465,3.6038,3.6038,3.5673,3.55,3.55,3.55,3.55,3.55,3.55,3.55,3.55,3.55,3.55,3.55,3.55,3.55,3.55,3.55,3.55,3.55,3.55,3.55,3.55,3.55,3.55,3.55,3.55,3.4311,3.2891,3.2891,3.1734,3.0404,3.0404,3.0404,3.0404,3.0404,3.0404,3.0404,3.0404,3.0404,3.0404,3.0404,3.0404,3.0404,3.0404,3.0404,3.0404,3.0404,3.0346,3.0308,3.0292,3.0199,3.0125,3.0046,2.992,2.9817,2.9796,2.9806,2.9855,2.9926,2.9984,3.0061,3.0142,3.0159,3.0209,3.0233,3.025,3.0244,3.0241,3.0317,3.0345,3.0367,3.0367,3.0358,3.0362,3.0362,3.0336,0.0,0.0,0.0,0.0,0.0,0.0,0.0,0.0,0.0,0.0,0.0,0.0,0.0,0.0,0.0,0.0,0.0,0.0,0.0,0.0,0.0,0.0,0.0,0.0,0.0,0.0,0.0,0.0,3.8373,3.7892,3.768,3.7042,3.6619,3.6404,3.5808,3.55,3.55,3.55,3.55,3.55,3.55,3.55,3.55,3.55,3.55,3.55,3.55,3.55,3.55,3.55,3.55,3.55,3.55,3.55,3.55,3.55,3.55,3.55,3.55,3.55,3.5462,3.5234,3.4138,3.2852,3.266,3.1561,3.0404,3.0404,3.0404,3.0404,3.0404,3.0404,3.0404,3.0404,3.0404,3.0404,3.0404,3.0404,3.0404,3.0404,3.0404,3.0404,3.0404,3.0339,3.0302,3.0292,3.0201,3.0065,2.9999,2.9813,2.9699,2.9672,2.9669,2.9692,2.9741,2.9823,2.9916,3.0026,3.0034,3.0072,3.0128,3.0141,3.0166,3.0164,3.0235,3.0311,3.0373,3.0382,3.0404,3.0404,3.0404,3.0373,0.0,0.0,0.0,0.0,0.0,0.0,0.0,0.0,0.0,0.0,0.0,0.0,0.0,0.0,0.0,0.0,0.0,0.0,0.0,0.0,0.0,0.0,0.0,0.0,0.0,0.0,0.0,0.0,3.8027,3.7642,3.6811,3.6715,3.6346,3.5596,3.5519,3.55,3.55,3.55,3.55,3.55,3.55,3.55,3.55,3.55,3.55,3.55,3.55,3.55,3.55,3.55,3.55,3.55,3.55,3.55,3.55,3.55,3.55,3.55,3.55,3.55,3.5365,3.4548,3.3644,3.2756,3.1987,3.1118,3.0404,3.0404,3.0404,3.0404,3.0404,3.0404,3.0404,3.0404,3.0404,3.0404,3.0404,3.0404,3.0404,3.0404,3.0404,3.0404,3.0404,3.0342,3.0292,3.0296,3.0195,3.0057,2.9913,2.9792,2.9686,2.9617,2.9607,2.9607,2.9612,2.9728,2.9812,2.9821,2.9878,2.9905,2.9928,2.9976,3.0034,3.0109,3.0174,3.025,3.031,3.0373,3.0404,3.0404,3.0404,3.0401,0.0,0.0,0.0,0.0,0.0,0.0,0.0,0.0,0.0,0.0,0.0,0.0,0.0,0.0,0.0,0.0,0.0,0.0,0.0,0.0,0.0,0.0,0.0,0.0,0.0,0.0,0.0,0.0,0.0,3.6254,3.5942,3.5923,3.5808,3.5519,3.55,3.5234,3.4661,3.4661,3.4661,3.4661,3.5234,3.55,3.55,3.55,3.55,3.55,3.55,3.55,3.55,3.55,3.55,3.55,3.55,3.55,3.55,3.55,3.55,3.55,3.55,3.55,3.5365,3.4472,3.3606,3.2756,3.1945,3.1099,3.0404,3.0404,3.0404,3.0404,3.0404,3.0404,3.0404,3.0404,3.0404,3.0404,3.0404,3.0404,3.0404,3.0404,3.0404,3.0404,3.0404,3.0345,3.0295,3.0296,3.0195,3.0061,2.9913,2.978,2.9659,2.955,2.9506,2.9463,2.9463,2.9593,2.9664,2.9664,2.9728,2.9763,2.9774,2.9836,2.9899,2.9965,3.0079,3.0197,3.0307,3.0316,3.0367,3.0404,3.0404,3.0404,0.0,0.0,0.0,0.0,0.0,0.0,0.0,0.0,0.0,0.0,0.0,0.0,0.0,0.0,0.0,0.0,0.0,0.0,0.0,0.0,0.0,0.0,0.0,0.0,0.0,0.0,0.0,0.0,0.0,0.0,3.4638,3.4638,3.4638,3.4638,3.4638,3.4349,3.3779,3.376,3.3914,3.4205,3.4795,3.5215,3.55,3.55,3.55,3.55,3.55,3.55,3.55,3.55,3.55,3.55,3.55,3.55,3.55,3.55,3.55,3.55,3.55,3.55,3.5308,3.4141,3.3375,3.2699,3.1599,3.0865,3.0404,3.0404,3.0404,3.0404,3.0404,3.0404,3.0404,3.0404,3.0404,3.0404,3.0404,3.0404,3.0404,3.0404,3.0404,3.0404,3.0404,3.0351,3.0323,3.0299,3.0216,3.0087,2.9913,2.9808,2.9664,2.9512,2.9428,2.9372,2.9375,2.9455,2.9495,2.9495,2.9569,2.9603,2.9603,2.9719,2.9795,2.983,2.9961,3.0097,3.0238,3.0286,3.0316,3.0373,3.0398,3.0404,0.0,0.0,0.0,0.0,0.0,0.0,0.0,0.0,0.0,0.0,0.0,0.0,0.0,0.0,0.0,0.0,0.0,0.0,0.0,0.0,0.0,0.0,0.0,0.0,0.0,0.0,0.0,0.0,3.4186,3.3798,3.2949,3.2891,3.2891,3.2891,3.2872,3.2852,3.2852,3.2852,3.3298,3.4129,3.4186,3.4641,3.5462,3.5481,3.55,3.55,3.55,3.55,3.55,3.55,3.55,3.55,3.55,3.55,3.55,3.55,3.55,3.55,3.55,3.55,3.5212,3.3468,3.2891,3.2583,3.0904,3.0404,3.0404,3.0404,3.0404,3.0404,3.0404,3.0404,3.0404,3.0404,3.0404,3.0404,3.0404,3.0404,3.0404,3.0404,3.0404,3.0404,3.0404,3.0404,3.0383,3.0302,3.0237,3.0126,2.9925,2.9841,2.9714,2.9522,2.9384,2.9296,2.9307,2.9302,2.9302,2.9302,2.9359,2.9397,2.9402,2.9574,2.9687,2.9704,2.9826,2.9953,3.0098,3.0235,3.0304,3.0307,3.0373,3.0404,2.4503,0.0,0.0,0.0,0.0,0.0,2.4663,2.5116,2.5623,0.0,0.0,0.0,0.0,0.0,0.0,0.0,0.0,0.0,0.0,0.0,0.0,0.0,0.0,0.0,0.0,0.0,0.0,0.0,3.3625,3.3141,3.291,3.2891,3.2891,3.2891,3.2333,3.2025,3.2025,3.2025,3.216,3.241,3.3625,3.4337,3.4584,3.5215,3.55,3.55,3.55,3.55,3.55,3.55,3.55,3.55,3.55,3.55,3.55,3.55,3.55,3.55,3.55,3.55,3.5212,3.3468,3.2891,3.2583,3.0904,3.0404,3.0404,3.0404,3.0404,3.0404,3.0404,3.0404,3.0404,3.0404,3.0404,3.0404,3.0404,3.0404,3.0404,3.0404,3.0404,3.0404,3.0404,3.0404,3.0373,3.0317,3.0235,3.0166,3.0057,2.9906,2.9746,2.9579,2.9448,2.9346,2.9294,2.9302,2.9291,2.9235,2.9243,2.9278,2.9332,2.9384,2.9487,2.9626,2.9704,2.9813,2.9955,3.015,3.0254,3.0307,3.0373,3.0404,0.0,0.0,0.0,0.0,0.0,0.0,2.4437,2.4768,2.5176,0.0,0.0,0.0,0.0,0.0,0.0,0.0,0.0,0.0,0.0,0.0,0.0,0.0,0.0,0.0,0.0,3.3968,3.3529,3.3183,3.2699,3.2237,3.1888,3.1868,3.1868,3.1868,3.1407,3.1157,3.1157,3.1157,3.1349,3.1715,3.3026,3.3856,3.4221,3.51,3.55,3.55,3.55,3.55,3.55,3.55,3.55,3.55,3.55,3.55,3.55,3.55,3.55,3.55,3.55,3.55,3.5212,3.3468,3.2891,3.2583,3.0904,3.0404,3.0404,3.0404,3.0404,3.0404,3.0404,3.0404,3.0404,3.0404,3.0404,3.0404,3.0404,3.0404,3.0404,3.0404,3.0404,3.0404,3.0404,3.0404,3.0376,3.031,3.058,3.076,3.0654,3.0838,3.0771,3.0241,3.007,2.98,2.9331,2.9299,2.9251,2.9156,2.9178,2.9192,2.923,2.9273,2.9356,2.9468,2.9561,2.9714,2.9904,3.0076,3.0211,3.0307,3.0342,3.0373,0.0,0.0,0.0,0.0,0.0,0.0,2.4474,2.4507,2.47,2.5421,0.0,0.0,0.0,0.0,0.0,0.0,0.0,0.0,0.0,0.0,0.0,0.0,0.0,0.0,3.2901,3.2811,3.2468,3.1753,3.1618,3.1215,3.0442,3.0404,3.0404,3.0404,3.0404,3.0404,3.0404,3.0404,3.0788,3.1561,3.2372,3.3221,3.4087,3.4965,3.5404,3.55,3.55,3.55,3.55,3.55,3.55,3.55,3.55,3.55,3.55,3.55,3.55,3.55,3.55,3.5442,3.508,3.3449,3.2833,3.2468,3.0885,3.0404,3.0404,3.0404,3.0404,3.0404,3.0404,3.0404,3.0404,3.0404,3.0404,3.0404,3.0404,3.0404,3.0404,3.0404,3.0404,3.0404,3.0404,3.0404,3.0414,3.0451,3.1101,3.1593,3.1553,3.2172,3.2233,3.126,3.104,3.0551,2.9539,2.9458,2.9354,2.9141,2.9162,2.9167,2.9106,2.9213,2.9275,2.9283,2.9414,2.9612,2.9887,3.0026,3.018,3.0292,3.0301,3.0339,0.0,0.0,0.0,0.0,0.0,0.0,2.4477,2.4504,2.4537,0.0,0.0,0.0,0.0,0.0,0.0,0.0,0.0,0.0,0.0,0.0,0.0,0.0,0.0,0.0,3.2884,3.2317,3.1872,3.1715,3.1061,3.0577,3.0404,3.0404,3.0404,3.0404,3.0404,3.0404,3.0404,3.0404,3.0481,3.0654,3.1522,3.2352,3.3179,3.4068,3.4834,3.55,3.55,3.55,3.55,3.55,3.55,3.55,3.55,3.55,3.55,3.55,3.55,3.55,3.55,3.5042,3.4279,3.3237,3.2468,3.1734,3.0712,3.0404,3.0404,3.0404,3.0404,3.0404,3.0404,3.0404,3.0404,3.0404,3.0404,3.0404,3.0404,3.0404,3.0404,3.0404,3.0404,3.0404,3.0404,3.0404,3.0632,3.1324,3.1536,3.1812,3.2448,3.2577,3.247,3.2156,3.2066,3.1571,3.053,3.0424,3.0086,2.9317,2.9229,2.9189,2.9173,2.9145,2.9156,2.9227,2.9351,2.9517,2.9735,2.9977,3.0138,3.0223,3.027,3.031,0.0,0.0,0.0,2.433,0.0,0.0,0.0,2.4494,2.4504,2.4507,0.0,0.0,0.0,0.0,0.0,0.0,0.0,0.0,0.0,0.0,0.0,0.0,0.0,0.0,3.1607,3.1273,3.1061,3.1061,3.0654,3.0404,3.0404,3.0404,3.0404,3.0404,3.0404,3.0404,3.0404,3.0404,3.0404,3.0404,3.1272,3.191,3.2333,3.3625,3.4433,3.4872,3.5308,3.55,3.55,3.55,3.5234,3.4891,3.5327,3.55,3.55,3.55,3.55,3.55,3.55,3.493,3.4068,3.3179,3.2352,3.1542,3.0654,3.0692,3.1138,3.1522,3.1368,3.1061,3.1061,3.0731,3.0404,3.0404,3.0404,3.0404,3.0404,3.0404,3.0404,3.0404,3.075,3.1061,3.1061,3.1061,3.133,3.2179,3.2631,3.3035,3.3402,3.3749,3.375,3.3213,3.3098,3.2466,3.1012,3.0899,3.0465,2.9461,2.9344,2.9275,2.92,2.9147,2.9124,2.9145,2.9289,2.9419,2.9551,2.9796,2.9984,3.0157,3.0217,3.028,0.0,0.0,0.0,0.0,0.0,2.433,0.0,0.0,0.0,2.4484,0.0,0.0,0.0,0.0,0.0,0.0,0.0,0.0,0.0,0.0,0.0,0.0,0.0,0.0,3.0295,3.0364,3.0404,3.0404,3.0404,3.0404,3.0404,3.0404,3.0404,3.0404,3.0404,3.0404,3.0404,3.0404,3.0404,3.0404,3.1118,3.1542,3.1756,3.3106,3.3798,3.3991,3.4696,3.5,3.5,3.5,3.458,3.4048,3.4907,3.5253,3.5253,3.5253,3.5365,3.55,3.55,3.4811,3.3837,3.3122,3.2352,3.1561,3.0865,3.1253,3.2064,3.2718,3.2429,3.191,3.1734,3.1176,3.0615,3.0442,3.0404,3.0404,3.0404,3.0538,3.0654,3.0654,3.1349,3.1891,3.1734,3.1833,3.2218,3.3026,3.3741,3.4231,3.4354,3.4927,3.5017,3.4254,3.411,3.3428,3.1762,3.1475,3.0917,2.9874,2.9576,2.9372,2.9243,2.9145,2.9089,2.9089,2.9214,2.9301,2.9373,2.9561,2.9792,3.0061,3.0146,3.023,0.0,0.0,0.0,0.0,2.4261,0.0,0.0,0.0,2.4412,2.4416,0.0,0.0,0.0,0.0,0.0,0.0,0.0,0.0,0.0,0.0,0.0,0.0,0.0,0.0,0.0,3.0352,3.0404,3.0404,3.0404,3.0404,3.0404,3.0404,3.0404,3.0404,3.0404,3.0404,3.0404,3.0404,3.0404,3.0404,3.05,3.0942,3.1715,3.191,3.2372,3.3045,3.3141,3.3199,3.3199,3.3199,3.3141,3.3122,3.401,3.4356,3.4356,3.4356,3.4834,3.55,3.55,3.4426,3.3026,3.2929,3.2352,3.1676,3.158,3.2122,3.2776,3.2872,3.2833,3.2602,3.1891,3.1638,3.1368,3.0577,3.0404,3.0404,3.0404,3.1003,3.1542,3.1542,3.2218,3.2545,3.1811,3.2295,3.3064,3.3914,3.4148,3.4487,3.5247,3.5366,3.5326,3.5163,3.5124,3.469,3.3593,3.2786,3.1937,3.0983,3.0063,2.9516,2.9382,2.9205,2.9089,2.9089,2.9112,2.9181,2.9309,2.9394,2.9608,2.9937,3.0046,3.0157,0.0,0.0,0.0,0.0,0.0,0.0,2.433,0.0,2.4469,0.0,0.0,0.0,0.0,0.0,0.0,0.0,2.838,0.0,0.0,0.0,0.0,0.0,0.0,0.0,0.0,0.0,0.0,0.0,3.0404,3.0404,3.0404,3.0404,3.0404,3.0404,3.0404,3.0404,3.0404,3.0404,3.0404,3.0404,3.0404,3.0596,3.0962,3.1465,3.1888,3.2237,3.2699,3.2891,3.2891,3.2891,3.2622,3.2237,3.2602,3.3337,3.4205,3.4205,3.4757,3.55,3.55,3.4369,3.2737,3.1772,3.1561,3.1792,3.2256,3.2987,3.376,3.4273,3.4045,3.3452,3.2622,3.2045,3.1484,3.0615,3.0404,3.0538,3.1041,3.1445,3.1833,3.2314,3.3083,3.3548,3.3202,3.3433,3.3952,3.4814,3.4946,3.508,3.5442,3.5486,3.5423,3.5368,3.5369,3.4971,3.3993,3.311,3.22,3.1216,3.0138,2.9477,2.9353,2.92,2.9089,2.9089,2.9089,2.9128,2.9187,2.9291,2.9434,2.9617,2.9862,3.0049,2.4525,0.0,0.0,0.0,0.0,0.0,0.0,0.0,0.0,0.0,0.0,0.0,0.0,0.0,0.0,0.0,0.0,0.0,0.0,0.0,0.0,0.0,0.0,0.0,0.0,0.0,0.0,0.0,0.0,3.0404,3.0404,3.0404,3.0404,3.0404,3.0404,3.0404,3.0404,3.0404,3.0404,3.0404,3.0404,3.0404,3.0423,3.1061,3.1349,3.1388,3.1965,3.2215,3.2215,3.2215,3.1868,3.1349,3.1349,3.2372,3.3837,3.3837,3.4545,3.55,3.55,3.4523,3.3026,3.1561,3.1676,3.2487,3.3083,3.3875,3.468,3.5327,3.5042,3.4295,3.3199,3.2468,3.1753,3.0654,3.0577,3.0923,3.1561,3.2064,3.2564,3.3141,3.3942,3.4532,3.4532,3.4542,3.4776,3.5404,3.55,3.55,3.55,3.547,3.5456,3.5409,3.5375,3.5105,3.4416,3.3322,3.2129,3.0897,3.002,2.9487,2.9324,2.9192,2.9112,2.9089,2.9072,2.9091,2.9089,2.8981,2.8965,2.9055,2.9597,2.9918,0.0,0.0,0.0,2.6515,0.0,0.0,0.0,0.0,2.663,0.0,0.0,0.0,0.0,0.0,0.0,0.0,0.0,0.0,0.0,0.0,0.0,0.0,0.0,0.0,0.0,0.0,0.0,0.0,3.0404,3.0404,3.0404,3.0404,3.0404,3.0404,3.0404,3.0404,3.0404,3.0404,3.0404,3.0404,3.0404,3.0404,3.0404,3.0423,3.0442,3.0442,3.0462,3.0481,3.0481,3.0481,3.0462,3.0442,3.0442,3.1465,3.2949,3.2949,3.4023,3.55,3.55,3.4911,3.401,3.3103,3.3414,3.4125,3.4148,3.4776,3.5462,3.5481,3.5481,3.5058,3.3353,3.2872,3.2449,3.0788,3.1041,3.1676,3.1695,3.2971,3.4129,3.4144,3.4803,3.537,3.537,3.5418,3.5462,3.55,3.55,3.55,3.55,3.5449,3.5405,3.5405,3.5334,3.5293,3.5254,3.3635,3.1803,2.9957,2.9757,2.9593,2.9407,2.9275,2.9162,2.9089,2.904,2.904,2.9089,2.8316,2.8012,2.8169,2.9219,2.9735,0.0,0.0,2.6607,2.6607,0.0,0.0,0.0,0.0,0.0,0.0,0.0,0.0,0.0,0.0,0.0,0.0,0.0,0.0,0.0,0.0,0.0,0.0,0.0,0.0,0.0,0.0,0.0,0.0,3.0404,0.0,3.0404,3.0404,3.0404,3.0404,3.0404,3.0404,3.0404,3.0404,3.0404,3.0404,3.0404,3.0404,3.0404,3.0404,3.0404,3.0404,3.0404,3.0404,3.0404,3.0404,3.0404,3.0462,3.1041,3.1926,3.2891,3.2891,3.4003,3.5423,3.4834,3.4452,3.4068,3.3179,3.349,3.4205,3.4205,3.4814,3.55,3.55,3.55,3.5231,3.4068,3.3337,3.2756,3.2195,3.1868,3.2006,3.3106,3.3798,3.4369,3.4896,3.5205,3.5391,3.5339,3.5343,3.5377,3.5364,3.5368,3.5368,3.5368,3.5357,3.5338,3.5331,3.5316,3.5262,3.517,3.3506,3.1725,2.9977,2.9724,2.9574,2.9468,2.9283,2.9184,2.9162,2.9062,2.8741,2.8243,2.8018,2.7656,2.7173,2.7585,2.7862,2.7034,2.7231,0.0,2.7446,2.7446,0.0,2.7446,0.0,0.0,0.0,0.0,0.0,0.0,0.0,0.0,0.0,0.0,0.0,0.0,2.9808,0.0,0.0,0.0,0.0,0.0,0.0,0.0,3.0352,3.0352,3.0358,0.0,3.0351,3.0376,3.0404,3.0404,3.0404,3.0404,3.0404,3.0404,3.0404,3.0404,3.0404,3.0404,3.0404,3.0404,3.0404,3.0404,3.0404,3.0423,3.0731,3.0865,3.0942,3.1792,3.2622,3.3356,3.3356,3.4273,3.5423,3.4853,3.4661,3.4564,3.4007,3.4199,3.4661,3.4661,3.5042,3.55,3.55,3.55,3.5311,3.4433,3.3779,3.3276,3.2968,3.2737,3.2872,3.3971,3.4433,3.4804,3.5297,3.5383,3.5339,3.5238,3.522,3.5205,3.5254,3.5266,3.5262,3.5227,3.5231,3.5226,3.5204,3.5164,3.4882,3.4204,3.3058,3.1644,2.9949,2.9655,2.9531,2.9424,2.9273,2.9184,2.9156,2.8774,2.8314,2.7792,2.7279,2.6749,2.6225,2.5997,2.5945]}]]